[[{"header":{"parameterUnit":"m.s-1","parameterCategory":1,"la1":31.0,"la2":29.5877,"lo1":-88.7671,"lo2":-86.6584,"dy":0.0162,"dx":0.0185,"nx":115,"ny":88,"refTime":"2024-08-02T06:00:00:Z","depth":0,"parameterNumber":2,"parameterNumberName":"U-component_of_WINDS"},"data":[0.0,0.0,0.0,0.0,0.0,0.0,0.0,0.0,0.0,0.0,0.0,0.0,0.0,0.0,0.0,0.0,0.0,0.0,0.0,0.0,0.0,0.0,0.0,0.0,0.0,0.0,0.0,0.0,0.0,0.0,0.0,0.0,0.0,0.0,0.0,0.0,0.0,0.0,0.0,0.0,0.0,0.0,0.0,0.0,0.0,0.0,0.0,0.0,0.0,0.0,0.0,0.0,0.0,0.0,0.0,0.0,0.0,0.0,0.0,0.0,0.0,0.0,0.0,0.0,0.0,0.0,0.0,0.0,0.0,0.0,0.0,0.0,0.0,0.0,0.0,0.0,0.0,0.0,0.0,0.0,0.0,0.0,0.0,0.0,0.0,0.0,0.0,0.0,0.0,0.0,0.0,0.0,0.0,0.0,0.0,0.0,0.0,0.0,0.0,0.0,0.0,0.0,0.0,0.0,0.0,0.0,0.0,0.0,0.0,0.0,0.0,0.0,0.0,0.0,0.0,0.0,0.0,0.0,0.0,0.0,0.0,0.0,0.0,0.0,0.0,0.0,0.0,0.0,0.0,0.0,0.0,0.0,0.0,0.0,0.0,0.0,0.0,0.0,0.0,0.0,0.0,0.0,0.0,0.0,0.0,0.0,0.0,0.0,0.0,0.0,0.0,0.0,0.0,0.0,0.0,0.0,0.0,0.0,0.0,0.0,0.0,0.0,0.0,0.0,0.0,0.0,0.0,0.0,0.0,0.0,0.0,0.0,0.0,0.0,0.0,0.0,0.0,0.0,0.0,0.0,0.0,0.0,0.0,0.0,0.0,0.0,0.0,0.0,0.0,0.0,0.0,0.0,0.0,0.0,0.0,0.0,0.0,0.0,0.0,0.0,0.0,0.0,0.0,0.0,0.0,0.0,0.0,0.0,0.0,0.0,0.0,0.0,0.0,0.0,0.0,0.0,0.0,0.0,0.0,0.0,0.0,0.0,0.0,0.0,0.0,0.0,0.0,0.0,0.0,0.0,0.0,0.0,0.0,0.0,0.0,0.0,0.0,0.0,0.0,0.0,0.0,0.0,0.0,0.0,0.0,0.0,0.0,0.0,0.0,0.0,0.0,0.0,0.0,0.0,0.0,0.0,0.0,0.0,0.0,0.0,0.0,0.0,0.0,0.0,0.0,0.0,0.0,0.0,0.0,0.0,0.0,0.0,0.0,0.0,0.0,0.0,0.0,0.0,0.0,0.0,0.0,0.0,0.0,0.0,0.0,0.0,0.0,0.0,0.0,0.0,0.0,0.0,0.0,0.0,0.0,0.0,0.0,0.0,0.0,0.0,0.0,0.0,0.0,0.0,0.0,0.0,0.0,0.0,0.0,0.0,0.0,0.0,0.0,0.0,0.0,0.0,0.0,0.0,0.0,0.0,0.0,0.0,0.0,0.0,0.0,0.0,0.0,0.0,0.0,0.0,0.0,0.0,0.0,0.0,0.0,0.0,0.0,0.0,0.0,0.0,0.0,0.0,0.0,0.0,0.0,0.0,0.0,0.0,0.0,0.0,0.0,0.0,0.0,0.0,0.0,0.0,0.0,0.0,0.0,0.0,0.0,0.0,0.0,0.0,0.0,0.0,0.0,0.0,0.0,0.0,0.0,0.0,0.0,0.0,0.0,0.0,0.0,0.0,0.0,0.0,0.0,0.0,0.0,0.0,0.0,0.0,0.0,0.0,0.0,0.0,0.0,0.0,0.0,0.0,0.0,0.0,0.0,0.0,0.0,0.0,0.0,0.0,0.0,0.0,0.0,0.0,0.0,0.0,0.0,0.0,0.0,0.0,0.0,0.0,0.0,0.0,0.0,0.0,0.0,0.0,0.0,0.0,0.0,0.0,0.0,0.0,0.0,0.0,0.0,0.0,0.0,0.0,0.0,0.0,0.0,0.0,0.0,0.0,0.0,0.0,0.0,0.0,0.0,0.0,0.0,0.0,0.0,0.0,0.0,0.0,0.0,0.0,0.0,0.0,0.0,0.0,0.0,0.0,0.0,0.0,0.0,0.0,0.0,0.0,0.0,0.0,0.0,0.0,0.0,0.0,0.0,0.0,0.0,0.0,0.0,0.0,0.0,0.0,0.0,0.0,0.0,0.0,0.0,0.0,0.0,0.0,0.0,0.0,0.0,0.0,0.0,0.0,0.0,0.0,0.0,0.0,0.0,0.0,0.0,0.0,0.0,0.0,0.0,0.0,0.0,0.0,0.0,0.0,0.0,0.0,0.0,0.0,0.0,0.0,0.0,0.0,0.0,0.0,0.0,0.0,0.0,0.0,0.0,0.0,0.0,0.0,0.0,0.0,0.0,0.0,0.0,0.0,0.0,0.0,0.0,0.0,0.0,0.0,0.0,0.0,0.0,0.0,0.0,0.0,0.0,0.0,0.0,0.0,0.0,0.0,0.0,0.0,0.0,0.0,0.0,0.0,0.0,0.0,0.0,0.0,0.0,0.0,0.0,0.0,0.0,0.0,0.0,0.0,0.0,0.0,0.0,0.0,0.0,0.0,0.0,0.0,0.0,0.0,0.0,0.0,0.0,0.0,0.0,0.0,0.0,0.0,0.0,0.0,0.0,0.0,0.0,0.0,0.0,0.0,0.0,0.0,0.0,0.0,0.0,0.0,0.0,0.0,0.0,0.0,0.0,0.0,0.0,0.0,0.0,0.0,0.0,0.0,0.0,0.0,0.0,0.0,0.0,0.0,0.0,0.0,0.0,0.0,0.0,0.0,0.0,0.0,0.0,0.0,0.0,0.0,0.0,0.0,0.0,0.0,0.0,0.0,0.0,0.0,0.0,0.0,0.0,0.0,0.0,0.0,0.0,0.0,0.0,0.0,0.0,0.0,0.0,0.0,0.0,0.0,0.0,0.0,0.0,0.0,0.0,0.0,0.0,0.0,0.0,0.0,0.0,0.0,0.0,0.0,0.0,0.0,0.0,0.0,0.0,0.0,0.0,0.0,0.0,0.0,0.0,0.0,0.0,0.0,0.0,0.0,0.0,0.0,0.0,0.0,0.0,0.0,0.0,0.0,0.0,0.0,0.0,0.0,0.0,0.0,0.0,0.0,0.0,0.0,0.0,0.0,0.0,0.0,0.0,0.0,0.0,0.0,0.0,0.0,0.0,0.0,0.0,0.0,0.0,0.0,0.0,0.0,0.0,0.0,0.0,0.0,0.0,0.0,0.0,0.0,0.0,0.0,0.0,0.0,0.0,0.0,0.0,0.0,0.0,0.0,0.0,0.0,0.0,0.0,0.0,0.0,0.0,0.0,0.0,0.0,0.0,0.0,0.0,0.0,0.0,0.0,0.0,0.0,0.0,0.0,0.0,0.0,0.0,0.0,0.0,0.0,0.0,0.0,0.0,0.0,0.0,0.0,0.0,0.0,0.0,0.0,0.0,0.0,0.0,0.0,0.0,0.0,0.0,0.0,0.0,0.0,0.0,0.0,0.0,0.0,0.0,0.0,0.0,0.0,0.0,0.0,0.0,0.0,0.0,0.0,0.0,0.0,0.0,0.0,0.0,0.0,0.0,0.0,0.0,0.0,0.0,0.0,0.0,0.0,0.0,0.0,0.0,0.0,0.0,0.0,0.0,0.0,0.0,0.0,0.0,0.0,0.0,0.0,0.0,0.0,0.0,0.0,0.0,0.0,0.0,0.0,0.0,0.0,0.0,0.0,0.0,0.0,0.0,0.0,0.0,0.0,0.0,0.0,0.0,0.0,0.0,0.0,0.0,0.0,0.0,0.0,0.0,0.0,0.0,0.0,0.0,0.0,0.0,0.0,0.0,0.0,0.0,0.0,0.0,0.0,0.0,0.0,0.0,0.0,0.0,0.0,0.0,0.0,0.0,0.0,0.0,0.0,0.0,0.0,0.0,0.0,0.0,0.0,0.0,0.0,0.0,0.0,0.0,0.0,0.0,0.0,0.0,0.0,0.0,0.0,0.0,0.0,0.0,0.0,0.0,0.0,0.0,0.0,0.0,0.0,0.0,0.0,0.0,0.0,0.0,0.0,0.0,0.0,0.0,0.0,0.0,0.0,0.0,0.0,0.0,0.0,0.0,0.0,0.0,0.0,0.0,0.0,0.0,0.0,0.0,0.0,0.0,0.0,0.0,0.0,0.0,0.0,0.0,0.0,0.0,0.0,0.0,0.0,0.0,0.0,0.0,0.0,0.0,0.0,0.0,0.0,0.0,0.0,0.0,0.0,0.0,0.0,0.0,0.0,0.0,0.0,0.0,0.0,0.4323,0.0,0.0,0.0,0.0,0.0,0.0,0.0,0.0,0.0,0.0,0.0,0.0,0.0,0.0,0.0,0.0,0.0,0.0,0.0,0.0,0.0,0.0,0.0,0.0,0.0,0.0,0.0,0.0,0.0,0.0,0.0,0.0,0.0,0.0,0.0,0.0,0.0,0.0,0.0,0.0,0.0,0.0,0.0,0.0,0.0,0.0,0.0,0.0,0.0,0.0,0.0,0.0,0.0,0.0,0.0,0.0,0.0,0.0,0.0,0.0,0.0,0.0,0.0,0.0,0.0,0.0,0.0,0.0,0.0,0.0,0.0,0.0,0.0,0.0,0.0,0.0,0.0,0.0,0.0,0.0,0.0,0.0,0.0,0.0,0.0,0.0,0.0,0.0,0.0,0.0,0.0,0.0,0.0,0.0,0.0,0.0,0.0,0.0,0.0,0.0,0.0,0.0,0.0,0.0,0.0,0.0,0.0,0.0,0.0,0.0,0.794,0.7235,0.6851,0.6209,0.5189,0.0,0.0,0.0,0.0,0.0,0.0,0.0,0.0,0.0,0.0,0.0,0.0,0.0,0.0,0.0,0.0,0.0,0.0,0.0,0.0,0.0,0.0,0.0,0.0,0.0,0.0,0.0,0.0,0.0,0.0,0.0,0.0,0.0,0.0,0.0,0.0,0.0,0.0,0.0,0.0,0.0,0.0,0.0,0.0,0.0,0.0,0.0,0.0,0.0,0.0,0.0,0.0,0.0,0.0,0.0,0.0,0.0,0.0,0.0,0.0,0.0,0.0,0.0,0.0,0.0,0.0,0.0,0.0,0.0,0.0,0.0,0.0,0.0,0.0,0.0,0.0,0.0,0.0,0.0,0.0,0.0,0.0,0.0,0.0,0.0,0.0,0.0,0.0,0.0,0.0,0.0,0.0,0.0,0.0,0.0,0.0,0.0,0.0,0.0,0.0,0.0,0.0,0.0,0.0,0.0,0.0,0.0,0.0,0.0,0.0,0.0,0.0,0.7591,0.6927,0.577,0.0,0.0,0.0,0.0,0.0,0.0,0.0,0.0,0.0,0.0,0.0,0.0,0.0,0.0,0.0,0.0,0.0,0.0,0.0,0.0,0.0,0.0,0.0,0.0,0.0,0.0,0.0,0.0,0.0,0.0,0.0,0.0,0.0,0.0,0.0,0.0,0.0,0.0,0.0,0.0,0.0,0.0,0.0,0.0,0.0,0.0,0.0,0.0,0.0,0.0,0.0,0.0,0.0,0.0,0.0,0.0,0.0,0.0,0.0,0.0,0.0,0.0,0.0,0.0,0.0,0.0,0.0,0.0,0.0,0.0,0.0,0.0,0.0,0.0,0.0,0.0,0.0,0.0,0.0,0.0,0.0,0.0,0.0,0.0,0.0,0.0,0.0,0.0,0.0,0.0,0.0,0.0,0.0,0.0,0.0,0.0,0.0,0.0,0.0,0.0,0.0,0.0,0.0,0.0,0.0,0.0,0.0,0.0,0.0,0.0,0.7889,0.812,0.7236,0.0,0.5063,0.0,0.0,0.0,0.0,0.0,0.0,0.0,0.0,0.0,0.0,0.0,0.0,0.0,0.0,0.0,0.0,0.0,0.0,0.0,0.0,0.0,0.0,0.0,0.0,0.0,0.0,0.0,0.0,0.0,0.0,0.0,0.0,0.0,0.0,0.0,0.0,0.0,0.0,0.0,0.0,0.0,0.0,0.0,0.0,0.0,0.0,0.0,0.0,0.0,0.0,0.0,0.0,0.0,0.0,0.0,0.0,0.0,0.0,0.0,0.0,0.0,0.0,0.0,0.0,0.0,0.0,0.0,0.0,0.0,0.0,0.0,0.0,0.0,0.0,0.0,0.0,0.0,0.0,0.0,0.0,0.0,0.0,0.0,0.0,0.0,0.0,0.0,0.0,0.0,0.0,0.0,0.0,0.0,0.0,0.0,0.0,0.0,0.0,0.0,0.0,0.0,0.0,0.0,0.0,0.0,0.0,0.0,0.0,0.0,0.0,0.762,0.7876,0.6853,0.5858,0.0,0.0,0.0,0.0,0.0,0.0,0.0,0.0,0.0,0.0,0.0,0.0,0.0,0.0,0.0,0.0,0.0,0.0,0.0,0.0,0.0,0.0,0.0,0.0,0.0,0.0,0.0,0.0,0.0,0.0,0.0,0.0,0.0,0.0,0.0,0.0,0.0,0.0,0.0,0.0,0.0,0.0,0.0,0.0,0.0,0.0,0.0,0.0,0.0,0.0,0.0,0.0,0.0,0.0,0.0,0.0,0.0,0.0,0.0,0.0,0.0,0.0,0.0,0.0,0.0,0.0,0.0,0.0,0.0,0.0,0.0,0.0,0.0,0.0,0.0,0.0,0.0,0.0,0.0,0.0,0.0,0.0,0.0,0.0,0.0,0.0,0.0,0.0,0.0,0.0,0.0,0.0,0.0,0.0,0.0,0.0,0.0,0.0,0.0,0.0,0.0,0.0,0.0,0.0,0.0,0.0,0.0,0.0,0.0,0.0,0.7742,0.7384,0.7562,0.6681,0.5757,0.4945,0.0,0.0,0.0,0.0,0.0,0.0,0.0,0.0,0.0,0.0,0.0,0.0,0.0,0.0,0.0,0.0,0.0,0.0,0.0,0.0,0.0,0.0,0.0,0.0,0.0,0.0,0.0,0.0,0.0,0.0,0.0,0.0,0.0,0.0,0.0,0.0,0.0,0.0,0.0,0.0,0.0,0.0,0.0,0.0,0.0,0.0,0.0,0.0,0.0,0.0,0.0,0.0,0.0,0.0,0.0,0.0,0.0,0.0,0.0,0.0,0.0,0.0,0.0,0.0,0.0,0.0,0.0,0.0,0.0,0.0,0.0,0.0,0.0,0.0,0.0,0.0,0.0,0.0,0.0,0.0,0.0,0.0,0.0,0.0,0.0,0.0,0.0,0.0,0.0,0.0,0.0,0.0,0.0,0.0,0.0,0.0,0.0,0.0,0.0,0.0,0.0,0.0,0.0,0.0,0.0,0.0,0.0,0.0,0.8685,0.7777,0.7323,0.7246,0.6834,0.6039,0.0,0.0,0.0,0.0,0.0,0.0,0.0,0.0,0.0,0.0,0.0,0.0,0.0,0.0,0.0,0.0,0.0,0.0,0.0,0.0,0.0,0.0,0.0,0.0,0.0,0.0,0.0,0.0,0.0,0.0,0.0,0.0,0.0,0.0,0.0,0.0,0.0,0.0,0.0,0.0,0.0,0.0,0.0,0.0,0.0,0.0,0.0,0.0,0.0,0.0,0.0,0.0,0.0,0.0,0.0,0.0,0.0,0.0,0.0,0.0,0.0,0.0,0.0,0.0,0.0,0.0,0.0,0.0,0.0,0.0,0.0,0.0,0.0,0.0,0.0,0.0,0.0,0.0,0.0,0.0,0.0,0.0,0.0,0.0,0.0,0.0,0.0,0.0,0.0,0.0,0.0,0.0,0.0,0.0,0.0,0.0,0.0,0.0,0.0,0.0,0.0,0.0,0.0,0.0,0.0,0.0,0.0,0.0,0.0,0.7387,0.5263,0.3591,0.2696,0.2329,0.2306,0.0,0.0,0.0,0.0,0.0,0.0,0.0,0.0,0.0,0.0,0.0,0.0,0.0,0.0,0.0,0.0,0.0,0.0,0.0,0.0,0.0,0.0,0.0,0.0,0.0,0.0,0.0,0.0,0.0,0.0,0.0,0.0,0.0,0.0,0.0,0.0,0.0,0.0,0.0,0.0,0.0,0.0,0.0,0.0,0.0,0.0,0.0,0.0,0.0,0.0,0.0,0.0,0.0,0.0,0.0,0.0,0.0,0.0,0.0,0.0,0.0,0.0,0.0,0.0,0.0,0.0,0.0,0.0,0.0,0.0,0.0,0.0,0.0,0.0,0.0,0.0,0.0,0.0,0.0,0.0,0.0,0.0,0.0,0.0,0.0,0.0,0.0,0.0,0.0,0.0,0.0,0.0,0.0,0.0,0.0,0.0,0.0,0.0,0.0,0.0,0.0,0.0,0.0,0.0,0.0,0.0,0.0,0.0,0.0,0.4221,0.0,-0.0311,-0.1188,-0.1506,-0.0953,0.0,0.0,0.0,0.0,0.0,0.0,0.0,0.0,0.0,0.0,0.0,0.0,0.0,0.0,0.0,0.0,0.0,0.0,0.0,0.0,0.0,0.0,0.0,0.0,0.0,0.0,0.0,0.0,0.0,0.0,0.0,0.0,0.0,0.0,0.0,0.0,0.0,0.0,0.0,0.0,0.0,0.0,0.0,0.0,0.0,0.0,0.0,0.0,0.0,0.0,0.0,0.0,0.0,0.0,0.0,0.0,0.0,0.0,0.0,0.0,0.0,0.0,0.0,0.0,0.0,0.0,0.0,0.0,0.0,0.0,0.0,0.0,0.0,0.0,0.0,0.0,0.0,0.0,0.0,0.0,0.0,0.0,0.0,0.0,0.0,0.0,0.0,0.0,0.0,0.0,0.0,0.0,0.0,0.0,0.0,0.0,0.0,0.0,0.0,0.0,0.0,0.0,0.0,0.0,0.0,0.0,0.0,0.0,0.3575,-0.1023,-0.3167,-0.4183,-0.3934,-0.4301,-0.3266,0.0,0.0,0.0,0.0,0.0,0.0,0.0,0.0,0.0,0.0,0.0,0.0,0.0,0.0,0.0,0.0,0.0,0.0,0.0,0.0,0.0,0.0,0.0,0.0,0.0,0.0,0.0,0.0,0.0,0.0,0.0,0.0,0.0,0.0,0.0,0.0,0.0,0.0,0.0,0.0,0.0,0.0,0.0,0.0,0.0,0.0,0.0,0.0,0.0,0.0,0.0,0.0,0.0,0.0,0.0,0.0,0.0,0.0,0.0,0.0,0.0,0.0,0.0,0.0,0.0,0.0,0.0,0.0,0.0,0.0,0.0,0.0,0.0,0.0,0.0,0.0,0.0,0.0,0.0,0.0,0.0,0.0,0.0,0.0,0.0,0.0,0.0,0.0,0.0,0.0,0.0,0.0,0.0,0.0,0.0,0.0,0.0,0.0,0.0,0.0,0.0,0.0,0.0,0.0,0.0,0.0,0.0,0.0,0.0,-0.5491,-0.8286,-0.9648,-0.9277,-0.7065,-0.4674,0.0,0.0,0.0,0.0,0.0,0.0,0.0,0.0,0.0,0.0,0.0,0.0,0.0,0.0,0.0,0.0,0.0,0.0,0.0,0.0,0.0,0.0,0.0,0.0,0.0,0.0,0.0,0.0,0.0,0.0,0.0,0.0,0.0,0.0,0.0,0.0,0.0,0.0,0.0,0.0,0.0,0.0,0.0,0.0,0.0,0.0,0.0,0.0,0.0,0.0,0.0,0.0,0.0,0.0,0.0,0.0,0.0,0.0,0.0,0.0,0.0,0.0,0.0,0.0,0.0,0.0,0.0,0.0,0.0,0.0,0.0,0.0,0.0,0.0,0.0,0.0,0.0,0.0,0.0,0.0,0.0,0.0,0.0,0.0,0.0,0.0,0.0,0.0,0.0,0.0,0.0,0.0,0.0,0.0,0.0,0.0,0.0,0.0,0.0,0.0,0.0,0.0,0.0,0.0,0.0,0.0,0.0,0.0,0.0,-1.2429,-1.4184,-1.4693,-1.3834,-1.0205,-0.6723,-0.3468,0.0,0.0,0.0,0.0,0.0,0.0,0.0,0.0,0.0,0.0,0.0,0.0,0.0,0.0,0.0,0.0,0.0,0.0,0.0,0.0,0.0,0.0,0.0,0.0,0.0,0.0,0.0,0.0,0.0,0.0,0.0,0.0,0.0,0.0,0.0,0.0,0.0,0.0,0.0,0.0,0.0,0.0,0.0,0.0,0.0,0.0,0.0,0.0,0.0,0.0,0.0,0.0,0.0,0.0,0.0,0.0,0.0,0.0,0.0,0.0,0.0,0.0,0.0,0.0,0.0,0.0,0.0,0.0,0.0,0.0,0.0,0.0,0.0,0.0,0.0,0.0,0.0,0.0,0.0,0.0,0.0,0.0,0.0,0.0,0.0,0.0,0.0,0.0,0.0,0.0,0.0,0.0,0.0,0.0,0.0,0.0,0.0,0.0,0.0,0.0,0.0,0.0,0.0,0.0,0.0,0.0,0.0,0.0,-2.1041,-2.0471,-1.9236,-1.7428,-1.3599,-0.9385,0.0,0.0,0.0,0.0,0.0,0.0,0.0,0.0,0.0,0.0,0.0,0.0,0.0,0.0,0.0,0.0,0.0,0.0,0.0,0.0,0.0,0.0,0.0,0.0,0.0,0.0,0.0,0.0,0.0,0.0,0.0,0.0,0.0,0.0,0.0,0.0,0.0,0.0,0.0,0.0,0.0,0.0,0.0,0.0,0.0,0.0,0.0,0.0,0.0,0.0,0.0,0.0,0.0,0.0,0.0,0.0,0.0,0.0,0.0,0.0,0.0,0.0,0.0,0.0,0.0,0.0,0.0,0.0,0.0,0.0,0.0,0.0,0.0,0.0,0.0,0.0,0.0,0.0,0.0,0.0,0.0,0.0,0.0,0.0,0.0,0.0,0.0,0.0,0.0,0.0,0.0,0.0,0.0,0.0,0.0,0.0,0.0,0.0,0.0,0.0,0.0,0.0,0.0,0.0,0.0,0.0,0.0,0.0,0.0,-2.3559,-2.3955,-2.2896,-2.0393,-1.6466,-1.2622,0.0,0.0,0.0,0.0,0.0,0.0,0.0,0.0,0.0,0.0,0.0,0.0,0.0,0.0,0.0,0.0,0.0,0.0,0.0,0.0,0.0,0.0,0.0,0.0,0.0,0.0,0.0,0.0,0.0,0.0,0.0,0.0,0.0,0.0,0.0,0.0,0.0,0.0,0.0,0.0,0.0,0.0,0.0,0.0,0.0,0.0,0.0,0.0,0.0,0.0,0.0,0.0,0.0,0.0,0.0,0.0,0.0,0.0,0.0,0.0,0.0,0.0,0.0,0.0,0.0,0.0,0.0,0.0,0.0,0.0,0.0,0.0,0.0,0.0,0.0,0.0,0.0,0.0,0.0,0.0,0.0,0.0,0.0,0.0,0.0,0.0,0.0,0.0,0.0,0.0,0.0,0.0,0.0,0.0,0.0,0.0,0.0,0.0,0.0,0.0,0.0,0.0,0.0,0.0,0.0,0.0,0.0,0.0,-2.2306,-2.4965,-2.4984,-2.4255,-2.279,-1.8591,-1.4754,0.0,0.0,0.0,0.0,0.0,0.0,0.0,0.0,0.0,0.0,0.0,0.0,0.0,0.0,0.0,0.0,0.0,0.0,0.0,0.0,0.0,0.0,0.0,0.0,0.0,0.0,0.0,0.0,0.0,0.0,0.0,0.0,0.0,0.0,0.0,0.0,0.0,0.0,0.0,0.0,0.0,0.0,0.0,0.0,0.0,0.0,0.0,0.0,0.0,0.0,0.0,0.0,0.0,0.0,0.0,0.0,0.0,0.0,0.0,0.0,0.0,0.0,0.0,0.0,0.0,0.0,0.0,0.0,0.0,0.0,0.0,0.0,0.0,0.0,0.0,0.0,0.0,0.0,0.0,0.0,0.0,0.0,0.0,0.0,0.0,0.0,0.0,0.0,0.0,0.0,0.0,0.0,0.0,0.0,0.0,0.0,0.0,0.0,0.0,0.0,0.0,0.0,0.0,0.0,0.0,0.0,0.0,0.0,-2.2482,-2.5289,-2.4515,-2.4141,-2.4162,-2.0006,-1.6276,0.0,0.0,0.0,0.0,0.0,0.0,0.0,0.0,0.0,0.0,0.0,0.0,0.0,0.0,0.0,0.0,0.0,0.0,0.0,0.0,0.0,0.0,0.0,0.0,0.0,0.0,0.0,0.0,0.0,0.0,0.0,0.0,0.0,0.0,0.0,0.0,0.0,0.0,0.0,0.0,0.0,0.0,0.0,0.0,0.0,0.0,0.0,0.0,0.0,0.0,0.0,0.0,0.0,0.0,0.0,0.0,0.0,0.0,0.0,0.0,0.0,0.0,0.0,0.0,0.0,0.0,0.0,0.0,0.0,0.0,0.0,0.0,0.0,0.0,0.0,0.0,0.0,0.0,0.0,0.0,0.0,0.0,0.0,0.0,0.0,0.0,0.0,0.0,0.0,0.0,0.0,0.0,0.0,0.0,0.0,0.0,0.0,0.0,0.0,0.0,0.0,0.0,0.0,0.0,0.0,0.0,0.0,0.0,-2.293,-2.4489,-2.4113,-2.3562,-2.293,-2.0018,-1.8286,0.0,0.0,0.0,0.0,0.0,0.0,0.0,0.0,0.0,0.0,0.0,0.0,0.0,0.0,0.0,0.0,0.0,0.0,0.0,0.0,0.0,0.0,0.0,0.0,0.0,0.0,0.0,0.0,0.0,0.0,0.0,0.0,0.0,0.0,0.0,0.0,0.0,0.0,0.0,0.0,0.0,0.0,0.0,0.0,0.0,0.0,0.0,0.0,-1.0215,0.0,0.0,0.0,0.0,0.0,0.0,0.0,0.0,0.0,0.0,0.0,0.0,0.0,0.0,0.0,0.0,0.0,0.0,0.0,0.0,0.0,0.0,0.0,0.0,0.0,0.0,0.0,0.0,0.0,0.0,0.0,0.0,0.0,0.0,0.0,0.0,0.0,0.0,0.0,0.0,0.0,0.0,0.0,0.0,0.0,0.0,0.0,0.0,0.0,0.0,0.0,0.0,0.0,0.0,0.0,0.0,0.0,0.0,0.0,-2.39,-2.4228,-2.3681,-2.3105,-2.2449,-2.0198,-1.84,0.0,0.0,0.0,0.0,0.0,0.0,0.0,0.0,0.0,0.0,0.0,0.0,0.0,0.0,0.0,0.0,0.0,0.0,0.0,0.0,0.0,0.0,0.0,0.0,0.0,0.0,0.0,0.0,0.0,0.0,0.0,0.0,0.0,0.0,0.0,0.0,0.0,0.0,0.0,0.0,0.0,0.0,0.0,0.0,0.0,0.0,0.0,0.0,0.0,0.0,0.0,0.0,0.0,0.0,0.0,0.0,0.0,0.0,0.0,0.0,0.0,0.0,0.0,0.0,0.0,0.0,0.0,0.0,0.0,0.0,0.0,0.0,0.0,0.0,0.0,0.0,0.0,0.0,0.0,0.0,0.0,0.0,0.0,0.0,0.0,0.0,0.0,0.0,0.0,0.0,0.0,0.0,0.0,0.0,0.0,0.0,0.0,0.0,0.0,0.0,0.0,0.0,0.0,0.0,0.0,0.0,0.0,-2.4764,-2.4791,-2.4043,-2.3305,-2.2675,-2.2121,-2.0219,-1.7704,-1.4617,0.0,0.0,0.0,0.0,0.0,0.0,0.0,0.0,0.0,0.0,0.0,0.0,0.0,0.0,0.0,0.0,0.0,0.0,0.0,0.0,0.0,0.0,0.0,0.0,0.0,0.0,0.0,0.0,0.0,0.0,0.0,0.0,0.0,0.0,0.0,0.0,0.0,0.0,-0.9159,-1.1824,0.0,0.0,0.0,0.0,0.0,0.0,0.0,0.0,-1.3946,0.0,0.0,0.0,0.0,0.0,0.0,0.0,0.0,0.0,0.0,0.0,0.0,0.0,0.0,0.0,0.0,0.0,0.0,0.0,0.0,0.0,0.0,0.0,0.0,0.0,0.0,0.0,0.0,0.0,0.0,0.0,0.0,0.0,0.0,0.0,0.0,0.0,0.0,0.0,0.0,0.0,0.0,0.0,0.0,0.0,0.0,0.0,0.0,0.0,0.0,0.0,0.0,0.0,0.0,0.0,0.0,-2.2519,-2.4536,-2.4796,-2.3314,-2.3086,-2.2176,-2.0485,-1.9515,-1.7241,-1.3553,0.0,0.0,0.0,0.0,0.0,0.0,0.0,0.0,0.0,0.0,0.0,0.0,0.0,0.0,0.0,0.0,0.0,0.0,0.0,0.0,0.0,0.0,0.0,0.0,0.0,0.0,0.0,0.0,0.0,0.0,0.0,0.0,0.0,0.0,0.0,0.0,0.0,0.0,0.0,-1.6506,-1.8331,0.0,0.0,0.0,0.0,0.0,0.0,0.0,0.0,-1.513,0.0,0.0,0.0,0.0,0.0,0.0,0.0,0.0,0.0,0.0,0.0,0.0,0.0,0.0,0.0,0.0,0.0,0.0,0.0,0.0,0.0,0.0,0.0,0.0,0.0,0.0,0.0,0.0,0.0,0.0,0.0,0.0,0.0,0.0,0.0,0.0,0.0,0.0,0.0,0.0,0.0,0.0,0.0,0.0,0.0,0.0,0.0,0.0,0.0,0.0,0.0,0.0,0.0,0.0,0.0,-2.3075,-2.4443,-2.429,-2.3097,-2.2568,-2.1564,-1.9989,-1.9326,-1.714,0.0,0.0,0.0,0.0,0.0,0.0,0.0,0.0,0.0,0.0,0.0,0.0,0.0,0.0,0.0,0.0,0.0,0.0,0.0,0.0,0.0,0.0,0.0,0.0,0.0,0.0,0.0,0.0,0.0,0.0,0.0,0.0,0.0,0.0,0.0,0.0,0.0,0.0,0.0,0.0,-1.8049,-2.0692,-2.2005,0.0,0.0,0.0,0.0,0.0,0.0,-1.8712,-1.731,0.0,0.0,0.0,0.0,0.0,0.0,0.0,0.0,0.0,0.0,0.0,0.0,0.0,0.0,0.0,0.0,0.0,0.0,0.0,0.0,0.0,0.0,0.0,0.0,0.0,0.0,0.0,0.0,0.0,0.0,0.0,0.0,0.0,0.0,0.0,0.0,0.0,0.0,0.0,0.0,0.0,0.0,0.0,0.0,0.0,0.0,0.0,0.0,0.0,0.0,0.0,0.0,0.0,0.0,0.0,-2.4394,-2.4576,-2.4029,-2.3164,-2.2322,-2.1324,-2.0106,-1.9219,-1.7059,0.0,0.0,0.0,0.0,0.0,0.0,0.0,0.0,0.0,0.0,0.0,0.0,0.0,0.0,0.0,0.0,0.0,0.0,0.0,0.0,0.0,0.0,0.0,0.0,0.0,0.0,0.0,0.0,0.0,0.0,0.0,0.0,0.0,0.0,0.0,0.0,0.0,0.0,0.0,0.0,0.0,-2.2304,-2.3077,-2.2676,0.0,0.0,0.0,0.0,-2.1542,-2.0286,0.0,0.0,0.0,0.0,0.0,0.0,0.0,0.0,0.0,0.0,0.0,0.0,0.0,0.0,0.0,0.0,0.0,0.0,0.0,0.0,0.0,0.0,0.0,0.0,0.0,0.0,0.0,0.0,0.0,0.0,0.0,0.0,0.0,0.0,0.0,0.0,0.0,0.0,0.0,0.0,0.0,0.0,0.0,0.0,0.0,0.0,0.0,0.0,0.0,0.0,0.0,0.0,0.0,0.0,0.0,0.0,-2.4443,-2.5208,-2.4775,-2.3652,-2.2941,-2.1989,-2.0698,-1.8902,-1.6781,0.0,0.0,0.0,0.0,0.0,0.0,0.0,0.0,0.0,0.0,0.0,0.0,0.0,0.0,0.0,0.0,0.0,0.0,0.0,0.0,0.0,0.0,0.0,0.0,0.0,0.0,0.0,0.0,0.0,0.0,0.0,0.0,0.0,0.0,0.0,0.0,0.0,0.0,0.0,0.0,0.0,-2.3678,-2.4086,-2.3084,-2.2211,0.0,0.0,-2.2166,-2.2197,-2.1391,0.0,0.0,0.0,0.0,0.0,0.0,0.0,0.0,0.0,0.0,0.0,0.0,0.0,0.0,0.0,0.0,0.0,0.0,0.0,0.0,0.0,0.0,0.0,0.0,0.0,0.0,0.0,0.0,0.0,0.0,0.0,0.0,0.0,0.0,0.0,0.0,0.0,0.0,0.0,0.0,0.0,0.0,0.0,0.0,0.0,0.0,0.0,0.0,0.0,0.0,0.0,0.0,0.0,0.0,0.0,-1.4572,-2.3295,-2.4388,-2.4375,-2.3587,-2.2535,-2.1301,-1.9922,-1.853,-1.6866,0.0,0.0,0.0,0.0,0.0,0.0,0.0,0.0,0.0,0.0,0.0,0.0,0.0,0.0,0.0,0.0,0.0,0.0,0.0,0.0,0.0,0.0,0.0,0.0,0.0,0.0,0.0,0.0,0.0,0.0,0.0,0.0,0.0,0.0,0.0,0.0,0.0,0.0,0.0,0.0,0.0,0.0,-2.4193,-2.3783,0.0,0.0,0.0,-2.2194,-2.1837,0.0,0.0,0.0,0.0,0.0,0.0,0.0,0.0,0.0,0.0,0.0,0.0,0.0,0.0,0.0,0.0,0.0,0.0,0.0,0.0,0.0,0.0,0.0,0.0,0.0,0.0,0.0,0.0,0.0,0.0,0.0,0.0,0.0,0.0,0.0,0.0,0.0,0.0,0.0,0.0,0.0,0.0,0.0,0.0,0.0,0.0,0.0,0.0,0.0,0.0,0.0,0.0,0.0,0.0,0.0,0.0,0.0,-2.3054,-2.4032,-2.4019,-2.3219,-2.2087,-2.083,-1.9469,-1.8278,0.0,0.0,0.0,0.0,0.0,0.0,0.0,0.0,0.0,0.0,0.0,0.0,0.0,0.0,0.0,0.0,0.0,0.0,0.0,0.0,0.0,0.0,0.0,0.0,0.0,0.0,0.0,0.004,0.0,0.0,0.0,0.0,0.0,0.0,0.0,0.0,0.0,0.0,0.0,0.0,0.0,0.0,-2.3337,-2.4117,-2.4206,-2.3903,0.0,0.0,-2.1828,-2.1362,-2.0613,-1.9927,0.0,0.0,0.0,0.0,0.0,0.0,0.0,0.0,0.0,0.0,0.0,0.0,0.0,0.0,0.0,0.0,0.0,0.0,0.0,0.0,0.0,0.0,0.0,0.0,0.0,0.0,0.0,0.0,0.0,0.0,0.0,0.0,0.0,0.0,0.0,0.0,0.0,0.0,0.0,0.0,0.0,0.0,0.0,0.0,0.0,0.0,0.0,0.0,0.0,0.0,0.0,0.0,0.0,0.0,-1.6594,-2.4431,-2.4936,-2.4156,-2.2448,-2.1928,-2.1156,-2.0054,-1.8203,-1.6494,0.0,0.0,0.0,0.0,0.0,0.0,0.0,0.0,0.0,0.0,0.0,0.0,0.0,0.0,0.0,0.0,0.0,0.0,0.0,0.0,0.0,0.0,0.0,0.0,0.0,0.0,0.0,0.0,0.0,0.0,0.0,0.0,0.0,0.0,0.0,0.0,0.0,0.0,0.0,0.0,0.0,-2.4835,-2.4128,-2.4124,-2.3956,0.0,-2.2003,-2.1075,-2.1015,-2.0249,-1.9601,-1.9515,0.0,0.0,0.0,0.0,0.0,0.0,0.0,0.0,0.0,0.0,0.0,0.0,0.0,0.0,0.0,0.0,0.0,0.0,0.0,0.0,0.0,0.0,0.0,0.0,0.0,0.0,0.0,0.0,0.0,0.0,0.0,0.0,0.0,0.0,0.0,0.0,0.0,0.0,0.0,0.0,0.0,0.0,0.0,0.0,0.0,0.0,0.0,0.0,0.0,0.0,0.0,0.0,0.0,-1.6082,-2.2969,-2.431,-2.3684,-2.1273,-2.1492,-2.0716,-1.8668,-1.7684,-1.6489,0.0,0.0,0.0,0.0,0.0,0.0,0.0,0.0,0.0,0.0,0.0,0.0,0.0,0.0,0.0,0.0,0.0,0.0,0.0,0.0,0.0,0.0,0.0,0.0,0.0,0.0,0.0,0.0,-0.6374,-0.7804,-0.7454,0.0,0.0,0.0,0.0,0.0,0.0,0.0,0.0,0.0,0.0,-2.433,-2.4034,-2.344,0.0,0.0,-2.2187,-2.1167,-2.0322,-2.0159,-1.9818,-1.8826,-1.7915,0.0,0.0,0.0,0.0,0.0,0.0,0.0,0.0,0.0,0.0,0.0,0.0,0.0,0.0,0.0,0.0,0.0,0.0,0.0,0.0,0.0,0.0,0.0,0.0,0.0,0.0,0.0,0.0,0.0,0.0,0.0,0.0,0.0,0.0,0.0,0.0,0.0,0.0,0.0,0.0,0.0,0.0,0.0,0.0,0.0,0.0,0.0,0.0,0.0,0.0,0.0,0.0,-1.6678,-2.0928,-2.3334,-2.3255,-2.0624,-2.098,-2.0072,-1.7805,-1.7197,-1.6318,0.0,0.0,0.0,0.0,0.0,0.0,0.0,0.0,0.0,0.0,0.0,0.0,0.0,0.0,0.0,0.0,0.0,0.0,0.0,0.0,0.0,0.0,0.0,0.0,0.0,0.0,0.0,0.0,-0.6697,-0.7419,-0.6676,0.0,0.0,0.0,0.0,0.0,0.0,0.0,0.0,0.0,0.0,-2.3738,-2.3627,-2.2855,-2.2492,-2.2984,-2.2619,-2.1845,-2.0666,-2.0721,-2.0378,-1.8811,0.0,0.0,0.0,0.0,0.0,0.0,0.0,0.0,0.0,0.0,0.0,0.0,0.0,0.0,0.0,0.0,0.0,0.0,0.0,0.0,0.0,0.0,0.0,0.0,0.0,0.0,0.0,-0.5812,0.0,0.0,-0.8468,0.0,0.0,0.0,0.0,0.0,0.0,0.0,0.0,0.0,0.0,0.0,0.0,0.0,0.0,0.0,0.0,0.0,0.0,0.0,0.0,0.0,0.0,-1.8921,-1.8628,-2.2206,-2.3024,-2.1054,-2.0359,-1.9318,-1.7741,-1.681,-1.5915,-1.4988,0.0,0.0,0.0,0.0,0.0,0.0,0.0,0.0,0.0,0.0,0.0,0.0,0.0,0.0,0.0,0.0,0.0,0.0,0.0,0.0,0.0,0.0,0.0,0.0,0.0,0.0,-0.6949,-0.7801,-0.7904,0.0,0.0,0.0,0.0,0.0,0.0,0.0,0.0,0.0,-2.3739,-2.3667,-2.3341,-2.2815,-2.2496,-2.2411,-2.2654,-2.3174,-2.3253,-2.2392,-2.2012,-2.1361,0.0,0.0,0.0,0.0,0.0,0.0,0.0,0.0,0.0,0.0,0.0,0.0,0.0,0.0,0.0,0.0,0.0,0.0,0.0,0.0,0.0,0.0,0.0,0.0,0.0,0.0,0.0,-1.0795,-1.0892,0.0,0.0,0.0,0.0,0.0,0.0,0.0,0.0,0.0,0.0,0.0,-1.8128,-1.7439,0.0,0.0,0.0,0.0,0.0,0.0,0.0,0.0,0.0,0.0,0.0,0.0,-1.7615,-1.8956,-2.1919,-2.2905,-2.1741,-2.0594,-1.9194,-1.7487,-1.6377,-1.5357,-1.4364,0.0,0.0,0.0,0.0,0.0,0.0,0.0,0.0,0.0,0.0,0.0,0.0,0.0,0.0,0.0,0.0,0.0,0.0,0.0,0.0,0.0,0.0,0.0,0.0,0.0,-0.6323,0.0,0.0,0.0,0.0,0.0,0.0,0.0,0.0,0.0,0.0,0.0,-2.4749,-2.4217,-2.4392,-2.4154,-2.2995,-2.2527,-2.2315,0.0,0.0,0.0,0.0,0.0,0.0,0.0,0.0,0.0,0.0,0.0,0.0,0.0,0.0,-2.1854,-2.147,-1.9746,-1.8571,-1.934,0.0,0.0,0.0,0.0,0.0,0.0,0.0,0.0,0.0,0.0,0.0,0.0,0.0,0.0,-1.4352,0.0,-1.3957,0.0,0.0,0.0,0.0,0.0,0.0,0.0,0.0,-1.5904,-1.7665,-1.8738,-1.8578,-1.8679,0.0,-1.8468,-1.7563,0.0,0.0,0.0,0.0,0.0,0.0,0.0,0.0,-1.7434,-1.9224,-2.1469,-2.2108,-2.1069,-2.0053,-1.8715,-1.7096,-1.5743,-1.4856,-1.4524,-1.3916,-1.3286,0.0,0.0,0.0,0.0,0.0,0.0,0.0,0.0,0.0,0.0,0.0,0.0,0.0,0.0,0.0,0.0,0.0,0.0,0.0,0.0,0.0,0.0,0.0,-0.8658,0.0,0.0,0.0,0.0,0.0,0.0,0.0,0.0,0.0,-2.1897,-2.4215,-2.5581,-2.5244,-2.4956,-2.4382,-2.3424,0.0,0.0,0.0,0.0,0.0,0.0,0.0,-2.2247,-2.2837,-2.2516,-2.2365,-2.298,-2.3119,-2.2849,-2.2179,0.0,0.0,-2.3125,-2.1471,-2.0287,-2.0819,-2.1419,-2.191,-2.2105,-2.2594,-2.2858,0.0,0.0,0.0,0.0,0.0,0.0,0.0,0.0,-1.5341,-1.5277,0.0,-1.4932,0.0,0.0,0.0,0.0,0.0,-1.5725,0.0,0.0,-1.7183,-1.8782,-1.972,-1.9245,-1.9309,-1.9779,-1.9773,-1.9465,-1.8865,-1.6182,0.0,0.0,0.0,0.0,0.0,0.0,-1.8528,-1.9405,-2.0711,-2.067,-1.915,-1.8736,-1.7914,-1.656,-1.4897,-1.4462,-1.5376,-1.4547,-1.3902,-1.3746,-1.2412,0.0,0.0,0.0,0.0,0.0,0.0,0.0,0.0,0.0,0.0,0.0,0.0,0.0,0.0,0.0,0.0,0.0,0.0,0.0,0.0,-0.9854,0.0,0.0,0.0,0.0,0.0,0.0,0.0,0.0,0.0,0.0,-2.4314,-2.4732,-2.5371,-2.6639,0.0,0.0,0.0,0.0,-2.4127,-2.3233,-2.2308,-2.1958,-2.2639,-2.2681,-2.2433,-2.1869,0.0,0.0,-2.3144,-2.3113,-2.304,-2.3125,-2.3059,-2.3132,-2.3106,-2.2648,-2.2376,-2.2815,-2.2554,-2.2479,-2.2874,-2.257,-2.2147,-1.8276,0.0,0.0,0.0,0.0,-1.633,-1.6899,-1.7993,-1.7965,-1.7595,-1.6891,-1.6691,0.0,0.0,0.0,0.0,0.0,0.0,-1.6991,-1.7245,-1.8283,-1.9164,-1.9819,-1.9661,-1.9654,-1.9798,-1.9798,-1.9723,-1.9534,-1.8732,-1.7871,-1.6982,0.0,0.0,0.0,0.0,-1.8018,-1.8197,-1.9388,-1.9368,-1.8066,-1.8039,-1.7134,-1.5305,-1.512,-1.5078,-1.5082,-1.4754,-1.4537,-1.4407,-1.317,0.0,0.0,0.0,0.0,0.0,0.0,0.0,0.0,0.0,0.0,0.0,0.0,0.0,0.0,0.0,0.0,0.0,0.0,0.0,-1.0853,-1.4049,-1.648,0.0,0.0,0.0,0.0,0.0,0.0,0.0,0.0,0.0,-2.4987,-2.596,-2.6302,0.0,0.0,-2.3724,-2.264,-2.3033,-2.3145,-2.2272,-2.1867,0.0,-2.2421,-2.184,-2.1776,-2.2913,-2.2544,-2.2297,-2.3019,-2.2811,-2.268,-2.2996,-2.3132,-2.3132,-2.3125,-2.3019,-2.2752,-2.2611,-2.2416,-2.2215,-2.1995,-2.182,-2.1562,-1.856,-1.7873,-1.7641,-1.7485,-1.7353,-1.7099,-1.7481,-1.8265,-1.7927,-1.7575,-1.7221,-1.6894,-1.6227,-1.5395,-1.5294,0.0,0.0,0.0,-1.7853,-1.8827,-1.8857,-1.9189,-1.978,-1.9803,-1.9798,-1.9805,-1.9527,-1.9365,-1.9365,-1.964,-1.907,-1.7777,0.0,0.0,-1.7451,-1.8035,-1.8057,-1.7545,-1.8411,-1.8521,-1.7793,-1.7483,-1.6593,-1.5168,-1.5208,-1.5152,-1.486,-1.4821,-1.4644,-1.4354,-1.3348,-1.1966,0.0,0.0,0.0,0.0,0.0,0.0,0.0,0.0,0.0,0.0,0.0,0.4221,0.3581,0.0,0.0,0.0,-0.7607,-1.1156,-1.5217,-1.7017,0.0,0.0,0.0,0.0,0.0,0.0,0.0,-2.2813,-2.3557,-2.4142,-2.4648,-2.5518,-2.591,-2.5346,-2.4284,-2.3188,-2.2221,0.0,-2.2248,-2.1559,-2.1165,-2.1163,-2.1686,-2.0987,-2.0798,-2.1898,-2.1361,-2.0887,-2.1427,-2.1289,-2.1579,-2.2639,-2.2538,-2.2011,-2.1644,-2.1831,-2.219,-2.2295,-2.2127,-2.1807,-2.1181,-2.0908,-2.0588,-1.7948,-1.7226,-1.7549,-1.7321,-1.6728,-1.6665,-1.6499,-1.6189,-1.6179,-1.6174,-1.6118,-1.6179,-1.5874,-1.5493,-1.5751,0.0,-1.7424,-1.7462,-1.8239,-1.9581,-1.8935,-1.8952,-1.9615,-1.9593,-1.9637,-1.9579,-1.8939,-1.8602,-1.8632,-1.9269,-1.8681,-1.6956,-1.8666,-1.8386,-1.6325,-1.7897,-1.8221,-1.7124,-1.7565,-1.7847,-1.7887,-1.6983,-1.623,-1.564,-1.5164,-1.4842,-1.4736,-1.4675,-1.4376,-1.3737,-1.3062,-1.2078,-1.0704,0.0,0.0,0.0,0.0,0.0,0.0,0.0,0.0,0.0,0.0,0.0,0.0,0.0,0.0,0.0,-1.1417,0.0,-1.8431,-1.8934,0.0,0.0,0.0,-2.0125,-2.0784,-2.1785,-2.2356,-2.2381,0.0,0.0,-2.354,-2.3975,-2.4563,-2.5141,-2.37,-2.2547,-2.2296,-2.1835,-2.1404,-2.1029,-2.0322,-2.0055,-2.0646,-2.0131,-1.9676,-1.9695,-1.9405,-1.9321,-1.9502,-1.9403,-2.0258,-2.2636,-2.1714,-2.0133,-1.9208,-1.957,-2.0541,-2.1648,-2.1517,-2.0995,-2.0226,-1.9761,-1.9224,-1.7413,-1.7155,-1.7056,-1.6845,-1.6728,-1.6665,-1.667,-1.6572,-1.6567,-1.6572,-1.6567,-1.6577,-1.6323,-1.5958,-1.6029,-1.6313,-1.6708,-1.6759,-1.7256,-1.8066,-1.7958,-1.7935,-1.809,-1.8153,-1.8124,-1.8112,-1.795,-1.7901,-1.7852,-1.7651,-1.7248,-1.6671,-1.7244,-1.6764,-1.5304,-1.6329,-1.6355,-1.532,-1.5437,-1.5734,-1.6176,-1.6395,-1.6017,-1.5031,-1.4898,-1.4594,-1.4143,-1.3663,-1.3326,-1.3037,-1.239,-1.1186,-0.93,-0.8187,0.0,0.0,0.0,0.0,0.0,0.0,0.0,0.0,0.0,0.27,-0.1449,0.0,-0.7323,0.0,-1.6344,-1.871,-1.9448,-1.9941,0.0,0.0,-2.1077,-2.1004,-2.2378,-2.2273,-2.2122,-2.2318,-2.2499,-2.245,-2.212,-2.2692,-2.2836,-2.2089,-2.2024,-2.1833,-2.1275,-2.0669,-2.0213,-2.0117,-1.9934,-1.9876,-1.9933,-1.9314,-1.873,-1.8742,-1.8061,-1.8113,-1.9952,-1.9377,-1.9663,-2.2235,-2.1158,-1.8957,-1.6814,-1.6514,-1.7354,-1.8937,-1.9275,-1.9015,-1.8406,-1.8168,-1.8039,-1.6412,-1.6379,-1.6217,-1.6152,-1.6157,-1.6348,-1.6318,-1.6143,-1.6152,-1.625,-1.644,-1.6426,-1.6406,-1.6333,-1.5952,-1.5979,-1.6321,-1.6133,-1.6249,-1.6631,-1.6973,-1.693,-1.6661,-1.7308,-1.7584,-1.7578,-1.7246,-1.7141,-1.7085,-1.6524,-1.6186,-1.6036,-1.6139,-1.5772,-1.4932,-1.5758,-1.5807,-1.4981,-1.4764,-1.4835,-1.5186,-1.5517,-1.5381,-1.4765,-1.4754,-1.4478,-1.3886,-1.3533,-1.3072,-1.2376,-1.1706,-1.0704,-0.927,-0.7891,-0.6879,0.0,0.0,0.0,0.0,0.0,0.0,0.0,0.0,0.0,0.0,0.0,-1.1167,-1.6033,-1.8672,-2.0288,-2.0508,-2.0671,-2.1162,-2.2013,-2.1256,-2.1033,-2.19,-2.2286,-2.2281,-2.1783,-2.1326,-2.107,-2.1183,-2.1556,-2.1333,-2.0042,-2.0167,-2.0424,-2.0373,-2.0003,-1.9798,-1.9798,-1.9261,-1.8806,-1.8803,-1.8402,-1.7935,-1.7613,-1.7113,-1.7152,-1.8119,-1.7658,-1.773,-1.919,-1.8524,-1.7179,-1.5713,-1.5415,-1.5869,-1.6675,-1.7148,-1.7104,-1.7088,-1.7085,-1.7029,-1.5415,-1.5415,-1.5415,-1.5415,-1.5449,-1.5815,-1.5762,-1.5415,-1.5415,-1.5625,-1.6042,-1.6037,-1.6191,-1.6446,-1.5752,-1.5625,-1.6007,-1.5581,-1.5415,-1.5473,-1.6098,-1.6001,-1.5447,-1.6709,-1.7296,-1.7291,-1.6652,-1.6374,-1.6317,-1.5695,-1.5415,-1.5415,-1.5415,-1.5234,-1.4919,-1.5527,-1.5558,-1.4995,-1.4724,-1.4612,-1.4606,-1.4652,-1.4658,-1.4612,-1.4566,-1.4231,-1.3579,-1.3527,-1.2967,-1.1682,-1.1036,-1.0395,-0.9671,-0.7746,-0.6751,0.0,-0.5535,0.0,0.0,0.0,0.0,0.0,0.0,0.0,0.0,-1.0586,-1.5065,-1.7438,-1.9476,-2.0847,-2.125,-2.1109,-2.1166,-2.162,-2.1129,-2.0655,-2.0587,-2.2026,-2.2494,-2.0854,-1.9989,-1.9719,-2.0187,-2.0325,-1.9846,-1.881,-1.862,-1.8851,-1.9377,-1.966,-1.9787,-1.9789,-1.826,-1.7129,-1.7455,-1.7456,-1.712,-1.6518,-1.6332,-1.6156,-1.5682,-1.5566,-1.5498,-1.5581,-1.5668,-1.5498,-1.5415,-1.5415,-1.541,-1.5556,-1.5507,-1.5631,-1.6187,-1.6379,-1.6151,-1.5415,-1.5415,-1.5415,-1.5415,-1.542,-1.5498,-1.5483,-1.5415,-1.5415,-1.5459,-1.5537,-1.5532,-1.5586,-1.5644,-1.5488,-1.5449,-1.5532,-1.5449,-1.5415,-1.5415,-1.5526,-1.556,-1.5419,-1.5675,-1.5796,-1.5801,-1.5637,-1.5575,-1.5584,-1.5463,-1.5415,-1.5415,-1.5415,-1.5376,-1.5273,0.0,0.0,0.0,-1.3789,-1.3962,-1.4003,-1.4468,-1.4468,-1.4009,-1.3962,0.0,-1.2253,-1.215,-1.1657,-1.0664,-1.0482,0.0,0.0,0.0,0.0,0.0,0.0,0.0,0.0,0.0,0.0,0.0,-0.7757,-0.8747,-0.9776,-1.3384,-1.6189,-1.7638,-1.9527,-2.0471,-2.0095,-2.0398,-2.0739,-2.0835,-2.1105,-2.091,-2.0223,-2.18,-2.2056,-1.931,-1.8428,-1.8081,-1.8239,-1.8153,-1.813,-1.7869,-1.7786,-1.7852,-1.7955,-1.8999,-1.9776,-1.9601,-1.7022,-1.5401,-1.652,-1.6446,-1.6177,-1.5686,-1.5584,-1.5584,-1.5468,-1.5415,-1.5415,-1.542,-1.5415,-1.542,-1.5357,-1.5415,-1.5294,-1.5415,-1.5146,-1.5062,-1.5505,-1.558,-1.5584,-1.5415,0.0,-1.5415,-1.5415,0.0,-1.5415,-1.5415,-1.5415,-1.5415,-1.5415,-1.5415,-1.5415,-1.5415,-1.5415,-1.5415,-1.5415,-1.5415,-1.5415,-1.5415,-1.5415,-1.5415,-1.4944,-1.4264,-1.5012,-1.4986,-1.4268,-1.4633,-1.4815,-1.481,-1.4392,-1.4606,-1.5365,-1.4611,-1.4355,-1.457,-1.3407,-1.2715,-1.2632,-1.3101,-1.3165,-1.2846,-1.312,-1.2961,-1.2346,-1.2341,0.0,0.0,0.0,0.0,0.0,0.0,0.0,0.0,0.0,0.0,-0.6231,-0.5448,-0.5241,-0.5748,-0.6189,-0.653,-0.6735,-0.7977,-0.9715,-1.1788,-1.4052,-1.6005,-1.773,-1.9087,-1.998,-2.0111,-1.963,-1.9438,-1.9879,-1.9283,-1.8792,-1.9046,-1.9926,-1.9711,-1.7873,-1.6911,-1.6724,-1.7534,-1.7584,-1.7413,-1.7141,-1.704,-1.6922,-1.6708,-1.7768,-1.8525,-1.779,-1.6211,-1.5074,-1.5749,-1.5811,-1.5618,-1.5419,-1.5415,-1.5415,-1.5415,-1.5415,-1.5435,-1.54,-1.5429,-1.5219,-1.4405,-1.4209,-1.4209,-1.4173,-1.3956,-1.3747,-1.4005,-1.4567,-1.5098,-1.5415,-1.5415,-1.5415,-1.5415,-1.541,-1.523,-1.5108,-1.4991,0.0,0.0,0.0,-1.5415,-1.5294,-1.5167,-1.5172,-1.5108,-1.4991,-1.4986,-1.5142,-1.5386,-1.5225,-1.4391,-1.3126,-1.425,-1.4191,-1.307,-1.3666,-1.4025,-1.397,-1.3308,-1.367,-1.4754,-1.3618,-1.3168,-1.3371,-1.2489,-1.1994,-1.2016,-1.2356,-1.2246,-1.1661,-1.1616,-1.1358,-1.0813,-1.0813,-1.0859,-1.1048,-1.1063,-1.088,-1.0308,-1.0322,-0.9733,-0.8425,-0.7586,-0.6939,-0.6285,-0.5612,-0.5289,-0.5611,-0.6266,-0.68,-0.6964,-0.7685,-0.9422,-1.2418,-1.3594,-1.5086,-1.7246,-1.8106,-1.8772,-1.9564,-1.8342,-1.7741,-1.8469,-1.7265,-1.6802,-1.7446,-1.7526,-1.7213,-1.6272,-1.5755,-1.5811,-1.6941,-1.7141,-1.698,-1.6388,-1.6255,-1.6093,-1.5685,-1.6476,-1.6756,-1.5619,-1.5069,-1.5097,-1.5267,-1.5161,-1.5244,-1.5361,-1.5415,-1.5323,-1.5066,-1.5052,-1.5182,-1.5381,-1.5233,-1.4282,-1.2941,-1.2563,-1.2704,-1.2931,-1.2725,-1.2493,-1.26,-1.3404,-1.4128,-1.5415,-1.5415,-1.5415,-1.5415,-1.5352,-1.4688,-1.3965,-1.3489,-1.481,-1.5415,-1.5415,-1.5415,-1.4991,-1.4382,-1.4387,-1.3974,-1.3368,-1.3368,-1.4065,-1.5303,-1.4434,-1.3688,-1.2976,-1.2793,-1.2805,-1.3005,-1.313,-1.3191,-1.3126,-1.3013,-1.3143,-1.3277,-1.3078,-1.2704,-1.2124,-1.2245,-1.1868,-1.0943,-1.1011,-1.1074,-1.0969,-1.0969,-1.0918,-1.0813,-1.0762,-1.0533,-1.0037,-1.0268,-0.9893,-0.8811,-0.8923,-0.8775,-0.8103,-0.7274,-0.6716,-0.6614,-0.5847,-0.5663,-0.6461,-0.6656,-0.7056,-0.7829,-0.6879,-0.7797,-1.1421,-1.2276,-1.3406,-1.535,-1.5764,-1.5839,-1.5909,-1.5777,-1.5703,-1.593,-1.6936,-1.721,-1.5919,-1.567,-1.5656,-1.5439,-1.5472,-1.5459,-1.5758,-1.5806,-1.5676,-1.5261,-1.5511,-1.5531,-1.5487,-1.557,-1.5315,-1.4552,-1.4316,-1.4467,-1.4777,-1.4551,-1.4707,-1.5308,-1.5328,-1.4897,-1.3953,-1.3885,-1.4283,-1.5155,-1.4195,-1.2848,-1.135,-1.0943,-1.1514,-1.2461,-1.2297,-1.1926,-1.1841,-1.2016,-1.2275,-1.5167,-1.4756,-1.4751,-1.451,-1.4089,-1.3734,-1.3373,-1.3061,-1.3429,-1.3848,-1.408,-1.3789,-1.3614,-1.355,-1.355,-1.3368,-1.3005,-1.3005,-1.3384,-1.4052,-1.3605,-1.2765,-1.1729,-1.1448,-1.1493,-1.1714,-1.2293,-1.2478,-1.2328,-1.1903,-1.2127,-1.2854,-1.2131,-1.1476,-1.1208,-1.1163,-1.0926,-1.0421,-1.0841,-1.0809,-1.0269,-1.0265,-1.0064,-0.971,-0.971,-0.9485,-0.8954,-0.9174,-0.8878,-0.8061,-0.8242,-0.8039,-0.73,-0.6913,-0.6461,-0.6009,-0.5622,-0.5556,-0.5943,-0.6013,-0.6217,-0.6732,-0.6172,-0.6779,-0.9185,-1.0612,-1.2018,-1.3397,-1.4076,-1.4597,-1.5092,-1.474,-1.4597,-1.5159,-1.5092,-1.4908,-1.4629,-1.3505,-1.3165,-1.4023,-1.4901,-1.5428,-1.5435,-1.5415,-1.5361,-1.5166,-1.5317,-1.541,-1.5405,-1.5432,-1.5258,-1.4801,-1.4088,-1.3908,-1.4562,-1.4639,-1.4673,-1.5029,-1.4773,-1.4375,-1.3687,-1.3407,-1.2963,-1.2975,-1.2608,-1.1831,-1.0335,-1.0345,-1.0856,-1.1062,-1.1097,-1.072,-1.0635,-1.035,-1.0779,-1.4515,-1.397,-1.3906,-1.3489,-1.2761,-1.2696,-1.2638,-1.2447,-1.2024,-1.2089,-1.2377,-1.2242,-1.2371,-1.2696,-1.2761,-1.2638,-1.2458,-1.2458,-1.2462,-1.2455,-1.2462,-1.1793,-1.0719,-1.0571,-1.0571,-1.0671,-1.1446,-1.174,-1.1476,-1.0926,-1.122,-1.2145,-1.0811,-1.0094,-1.0298,-0.9821,-0.9617,-0.9592,-1.0258,-1.0206,-0.9471,-0.9341,-0.9031,-0.8413,-0.8419,-0.8272,-0.7966,-0.8136,-0.793,-0.7427,-0.7577,-0.7307,-0.6461,-0.6396,-0.6141,-0.5491,-0.543,-0.5434,-0.5369,-0.5371,-0.5449,-0.5564,-0.5816,-0.6319,-0.7246,-0.8956,-1.0628,-1.1797,-1.2774,-1.3741,-1.4235,-1.3882,-1.3741,-1.4355,-1.326,-1.2803,-1.329,-1.1811,-1.1201,-1.2816,-1.4423,-1.5422,-1.542,-1.5415,-1.5405,-1.54,-1.5264,-1.5148,-1.5347,-1.5419,-1.541,-1.519,-1.4246,-1.3875,-1.4574,-1.4727,-1.4705,-1.4617,-1.426,-1.3798,-1.3396,-1.2396,-1.1535,-1.0936,-1.1016,-1.0767,-0.9768,-0.9879,-1.0176,-1.0173,-0.9928,-0.966,-0.9591,-0.9243,-0.963,-1.3187,-1.313,-1.3126,-1.263,-1.1958,-1.1892,-1.1531,-1.093,-1.0797,-1.0741,-1.0982,-1.1813,-1.2066,-1.195,-1.1892,-1.1534,-1.0926,-1.0804,-1.087,-1.0867,-1.0807,-1.0741,-1.0594,-1.0588,-1.0601,-1.0621,-1.0754,-1.0814,-1.0678,-1.0624,-1.0688,-1.0621,-0.9076,-0.8692,-0.9256,-0.8653,-0.8085,-0.7757,-0.8225,-0.8468,-0.8344,-0.802,-0.7619,-0.7107,-0.7191,-0.7249,-0.7205,-0.7479,-0.7231,-0.645,-0.6683,-0.6398,-0.5688,-0.5556,-0.5493,-0.5428,-0.5372,-0.5382,-0.5391,-0.5393,-0.5302,-0.5421,-0.5813,-0.6238,-0.6432,-0.7468,-0.8908,-1.0553,-1.1835,-1.2435,-1.2519,-1.2439,-1.2439,-1.2628,-1.242,-1.2132,-1.1781,-1.1046,-1.123,-1.281,-1.4396,-1.5422,-1.543,-1.5415,-1.5415,-1.541,-1.4941,-1.4663,-1.5153,-1.5395,-1.5289,-1.537,-1.5097,-1.4725,-1.4419,-1.4541,-1.4278,-1.3846,-1.3947,-1.3249,-1.1995,-1.1244,-1.0621,-0.9781,-0.922,-0.9321,-0.9451,-0.9516,-0.958,-0.9699,-0.9499,-0.9229,-0.8981,-0.8821,-0.9531,-1.2704,-1.2332,-1.2258,-1.1841,-1.1167,-1.1104,-1.0926,-1.0621,-1.0621,-1.0621,-1.0621,-1.1083,-1.1208,-1.1104,-1.1108,-1.0933,-1.0624,-1.0621,-1.0621,-1.0621,-1.0621,-1.0621,-1.0621,-1.0621,-1.0621,-1.0565,-1.0608,-1.0353,-0.9999,-1.0325,-1.0062,-0.9137,-0.8326,-0.82,-0.8484,-0.8156,-0.7911,-0.783,-0.7965,-0.7809,-0.721,-0.6925,-0.6865,-0.7064,-0.7326,-0.7136,-0.6547,-0.6718,-0.6507,-0.5639,-0.5789,-0.5751,-0.5428,-0.5432,-0.5372,-0.5372,-0.5382,-0.4909,-0.3893,-0.2813,-0.2654,-0.3688,-0.4033,-0.4727,-0.6196,-0.6727,-0.7524,-0.8832,-0.9965,-1.0499,-1.0571,-1.0496,-1.0798,-1.1335,-1.1702,-1.1802,-1.1426,-1.0912,-1.1237,-1.2842,-1.4436,-1.5386,-1.539,-1.5415,-1.5415,-1.5405,-1.5023,-1.4917,-1.4791,-1.5077,-1.506,-1.4584,-1.4204,-1.4031,-1.3811,-1.3326,-1.301,-1.269,-1.2228,-1.148,-1.1164,-1.0085,-0.9472,-0.9041,-0.8907,-0.8829,-0.9042,-0.9277,-0.9419,-0.9396,-0.9365,-0.9097,-0.8861,-0.8808,-0.9095,-1.2027,-1.1469,-1.1212,-1.078,-1.0234,-0.997,-0.9907,-0.991,-0.9907,-0.9907,-0.9907,-0.9907,-0.991,-0.9974,-1.0364,-1.0498,-1.0241,-1.0238,-1.0391,-1.0551,-1.0558,-1.034,-0.9913,-0.9907,-0.9904,-0.9989,-1.0402,-0.979,-0.8597,-0.9409,-0.9221,-0.8099,-0.7555,-0.7423,-0.7565,-0.744,-0.7312,-0.7249,-0.7314,-0.6916,-0.6205,-0.6065,-0.6153,-0.6558,-0.6861,-0.6709,-0.59,-0.6083,-0.5896,-0.5198,-0.5306,-0.5435,-0.5369,-0.5377,-0.5382,-0.5387,-0.5394,-0.4374,-0.2145,-0.0737,-0.0542,-0.1742,-0.1932,-0.2641,-0.4361,-0.5616,-0.6619,-0.7332,-0.8021,-0.8627,-0.9299,-0.9299,-0.9671,-1.0315,-1.1144,-1.1626,-1.1443,-1.0932,-1.1038,-1.2247,-1.3608,-1.4711,-1.4707,-1.4692,-1.4628,-1.4624,-1.5067,-1.5037,-1.4181,-1.4139,-1.3899,-1.4104,-1.3258,-1.2691,-1.3113,-1.2876,-1.2108,-1.1531,-1.1082,-1.0821,-1.0546,-0.9452,-0.8868,-0.8991,-0.8884,-0.8834,-0.8871,-0.9096,-0.9207,-0.9128,-0.9057,-0.9007,-0.8854,-0.8814,-0.8808,-1.0681,-1.0488,-0.9786,-0.9399,-0.9335,-0.8549,-0.8153,-0.8283,-0.8221,-0.8153,-0.8221,-0.8221,-0.8156,-0.8353,-0.9773,-1.011,-0.9399,-0.9338,-0.9716,-1.0413,-1.049,-0.9706,-0.8161,-0.8091,-0.8151,-0.8423,-0.9706,-0.8798,-0.5977,-0.7339,-0.8096,-0.7894,-0.6424,-0.5967,-0.6521,-0.6011,-0.5557,-0.5686,-0.5686,-0.555,-0.5477,-0.5465,-0.538,-0.5336,-0.5454,-0.5581,-0.5462,-0.5472,-0.5413,-0.535,-0.5432,-0.5379,-0.5312,-0.5389,-0.5399,-0.5205,-0.5274,-0.3775,-0.0808,-0.0,-0.0,-0.0,-0.0,-0.0,-0.0,-0.3781,-0.5719,-0.629,-0.6357,-0.7113,-0.8616,-0.8841,-0.9069,-0.9422,-1.0707,-1.1308,-1.1401,-1.0886,-1.0608,-1.0995,-1.2313,-1.3329,-1.3264,-1.3122,-1.3304,-1.3536,-1.4461,-1.4869,-1.3731,-1.2191,-1.2352,-1.3521,-1.2817,-1.111,-1.2035,-1.2033,-1.1719,-1.1191,-1.0646,-1.046,-0.9743,-0.9202,-0.9058,-0.8935,-0.8858,-0.8811,-0.8811,-0.8828,-0.8871,-0.8881,-0.8891,-0.8828,-0.8821,-0.8811,-0.8808,-0.8932,-0.8932,-0.8611,-0.8487,-0.842,-0.8156,-0.8024,-0.8024,-0.8024,-0.8024,-0.8024,-0.7959,-0.8024,-0.8027,-0.8675,-0.8804,-0.8487,-0.8482,-0.8638,-0.8936,-0.8936,-0.8027,-0.6448,-0.6312,-0.6992,-0.7964,-0.8619,-0.7751,-0.5721,-0.6063,-0.6338,-0.6272,-0.5736,-0.5606,-0.5747,-0.5556,-0.5427,-0.5427,-0.5427,-0.5432,-0.5374,-0.5371,-0.5345,-0.5308,-0.5338,-0.5432,-0.5371,-0.5372,-0.5377,-0.5384,-0.5387,-0.4843,-0.3956,-0.4782,-0.4318,-0.2289,-0.1954,-0.1346,-0.0,-0.0,-0.0,-0.0,-0.0,-0.0,-0.0,-0.1465,-0.2817,-0.3913,-0.4226,-0.4837,-0.5843,-0.6778,-0.7642,-0.8344,-0.9065,-1.016,-1.1005,-1.091,-1.0574,-1.0853,-1.1985,-1.2985,-1.2903,-1.3005,-1.3005,-1.3074,-1.3527,-1.3439,-1.2834,-1.1472,-1.1156,-1.1824,-1.1442,-1.0715,-1.1025,-1.1044,-1.0741,-1.0455,-1.0058,-0.9781,-0.9252,-0.9085,-0.8931,-0.8881,-0.8814,-0.8808,-0.8808,-0.8808,-0.8808,-0.8808,-0.8808,-0.8808,-0.8808,-0.8808,-0.8808,-0.8024,-0.7959,-0.77,-0.757,-0.757,-0.7246,-0.7183,-0.7183,-0.7183,-0.7181,-0.7183,-0.7186,-0.7183,-0.7183,-0.7181,-0.7186,-0.7183,-0.744,-0.744,-0.7186,-0.7183,-0.6567,-0.5549,-0.5413,-0.6019,-0.6983,-0.715,-0.6496,-0.5561,-0.5427,-0.5427,-0.5427,-0.543,-0.5434,-0.5432,-0.5369,-0.5374,-0.5372,-0.5372,-0.5376,-0.5384,-0.5384,-0.5113,-0.4706,-0.5105,-0.5376,-0.5382,-0.4291,-0.3955,-0.4503,-0.5057,-0.4307,-0.2281,-0.2961,-0.2627,-0.0,-0.0,0.0606,0.1552,0.1714,-0.0,-0.0,-0.0,0.0823,-0.0,-0.0,-0.0,-0.1877,-0.3601,-0.423,-0.414,-0.5322,-0.6579,-0.7287,-0.7945,-0.8993,-1.0423,-1.0613,-1.0575,-1.0715,-1.1429,-1.2093,-1.2216,-1.2216,-1.2155,-1.2216,-1.2239,-1.203,-1.1652,-1.1125,-1.0588,-1.0608,-1.0749,-1.0601,-1.0741,-1.0712,-1.0495,-1.0144,-0.9914,-0.9492,-0.918,-0.8987,-0.8888,-0.8834,-0.8752,-0.8804,-0.8752,-0.8752,-0.8752,-0.8752,-0.8808,-0.8808,-0.8808,-0.8808,-0.8808,-0.7897,-0.7705,-0.7044,-0.6658,-0.6595,-0.5949,-0.5495,-0.5625,-0.5561,-0.5692,-0.576,-0.5561,-0.5693,-0.5559,-0.5692,-0.5561,-0.5758,-0.6402,-0.6338,-0.5686,-0.5624,-0.5556,-0.5416,-0.5416,-0.5418,-0.5627,-0.5496,-0.5498,-0.5432,-0.5432,-0.5432,-0.5434,-0.5374,-0.5307,-0.5307,-0.5125,-0.5202,-0.5142,-0.5086,-0.5287,-0.5404,-0.5433,-0.4612,-0.3305,-0.4469,-0.5369,-0.5351,-0.2143,-0.1136,-0.2679,-0.4173,-0.3574,-0.0,-0.0,-0.0067,0.0337,-0.0,-0.0,0.4388,0.4826,0.4214,0.3443,0.3093,0.2451,-0.0,-0.0,-0.0,-0.0,-0.3617,-0.5438,-0.4069,-0.5165,-0.6349,-0.6465,-0.7526,-0.8536,-0.9136,-0.9994,-1.0488,-1.0411,-1.0541,-1.0624,-1.0621,-1.0541,-1.0538,-1.0551,-1.0745,-1.0715,-1.0299,-0.9912,-1.027,-1.0203,-0.9796,-0.9408,-1.0015,-1.0598,-1.0322,-1.0113,-0.9917,-0.9646,-0.9349,-0.9143,-0.8991,-0.8851,-0.8427,-0.8421,-0.8134,-0.819,-0.848,-0.8537,-0.8643,-0.8752,-0.8808,-0.8808,-0.8808,-0.6236,-0.617,-0.5907,-0.5841,-0.5774,-0.5514,-0.5386,-0.5382,-0.5382,-0.5387,-0.5382,-0.5386,-0.5386,-0.5386,-0.5384,-0.5384,-0.5449,-0.571,-0.5636,-0.5428,-0.5428,-0.5428,-0.543,-0.5371,-0.5376,-0.5384,-0.5386,-0.5384,-0.5314,-0.5382,-0.5384,-0.5386,-0.5322,-0.4705,-0.3762,-0.3549,-0.3519,-0.3527,-0.3516,-0.4122,-0.5215,-0.5356,-0.4492,-0.3131,-0.4427,-0.5372,-0.5218,-0.1917,-0.0335,-0.0874,-0.1346,-0.1145,-0.0,-0.0,-0.0,0.3371,0.371,0.2689,0.202,0.4248,0.5575,0.53,0.5254,0.5084,0.4038,0.156,-0.0,-0.0,-0.3778,-0.5918,-0.5579,-0.5805,-0.6271,-0.6257,-0.7112,-0.7765,-0.8042,-0.8845,-0.8885,-0.8444,-0.9049,-0.9393,-0.9,-0.8865,-0.8932,-0.9072,-0.9744,-1.0048,-0.863,-0.7815,-0.7059,-0.699,-0.7242,-0.82,-0.9078,-0.982,-1.005,-1.0132,-1.0033,-0.98,-0.9505,-0.9253,-0.9054,-0.8717,-0.8297,-0.775,-0.752,-0.7641,-0.7931,-0.8212,-0.8265,-0.848,-0.8699,-0.8646,-0.8427,-0.4371,-0.4371,-0.4371,-0.4371,-0.4371,-0.4371,-0.4371,-0.4371,-0.4371,-0.4438,-0.437,-0.4371,-0.4371,-0.4371,-0.4371,-0.4371,-0.4371,-0.4371,-0.477,-0.5306,-0.5376,-0.5374,-0.5238,-0.4629,-0.4841,-0.5121,-0.4711,-0.403,-0.3488,-0.4711,-0.5054,-0.4508,-0.373,-0.3686,-0.3417,-0.2306,-0.1701,-0.1706,-0.1727,-0.2256,-0.3136,-0.3431,-0.2845,-0.2041,-0.2774,-0.2554,-0.1162,0.1196,0.1585,-0.0,-0.0,-0.0,0.1756,-0.0,0.3042,0.4117,0.5046,0.4497,0.2736,0.461,0.5986,0.6182,0.6156,0.5696,0.47,0.1801,-0.0,-0.0,-0.377,-0.6305,-0.6293,-0.6278,-0.6268,-0.6338,-0.6934,-0.7234,-0.7421,-0.8048,-0.8158,-0.7767,-0.8133,-0.8345,-0.8153,-0.8024,-0.8024,-0.8166,-0.8676,-0.9043,-0.73,-0.6223,-0.5683,-0.541,-0.5871,-0.6945,-0.8221,-0.9017,-0.9676,-1.0005,-1.0291,-0.9973,-0.9747,-0.9392,-0.9093,-0.8562,-0.8058,-0.6742,-0.6348,-0.6934,-0.7289,-0.756,-0.7723,-0.767,-0.767,-0.7723,-0.7619,-0.2544,-0.2544,-0.2545,-0.2545,-0.2546,-0.2546,-0.2547,-0.2546,-0.2546,-0.2547,-0.2546,-0.2547,-0.2547,-0.2545,-0.2547,-0.2547,-0.2612,-0.2951,-0.3897,-0.5055,-0.5331,-0.5196,-0.4397,-0.3701,-0.3913,-0.4218,-0.3245,-0.1819,-0.0814,-0.3197,-0.4256,-0.2514,-0.1316,-0.1611,-0.3318,-0.1585,-0.0,-0.0,-0.0,-0.0221,0.0221,0.0367,0.022,0.022,0.0147,0.1471,0.4132,0.5211,0.4038,-0.0,-0.0,0.1729,0.4465,0.5847,0.5083,0.3841,0.495,0.5565,0.5659,0.5654,0.5978,0.6087,0.601,0.5269,0.3821,-0.0,-0.0,-0.0,-0.3683,-0.573,-0.605,-0.6276,-0.6257,-0.6379,-0.6695,-0.6975,-0.7057,-0.7611,-0.7559,-0.7195,-0.7483,-0.7829,-0.7635,-0.7635,-0.7635,-0.7572,-0.7391,-0.7066,-0.6802,-0.5999,-0.5554,-0.5406,-0.5379,-0.5829,-0.703,-0.7899,-0.8734,-1.0032,-1.0118,-0.9628,-0.9598,-0.9309,-0.907,-0.8492,-0.7441,-0.6082,-0.5589,-0.6281,-0.6578,-0.6635,-0.6637,-0.6534,-0.6699,-0.6969,-0.7023,-0.0738,-0.0672,-0.0673,-0.0673,-0.074,-0.0673,-0.0672,-0.0672,-0.074,-0.0739,-0.074,-0.0673,-0.0672,-0.0673,-0.0672,-0.074,-0.0941,-0.2019,-0.3716,-0.5156,-0.5416,-0.3748,-0.2537,-0.367,-0.3437,-0.1765,-0.0,-0.042,-0.0071,-0.0,-0.0,-0.0713,-0.0,-0.036,-0.1086,-0.0296,-0.0,-0.0,-0.0,0.1615,0.4007,0.4394,0.3777,0.2377,0.2297,0.2834,0.414,0.5463,0.5075,0.2386,0.1955,0.2371,0.3883,0.5153,0.5616,0.5218,0.5362,0.5734,0.5787,0.5879,0.6004,0.6212,0.6197,0.6015,0.5429,0.2038,-0.1176,-0.3227,-0.3455,-0.3131,-0.5497,-0.6276,-0.622,-0.6107,-0.6341,-0.637,-0.6384,-0.6735,-0.6867,-0.6176,-0.6597,-0.6728,-0.6406,-0.621,-0.621,-0.621,-0.6081,-0.5952,-0.5954,-0.5886,-0.5427,-0.5427,-0.5408,-0.5389,-0.5844,-0.6709,-0.7973,-0.9775,-0.979,-0.8847,-0.8953,-0.8981,-0.8893,-0.8659,-0.6817,-0.5315,-0.5441,-0.591,-0.5864,-0.5821,-0.6041,-0.6206,-0.648,-0.6696,-0.6588,0.114,0.1142,0.1142,0.1142,0.1142,0.1142,0.1142,0.1142,0.1142,0.1142,0.1142,0.1142,0.1142,0.1142,0.1142,0.1142,0.094,0.0067,-0.094,-0.1545,-0.1004,-0.034,-0.0485,-0.2359,-0.1982,-0.0,-0.0,-0.0,-0.0,-0.0,-0.0,-0.0,-0.0,-0.0,0.2743,0.2657,0.2074,-0.0,0.1322,0.2665,0.4796,0.5913,0.5746,0.4621,0.4461,0.4448,0.4544,0.556,0.5419,0.4238,0.3913,0.3964,0.4205,0.5105,0.5773,0.576,0.5761,0.5763,0.578,0.5817,0.6017,0.6211,0.6287,0.63,0.5523,0.2435,-0.1491,-0.2595,-0.188,-0.3212,-0.5338,-0.6325,-0.6237,-0.6151,-0.5996,-0.5891,-0.5739,-0.6122,-0.6071,-0.5755,-0.5765,-0.6028,-0.5442,-0.5374,-0.5374,-0.5442,-0.557,-0.5503,-0.5502,-0.5432,-0.5428,-0.5428,-0.5425,-0.5404,-0.5482,-0.6252,-0.6489,-0.8213,-0.8589,-0.7835,-0.8487,-0.86,-0.8568,-0.8055,-0.6208,-0.511,-0.5354,-0.5374,-0.5164,-0.5224,-0.5607,-0.5716,-0.5825,-0.6043,-0.5989,0.3012,0.2947,0.2947,0.3014,0.2948,0.3015,0.295,0.3014,0.3016,0.2949,0.2949,0.2948,0.295,0.2947,0.2951,0.2948,0.2947,0.2748,0.2812,0.289,0.3592,0.3524,0.1335,0.0497,-0.0,-0.0,-0.0,-0.0,-0.0,-0.0,-0.0,-0.0,-0.0,-0.0,0.4878,0.583,0.509,0.3737,0.3392,0.3477,0.4257,0.5427,0.595,0.5869,0.5789,0.5743,0.5741,0.5995,0.5777,0.575,0.5532,0.5366,0.556,0.5668,0.5701,0.5754,0.5737,0.5749,0.5734,0.5833,0.5577,0.5329,0.5688,0.5846,0.4729,0.1804,-0.0,-0.0,-0.0,-0.3049,-0.4519,-0.5538,-0.5677,-0.553,-0.5509,-0.5469,-0.5637,-0.5528,-0.5341,-0.5145,-0.5119,-0.5121,-0.5122,-0.5122,-0.5052,-0.4363,-0.4631,-0.4834,-0.5105,-0.5377,-0.5371,-0.5432,-0.5359,-0.535,-0.5544,-0.5858,-0.5868,-0.6358,-0.6595,-0.6656,-0.7995,-0.8249,-0.8129,-0.7419,-0.607,-0.5303,-0.5105,-0.5009,-0.4682,-0.468,-0.5007,-0.4844,-0.4625,-0.5009,-0.5117,0.4838,0.4847,0.4847,0.4847,0.4847,0.4781,0.4846,0.4843,0.4844,0.4771,0.4778,0.4778,0.4778,0.4778,0.4708,0.4781,0.4706,0.4706,0.4843,0.4933,0.5372,0.5601,0.4384,0.3214,0.1604,0.0978,0.1809,0.318,0.4064,0.2987,0.1613,0.0691,0.3154,0.53,0.6004,0.609,0.5956,0.5519,0.5308,0.5104,0.499,0.547,0.5879,0.594,0.5932,0.5903,0.5867,0.585,0.5784,0.5684,0.564,0.5757,0.5681,0.5691,0.5644,0.5655,0.5649,0.5614,0.5565,0.549,0.4396,0.2298,0.412,-0.0,-0.0,-0.0,-0.0,-0.0,-0.0471,-0.0778,-0.1606,-0.2959,-0.3412,-0.3536,-0.376,-0.4267,-0.5022,-0.4494,-0.3921,-0.3381,-0.3286,-0.3285,-0.3285,-0.3286,-0.3286,-0.3285,-0.0,-0.0,-0.45,-0.4978,-0.5382,-0.5372,-0.5394,-0.537,-0.5349,-0.5492,-0.5389,-0.5337,-0.534,-0.5473,-0.6843,-0.7591,-0.7333,-0.6885,-0.6206,-0.5607,-0.5064,-0.4791,-0.4517,-0.4517,-0.4462,-0.4462,-0.4462,-0.4462,-0.4465,0.6218,0.6624,0.662,0.6622,0.6622,0.6624,0.6618,0.6622,0.6624,0.6358,0.616,0.6358,0.6166,0.5447,0.5837,0.603,0.6032,0.5966,0.5767,0.5485,0.5616,0.5898,0.6133,0.5178,0.3797,0.318,0.4022,0.5366,0.564,0.5175,0.4135,0.312,0.5251,0.596,0.6257,0.6054,0.6028,0.6031,0.5956,0.5793,0.5754,0.5788,0.574,0.5803,0.5794,0.5917,0.6331,0.6322,0.6508,0.6664,0.6686,0.633,0.583,0.5925,0.5918,0.5646,0.5591,0.5547,0.5483,0.5358,0.4121,-0.0,-0.0,0.1772,-0.0,-0.0,-0.0,0.2359,0.2904,0.2644,0.1362,0.052,-0.0362,-0.0774,-0.2067,-0.3618,-0.4823,-0.4646,-0.3283,-0.2088,-0.1411,-0.1411,-0.141,-0.1407,-0.1408,-0.1409,-0.0,-0.0,-0.0,-0.3488,-0.5049,-0.5369,-0.537,-0.537,-0.5214,-0.5192,-0.5036,-0.4975,-0.4833,-0.4988,-0.5565,-0.6062,-0.6353,-0.6064,-0.5834,-0.5389,-0.4952,-0.468,-0.4463,-0.4462,-0.4462,-0.4462,-0.4463,-0.4465,-0.4468,0.7305,0.8021,0.8024,0.8024,0.8024,0.7962,0.7897,0.7959,0.8024,0.7442,0.7109,0.77,0.7057,0.6274,0.6597,0.6915,0.6918,0.6857,0.6472,0.548,0.6199,0.6657,0.6867,0.6725,0.6548,0.6736,0.6187,0.6274,0.6168,0.6274,0.5701,0.6089,0.6198,0.6278,0.6234,0.6091,0.5944,0.5949,0.5818,0.5727,0.5678,0.5732,0.5768,0.6039,0.6312,0.6539,0.6988,0.7085,0.7292,0.7912,0.8089,0.7409,0.6552,0.6281,0.6491,0.5788,0.5726,0.5555,0.5391,0.5098,-0.0,-0.0,-0.0,-0.0,-0.0,-0.0,-0.0,0.4653,0.5596,0.4974,0.3466,0.2879,0.2942,0.2505,-0.0,-0.2353,-0.4041,-0.4382,-0.2016,0.0135,0.0671,0.0402,0.0403,0.0402,0.0403,-0.0,-0.0,-0.0,-0.0,-0.0,-0.0,-0.0,-0.3422,-0.4007,-0.411,-0.4741,-0.4658,-0.4596,-0.4416,-0.4582,-0.4689,-0.5083,-0.5534,-0.5745,-0.5515,-0.5013,-0.4739,-0.4582,-0.4472,-0.4465,-0.4468,-0.4473,-0.4472,-0.4468,-0.4473,0.7879,0.7988,0.8011,0.8024,0.8024,0.8024,0.8089,0.8024,0.8153,0.7959,0.7829,0.7962,0.7962,0.7572,0.7635,0.7765,0.7702,0.764,0.7023,0.6131,0.7019,0.8103,0.8689,0.8431,0.8564,0.8304,0.7393,0.6421,0.631,0.6188,0.635,0.6289,0.6288,0.6263,0.6171,0.601,0.5837,0.5974,0.5799,0.567,0.5783,0.5803,0.6081,0.654,0.7082,0.751,0.7732,0.7826,0.7867,0.8032,0.8678,0.8447,0.7797,0.7283,0.6884,0.6501,0.5924,0.5627,0.5552,0.4106,0.2381,-0.0,-0.0,-0.0,0.3887,0.4873,0.4878,0.5579,0.6268,0.5942,0.5394,0.4805,0.484,0.4614,0.3913,0.2209,0.0134,0.0201,0.1473,0.3297,0.2888,0.2279,0.2281,0.2215,0.2216,0.2014,-0.0,-0.0,-0.0,-0.0,-0.0,-0.0,-0.072,-0.1753,-0.2697,-0.3676,-0.4191,-0.4201,-0.4146,-0.4317,-0.4428,-0.4489,-0.4766,-0.5093,-0.4916,-0.4299,-0.4195,-0.4086,-0.42,-0.397,-0.42,-0.4374,-0.4143,-0.3912,-0.4314,0.8927,0.9363,0.9317,0.932,0.9384,0.932,0.9326,0.9323,0.9326,0.9067,0.8938,0.9067,0.8804,0.835,0.8546,0.8417,0.8223,0.8487,0.7848,0.7277,0.8005,0.9515,1.0382,0.9913,0.9265,0.8846,0.7992,0.7352,0.6965,0.6874,0.6664,0.6334,0.6311,0.6222,0.6034,0.5852,0.602,0.6162,0.6198,0.6308,0.666,0.67,0.7062,0.7377,0.7762,0.8221,0.8616,0.8678,0.8941,0.9326,0.9719,0.9652,0.9265,0.8594,0.7827,0.6968,0.6084,0.5579,0.5337,0.3895,0.2125,0.0651,0.1693,0.3311,0.4312,0.4514,0.5231,0.5878,0.6007,0.589,0.5593,0.558,0.5461,0.5443,0.5382,0.4496,0.348,0.3682,0.4366,0.5259,0.4508,0.3962,0.41,0.41,0.4099,0.376,0.3151,0.2006,0.0601,-0.0,-0.0,-0.0,-0.0,-0.0,-0.0,-0.0,-0.0,-0.3249,-0.3363,-0.3532,-0.3815,-0.3701,-0.4099,-0.4551,-0.4152,-0.3809,-0.2678,-0.2229,-0.2793,-0.3303,-0.3188,-0.3076,-0.3188,-0.3359,-0.3587,0.9977,1.0621,1.0621,1.0621,1.0621,1.0558,1.0555,1.0621,1.0555,1.011,0.9722,1.0171,0.9776,0.9,0.9134,0.9204,0.8616,0.9373,0.9154,0.8826,0.9224,1.0548,1.129,1.0959,0.9963,0.9993,0.9575,0.8942,0.8004,0.7768,0.7063,0.6642,0.6405,0.6607,0.6524,0.6618,0.674,0.6935,0.7085,0.7377,0.7829,0.8159,0.8288,0.8353,0.8417,0.8938,0.9463,0.9527,0.9849,1.0238,1.0491,1.0555,1.0461,0.9844,0.8794,0.7377,0.638,0.5848,0.5157,0.4102,0.2496,0.113,0.3659,0.4327,0.4566,0.4484,0.451,0.5579,0.585,0.5719,0.5652,0.5599,0.552,0.5415,0.5372,0.5307,0.51,0.5032,0.4897,0.5379,0.5384,0.5248,0.4975,0.4973,0.4767,0.4731,0.4123,0.3753,0.229,0.0385,-0.0,-0.0,-0.0,-0.0,-0.0,-0.0,-0.0,-0.1734,-0.1846,-0.1958,-0.2407,-0.2744,-0.314,-0.3369,-0.3996,-0.3423,-0.1899,-0.0,-0.1341,-0.1789,-0.1788,-0.0,-0.0,-0.0,-0.2014,1.0498,1.0621,1.0621,1.0621,1.0621,1.0621,1.0621,1.0621,1.0621,1.0561,1.034,1.0495,1.0428,1.0234,1.0234,1.0298,1.0296,1.0406,1.0413,1.0173,1.0826,1.1494,1.2241,1.2141,1.1575,1.1287,1.1285,1.0361,0.9145,0.8767,0.7673,0.6739,0.7603,0.8373,0.8081,0.7651,0.793,0.7988,0.7939,0.7959,0.8218,0.8809,0.9072,0.9332,0.9722,1.0107,1.0238,1.0234,1.0431,1.0495,1.0621,1.0621,1.0434,0.9804,0.9367,0.8625,0.7688,0.6464,0.5668,0.444,0.3488,0.2572,0.3377,0.4213,0.489,0.5227,0.5336,0.5803,0.5876,0.5723,0.5591,0.5577,0.5501,0.5426,0.5432,0.5432,0.543,0.5434,0.5434,0.5434,0.5372,0.5371,0.5297,0.5299,0.536,0.5318,0.5138,0.469,0.3652,0.1504,-0.0,-0.0,-0.0,-0.0,-0.0,-0.0,-0.0,-0.0,-0.0616,-0.0727,-0.1175,-0.1567,-0.1344,-0.1738,-0.0,-0.0,-0.0,-0.0,-0.0,-0.0,-0.0,-0.0,-0.0,-0.0,-0.0,1.1659,1.1222,1.0807,1.0621,1.0621,1.0621,1.0621,1.0621,1.0621,1.0719,1.0745,1.0618,1.0621,1.0631,1.0621,1.0555,1.0685,1.0872,1.1005,1.1139,1.1589,1.2024,1.2241,1.2291,1.2255,1.2081,1.1947,1.1553,1.0447,0.9835,0.8952,0.8157,0.8451,0.9122,0.9301,0.8615,0.8593,0.8783,0.9186,0.9457,0.9582,0.9779,1.0044,1.0044,1.0434,1.0558,1.0621,1.0621,1.0621,1.0621,1.0621,1.0621,1.0558,1.0238,0.9853,0.9218,0.8176,0.6972,0.57,0.4984,0.4433,0.437,0.4341,0.5034,0.5771,0.575,0.5641,0.5766,0.5638,0.5533,0.5488,0.5462,0.543,0.5451,0.5428,0.5427,0.5427,0.5427,0.5428,0.5428,0.5427,0.5427,0.5427,0.5428,0.5333,0.5259,0.5187,0.4851,0.3622,0.1704,-0.0,-0.0,-0.0,-0.0,-0.0,-0.0,-0.0,-0.0,-0.0056,-0.0168,-0.0224,-0.0392,-0.028,-0.0,-0.0,-0.0,-0.0,-0.0,-0.0,-0.0,-0.0,-0.0,-0.0,-0.0,-0.0,1.2935,1.232,1.1542,1.1111,1.093,1.0923,1.08,1.0621,1.0621,1.0742,1.0778,1.0658,1.0655,1.0695,1.0678,1.0672,1.0705,1.0969,1.1182,1.1467,1.182,1.2094,1.2251,1.2288,1.2201,1.2039,1.2037,1.1919,1.1693,1.1266,1.0625,1.0024,0.9746,0.9893,1.0058,0.9609,0.9242,0.9637,1.0123,1.0428,1.0491,1.0491,1.0555,1.0558,1.0621,1.0684,1.0867,1.0923,1.0919,1.0923,1.0986,1.0923,1.0618,1.0491,1.0238,0.9658,0.8843,0.7784,0.6544,0.5756,0.5507,0.544,0.5495,0.5436,0.5621,0.5549,0.5429,0.5618,0.5482,0.547,0.543,0.5372,0.5439,0.5437,0.5427,0.5427,0.5427,0.5423,0.5423,0.5427,0.5427,0.5427,0.5427,0.5427,0.5309,0.5213,0.5053,0.4942,0.3768,0.2122,-0.0,-0.0,-0.0,-0.0,-0.0,-0.0,-0.0,-0.0,-0.0,0.1065,0.1345,0.0895,0.0503,-0.0,-0.0,-0.0,-0.0,-0.0,-0.0,-0.0,-0.0,-0.0,-0.0,-0.0,-0.0,1.4094,1.397,1.3187,1.2393,1.171,1.1714,1.1288,1.0807,1.0681,1.0775,1.098,1.0718,1.0985,1.0948,1.0947,1.0823,1.1018,1.1263,1.1362,1.1571,1.1949,1.2388,1.2539,1.2606,1.2509,1.2527,1.2635,1.2573,1.2395,1.2542,1.2238,1.2008,1.1093,1.0893,1.0937,1.0863,1.0583,1.0785,1.0954,1.0804,1.0807,1.0747,1.0747,1.0681,1.0681,1.0926,1.1644,1.171,1.171,1.1714,1.1717,1.1476,1.1111,1.0863,1.0674,1.0415,0.9521,0.853,0.767,0.6521,0.5629,0.5446,0.5536,0.5798,0.6051,0.5668,0.5521,0.5807,0.5953,0.5767,0.5622,0.5427,0.5818,0.5883,0.6009,0.5807,0.5741,0.5413,0.5416,0.5423,0.5427,0.5427,0.5524,0.5515,0.5308,0.5207,0.4919,0.4801,0.4394,0.3019,0.1813,-0.0,-0.0,-0.0,-0.0,-0.0,-0.0,-0.0,-0.0,0.2635,0.3653,0.2857,0.1787,-0.0,-0.0,-0.0,-0.0,-0.0,-0.0,-0.0,-0.0,-0.0,-0.0,-0.0,-0.0,1.4928,1.4864,1.4569,1.3717,1.252,1.2516,1.2332,1.2093,1.2097,1.2219,1.238,1.2403,1.2405,1.2349,1.1647,1.1453,1.1634,1.1421,1.1494,1.1631,1.1966,1.2973,1.3389,1.3743,1.3702,1.3886,1.4023,1.4095,1.4148,1.3879,1.3089,1.256,1.2086,1.2406,1.2492,1.2418,1.2307,1.2237,1.2064,1.1911,1.1472,1.1849,1.1845,1.1344,1.1969,1.2155,1.2516,1.2516,1.2577,1.2577,1.2516,1.2274,1.1845,1.1534,1.1288,1.1104,1.0091,0.925,0.8782,0.7695,0.7053,0.6924,0.6738,0.6575,0.6862,0.6566,0.6624,0.6852,0.6918,0.6732,0.6987,0.6987,0.7118,0.692,0.6719,0.6449,0.6322,0.6065,0.5529,0.5533,0.5483,0.5427,0.5576,0.5721,0.5426,0.5185,0.4877,0.4552,0.4244,0.4027,0.2959,0.2401,0.2014,0.1622,0.1455,0.1397,0.134,0.19,0.2518,0.3421,0.4388,0.4329,0.3359,0.2794,0.2512,-0.0,-0.0,-0.0,-0.0,-0.0,-0.0,-0.0,-0.0,-0.0,-0.0,1.5415,1.5415,1.5415,1.4624,1.3429,1.3368,1.3252,1.3009,1.2944,1.3211,1.3604,1.4246,1.4179,1.352,1.3004,1.2619,1.2741,1.2631,1.212,1.2067,1.2271,1.3495,1.464,1.5289,1.54,1.5426,1.5234,1.5092,1.5017,1.5163,1.4423,1.3585,1.3048,1.3687,1.3982,1.3942,1.3571,1.3389,1.3112,1.2826,1.2266,1.2573,1.2765,1.2201,1.2638,1.3009,1.3247,1.3364,1.3368,1.3368,1.3308,1.3187,1.2818,1.2324,1.1896,1.134,1.0657,0.9722,0.9396,0.8678,0.8024,0.77,0.8343,0.8132,0.7842,0.7437,0.7391,0.7712,0.7902,0.8024,0.8024,0.7765,0.77,0.7505,0.7432,0.723,0.7309,0.712,0.6308,0.5707,0.5505,0.5267,0.5499,0.5668,0.5772,0.5502,0.5384,0.4949,0.4452,0.4306,0.4198,0.3863,0.3869,0.3473,0.3077,0.2909,0.2796,0.2965,0.3528,0.364,0.4206,0.4374,0.4485,0.3855,0.3799,0.4315,0.3752,0.257,0.1285,-0.0,-0.0,-0.0,-0.0,-0.0,-0.0,1.5415,1.5415,1.5415,1.4928,1.4209,1.4149,1.3786,1.3308,1.3252,1.3413,1.406,1.6228,1.5991,1.4209,1.4008,1.3915,1.3946,1.4132,1.3696,1.2841,1.2867,1.3757,1.5263,1.647,1.6612,1.5497,1.5513,1.5728,1.5446,1.5662,1.533,1.5251,1.511,1.5043,1.5142,1.4206,1.3526,1.3165,1.3275,1.3187,1.3061,1.3183,1.3243,1.3065,1.3304,1.3734,1.403,1.4149,1.4209,1.4154,1.4149,1.3906,1.3364,1.2443,1.2016,1.1834,1.0982,1.0491,1.0425,0.893,0.8412,0.8493,0.9274,0.9488,0.8503,0.8024,0.8156,0.8608,0.8415,0.8288,0.8156,0.8153,0.8283,0.8347,0.8339,0.8285,0.8433,0.8476,0.7729,0.595,0.5264,0.4988,0.5266,0.5578,0.5889,0.5915,0.5787,0.5403,0.4712,0.4468,0.4477,0.4479,0.4484,0.4257,0.386,0.415,0.4209,0.4378,0.4317,0.4309,0.4359,0.4525,0.4579,0.4522,0.4468,0.4473,0.448,0.4204,0.2348,-0.0,-0.0,-0.0,-0.0,-0.0,-0.0,1.5415,1.5415,1.5415,1.5235,1.4991,1.4986,1.481,1.4633,1.4616,1.4948,1.5591,1.671,1.6653,1.5612,1.4961,1.4808,1.4885,1.4293,1.3846,1.4304,1.4249,1.5475,1.6813,1.7372,1.7599,1.7213,1.7079,1.6936,1.7153,1.6867,1.701,1.7079,1.6719,1.6665,1.6297,1.5722,1.5566,1.5376,1.4953,1.4392,1.397,1.4209,1.4273,1.3855,1.4213,1.4633,1.4874,1.4869,1.4874,1.4874,1.4869,1.4751,1.4209,1.3352,1.2642,1.2278,1.149,1.0621,1.0558,0.9907,0.9779,0.9945,1.0053,1.0274,0.9725,0.9139,0.9265,0.9518,0.9454,0.9518,0.9776,0.9773,0.984,0.9843,0.9846,0.9813,0.9848,0.9922,0.932,0.6601,0.5137,0.5532,0.585,0.5835,0.608,0.6262,0.6253,0.5435,0.4664,0.451,0.4467,0.4467,0.4468,0.4472,0.4531,0.4754,0.4969,0.5014,0.4849,0.4684,0.468,0.4791,0.4572,0.4517,0.4517,0.4463,0.4358,0.3914,0.2178,-0.0,-0.0,-0.0,-0.0,-0.0,-0.0,1.5415,1.5415,1.5415,1.5415,1.5415,1.5415,1.5415,1.5439,1.5645,1.6061,1.6473,1.672,1.6751,1.6549,1.6116,1.5694,1.5758,1.5519,1.5564,1.6096,1.6157,1.6876,1.7579,1.7997,1.7905,1.8027,1.8008,1.7935,1.7798,1.7935,1.7867,1.7862,1.8008,1.756,1.7123,1.6981,1.6607,1.622,1.5633,1.5217,1.4944,1.4932,1.505,1.4874,1.4996,1.5357,1.5415,1.5415,1.5415,1.5415,1.5415,1.5415,1.4991,1.4273,1.3371,1.2767,1.1706,1.0853,1.0595,1.0558,1.0361,1.0434,1.0618,1.0611,1.0571,1.0047,1.0044,1.0298,1.0558,1.0558,1.0558,1.0621,1.0558,1.0561,1.0464,1.0366,1.0053,1.0061,0.8355,0.5889,0.5169,0.5723,0.6228,0.6323,0.6332,0.6539,0.664,0.5682,0.4743,0.4601,0.4622,0.4736,0.4958,0.5181,0.5234,0.5338,0.5494,0.5645,0.5487,0.5279,0.5169,0.5279,0.4897,0.4568,0.4515,0.4406,0.4184,0.3401,0.2286,0.1563,-0.0,-0.0,-0.0,-0.0,-0.0,1.5473,1.5468,1.5463,1.5526,1.5473,1.5473,1.5415,1.5444,1.5984,1.6191,1.6233,1.7392,1.7402,1.6899,1.7084,1.698,1.6712,1.6983,1.7275,1.7504,1.7282,1.7764,1.7885,1.7992,1.8008,1.8022,1.8008,1.8008,1.8008,1.8008,1.8008,1.8008,1.8008,1.7862,1.7707,1.7439,1.6938,1.6445,1.6079,1.5683,1.5327,1.5294,1.5352,1.5235,1.5357,1.5415,1.5415,1.5415,1.5415,1.5415,1.5415,1.5415,1.5113,1.4628,1.4027,1.3133,1.1804,1.1026,1.0795,1.0804,1.0621,1.0621,1.0565,1.0565,1.0565,1.0434,1.0495,1.0491,1.0621,1.0621,1.0621,1.0621,1.0621,1.0518,1.036,1.0043,0.9581,0.8468,0.6463,0.5066,0.4931,0.5268,0.5642,0.5854,0.6211,0.6836,0.6845,0.6342,0.5404,0.4641,0.4771,0.523,0.5506,0.6005,0.6109,0.6046,0.6197,0.635,0.6251,0.6098,0.5932,0.5605,0.5058,0.4732,0.457,0.4406,0.4244,0.385,0.3122,0.251,0.2291,-0.0,-0.0,-0.0,-0.0,1.6472,1.6968,1.6962,1.6641,1.6151,1.5637,1.5415,1.5444,1.565,1.5903,1.6567,1.7129,1.7303,1.7202,1.7319,1.7285,1.728,1.7344,1.7615,1.7676,1.7561,1.7653,1.7808,1.8017,1.8003,1.8008,1.8008,1.8008,1.8008,1.8008,1.8008,1.8008,1.8236,1.8158,1.8001,1.7607,1.7145,1.6679,1.6402,1.5889,1.561,1.5513,1.5513,1.5532,1.5488,1.5483,1.5474,1.543,1.542,1.5415,1.5415,1.5415,1.5352,1.4628,1.3895,1.3009,1.1784,1.0853,1.1199,1.0919,1.0614,1.0678,1.0618,1.0621,1.0621,1.0621,1.0621,1.0621,1.0621,1.0621,1.0621,1.0621,1.0621,1.0511,1.0146,0.9429,0.8823,0.7371,0.5451,0.4902,0.4765,0.488,0.5258,0.5437,0.5841,0.675,0.7063,0.6617,0.6004,0.5183,0.4974,0.5433,0.622,0.6776,0.6774,0.6709,0.691,0.7063,0.7017,0.675,0.6315,0.5875,0.5275,0.484,0.457,0.4468,0.4475,0.4022,0.3624,0.386,0.3698,0.2852,0.2123,0.1788,0.1564,1.7191,1.7584,1.7584,1.7196,1.6487,1.6041,1.5695,1.5493,1.5591,1.6016,1.6479,1.7017,1.7302,1.7329,1.7373,1.7363,1.7353,1.7144,1.7192,1.7229,1.7293,1.7614,1.7937,1.8022,1.8003,1.8008,1.8008,1.8008,1.8066,1.8071,1.8071,1.8602,1.8729,1.8993,1.8931,1.8593,1.8001,1.7415,1.6807,1.6174,1.5884,1.582,1.5918,1.5859,1.5781,1.5674,1.5615,1.5557,1.543,1.542,1.5415,1.5415,1.5293,1.4758,1.4243,1.3447,1.2641,1.2096,1.2073,1.1169,1.0944,1.0909,1.08,1.0621,1.0621,1.0621,1.0621,1.0621,1.0621,1.0621,1.0621,1.0621,1.0621,1.0558,0.9652,0.8681,0.7584,0.6432,0.5561,0.4879,0.477,0.4826,0.4934,0.5071,0.549,0.6418,0.7125,0.7224,0.6489,0.5595,0.5448,0.569,0.6756,0.7603,0.7487,0.7419,0.7619,0.7824,0.7937,0.7563,0.691,0.632,0.5832,0.5175,0.4517,0.4467,0.4472,0.447,0.4299,0.448,0.4484,0.3856,0.335,0.3299,0.3131,1.7669,1.7735,1.7671,1.7352,1.6714,1.6652,1.6203,1.5566,1.5955,1.6096,1.6297,1.6894,1.7257,1.7231,1.7324,1.7314,1.7285,1.7139,1.7031,1.6831,1.7532,1.7937,1.7962,1.7976,1.7978,1.8008,1.8109,1.8257,1.8235,1.8242,1.8435,1.9365,2.0385,2.0577,2.009,1.9495,1.8843,1.8222,1.7509,1.6894,1.6409,1.6455,1.6719,1.6597,1.6343,1.6089,1.5942,1.5728,1.5386,1.543,1.5531,1.5526,1.562,1.5559,1.5083,1.4448,1.3929,1.3425,1.2887,1.1889,1.1589,1.1439,1.1163,1.0982,1.0923,1.0681,1.0621,1.0681,1.0744,1.0923,1.1045,1.1045,1.1045,1.0671,0.984,0.8728,0.7529,0.6305,0.522,0.4735,0.4621,0.4635,0.4648,0.484,0.5386,0.6206,0.6923,0.7354,0.7368,0.6404,0.6306,0.6389,0.7227,0.8077,0.8062,0.8049,0.8321,0.8533,0.8431,0.7667,0.6473,0.6324,0.6398,0.5456,0.4462,0.4462,0.4463,0.4465,0.4465,0.4467,0.4468,0.4465,0.4356,0.4196,0.4084,1.8138,1.8627,1.8507,1.8334,1.8118,1.7572,1.6928,1.6265,1.6368,1.6343,1.6186,1.6446,1.6684,1.6894,1.7217,1.7217,1.6997,1.7139,1.7142,1.7098,1.7527,1.8035,1.8121,1.8305,1.8202,1.8002,1.8136,1.8772,1.9541,1.9154,1.8908,2.0285,2.1497,2.1876,2.0846,2.0153,1.9638,1.9152,1.8538,1.7688,1.6971,1.6694,1.6719,1.6728,1.6582,1.6372,1.612,1.5662,1.5457,1.5425,1.5999,1.6477,1.7034,1.7237,1.6864,1.6126,1.546,1.4865,1.4012,1.3128,1.2716,1.2366,1.2085,1.171,1.1344,1.0863,1.0684,1.087,1.1052,1.1292,1.1472,1.1472,1.1347,1.0783,1.0148,0.8837,0.7529,0.6211,0.4955,0.4657,0.454,0.4468,0.4484,0.4844,0.5336,0.6055,0.6892,0.7546,0.8165,0.7847,0.7679,0.7759,0.7978,0.8484,0.8306,0.8093,0.8096,0.8046,0.7833,0.7015,0.6036,0.5719,0.551,0.5069,0.4462,0.4462,0.4462,0.4462,0.4462,0.4462,0.4462,0.4462,0.4462,0.4356,0.4413,1.8431,1.8983,1.915,1.8986,1.8667,1.8226,1.7682,1.709,1.6978,1.6903,1.6652,1.6397,1.6287,1.6499,1.6894,1.7061,1.6748,1.6948,1.7243,1.7357,1.7192,1.8001,1.84,1.908,1.9264,1.9156,1.9275,1.9933,2.1029,2.0292,2.0028,2.1204,2.2432,2.2651,2.1536,2.1096,2.0511,2.0082,1.9613,1.885,1.792,1.7645,1.7345,1.729,1.6991,1.6714,1.6263,1.5789,1.548,1.562,1.6098,1.681,1.7335,1.7634,1.7544,1.7097,1.667,1.6297,1.5386,1.4615,1.3974,1.3636,1.2826,1.2393,1.2328,1.1907,1.1237,1.1296,1.141,1.1648,1.1834,1.1896,1.1834,1.1461,1.0408,0.9165,0.7406,0.5736,0.4925,0.4567,0.4502,0.4567,0.4629,0.5001,0.5548,0.6261,0.7047,0.7761,0.8387,0.8811,0.8808,0.859,0.8427,0.8022,0.7461,0.7371,0.7396,0.7345,0.7238,0.664,0.5878,0.5062,0.4517,0.4462,0.4462,0.4462,0.4462,0.4462,0.4462,0.4462,0.4462,0.4462,0.4462,0.4462,0.4463,1.8468,1.9058,1.9503,1.9362,1.8874,1.8821,1.8442,1.7792,1.7743,1.7682,1.7429,1.6667,1.6357,1.6422,1.6725,1.6705,1.6894,1.721,1.7516,1.6938,1.651,1.8047,1.9646,2.0697,2.0662,2.0599,2.0615,2.1493,2.2624,2.1602,2.1329,2.2099,2.2591,2.309,2.2898,2.2476,2.179,2.1398,2.0968,2.04,1.9657,1.8874,1.8388,1.8022,1.7578,1.7088,1.6578,1.5966,1.5525,1.5989,1.6528,1.7407,1.8058,1.8458,1.8116,1.7918,1.7918,1.744,1.6689,1.5786,1.5459,1.4973,1.3825,1.3252,1.3187,1.27,1.2089,1.19,1.2016,1.2193,1.2443,1.2504,1.2443,1.2066,1.0871,0.9712,0.7787,0.5976,0.5411,0.4919,0.4957,0.5015,0.5083,0.5393,0.5923,0.6635,0.7233,0.7993,0.854,0.8709,0.8765,0.8271,0.783,0.7315,0.6564,0.6712,0.6856,0.6637,0.6529,0.6206,0.5719,0.4954,0.4517,0.4462,0.4462,0.4462,0.4462,0.4462,0.4462,0.4462,0.4462,0.4462,0.4462,0.4462,0.4462,1.8122,1.9039,1.9096,1.9308,1.9542,1.9579,1.9156,1.8555,1.8495,1.8167,1.776,1.7507,1.7322,1.7366,1.7788,1.7675,1.6934,1.7391,1.6757,1.5928,1.6854,1.8655,2.0432,2.1742,2.1835,2.1728,2.1608,2.2259,2.2973,2.2727,2.2622,2.2836,2.2836,2.3086,2.3055,2.2811,2.2677,2.2408,2.2425,2.2014,2.1624,2.0683,1.9451,1.8842,1.8304,1.7506,1.6753,1.5853,1.5916,1.6461,1.7512,1.843,1.9125,1.9542,1.9368,1.8903,1.8955,1.8381,1.7628,1.6821,1.6441,1.5366,1.4419,1.408,1.3901,1.3425,1.3061,1.3,1.3114,1.3472,1.3657,1.3721,1.3657,1.2976,1.1939,1.0892,0.9424,0.7918,0.6796,0.6529,0.6372,0.6224,0.6032,0.631,0.6632,0.7179,0.7388,0.8093,0.8643,0.8709,0.8771,0.8109,0.745,0.6126,0.5214,0.6112,0.6315,0.6095,0.5823,0.5553,0.5171,0.4791,0.4519,0.4517,0.4462,0.4462,0.4462,0.4462,0.4462,0.4462,0.4462,0.4462,0.4462,0.4462,0.4462]},{"header":{"parameterUnit":"m.s-1","parameterCategory":1,"la1":31.0,"la2":29.5877,"lo1":-88.7671,"lo2":-86.6584,"dy":0.0162,"dx":0.0185,"nx":115,"ny":88,"refTime":"2024-08-02T06:00:00:Z","depth":0,"parameterNumber":3,"parameterNumberName":"V-component_of_WINDS"},"data":[0.0,0.0,0.0,0.0,0.0,0.0,0.0,0.0,0.0,0.0,0.0,0.0,0.0,0.0,0.0,0.0,0.0,0.0,0.0,0.0,0.0,0.0,0.0,0.0,0.0,0.0,0.0,0.0,0.0,0.0,0.0,0.0,0.0,0.0,0.0,0.0,0.0,0.0,0.0,0.0,0.0,0.0,0.0,0.0,0.0,0.0,0.0,0.0,0.0,0.0,0.0,0.0,0.0,0.0,0.0,0.0,0.0,0.0,0.0,0.0,0.0,0.0,0.0,0.0,0.0,0.0,0.0,0.0,0.0,0.0,0.0,0.0,0.0,0.0,0.0,0.0,0.0,0.0,0.0,0.0,0.0,0.0,0.0,0.0,0.0,0.0,0.0,0.0,0.0,0.0,0.0,0.0,0.0,0.0,0.0,0.0,0.0,0.0,0.0,0.0,0.0,0.0,0.0,0.0,0.0,0.0,0.0,0.0,0.0,0.0,0.0,0.0,0.0,0.0,0.0,0.0,0.0,0.0,0.0,0.0,0.0,0.0,0.0,0.0,0.0,0.0,0.0,0.0,0.0,0.0,0.0,0.0,0.0,0.0,0.0,0.0,0.0,0.0,0.0,0.0,0.0,0.0,0.0,0.0,0.0,0.0,0.0,0.0,0.0,0.0,0.0,0.0,0.0,0.0,0.0,0.0,0.0,0.0,0.0,0.0,0.0,0.0,0.0,0.0,0.0,0.0,0.0,0.0,0.0,0.0,0.0,0.0,0.0,0.0,0.0,0.0,0.0,0.0,0.0,0.0,0.0,0.0,0.0,0.0,0.0,0.0,0.0,0.0,0.0,0.0,0.0,0.0,0.0,0.0,0.0,0.0,0.0,0.0,0.0,0.0,0.0,0.0,0.0,0.0,0.0,0.0,0.0,0.0,0.0,0.0,0.0,0.0,0.0,0.0,0.0,0.0,0.0,0.0,0.0,0.0,0.0,0.0,0.0,0.0,0.0,0.0,0.0,0.0,0.0,0.0,0.0,0.0,0.0,0.0,0.0,0.0,0.0,0.0,0.0,0.0,0.0,0.0,0.0,0.0,0.0,0.0,0.0,0.0,0.0,0.0,0.0,0.0,0.0,0.0,0.0,0.0,0.0,0.0,0.0,0.0,0.0,0.0,0.0,0.0,0.0,0.0,0.0,0.0,0.0,0.0,0.0,0.0,0.0,0.0,0.0,0.0,0.0,0.0,0.0,0.0,0.0,0.0,0.0,0.0,0.0,0.0,0.0,0.0,0.0,0.0,0.0,0.0,0.0,0.0,0.0,0.0,0.0,0.0,0.0,0.0,0.0,0.0,0.0,0.0,0.0,0.0,0.0,0.0,0.0,0.0,0.0,0.0,0.0,0.0,0.0,0.0,0.0,0.0,0.0,0.0,0.0,0.0,0.0,0.0,0.0,0.0,0.0,0.0,0.0,0.0,0.0,0.0,0.0,0.0,0.0,0.0,0.0,0.0,0.0,0.0,0.0,0.0,0.0,0.0,0.0,0.0,0.0,0.0,0.0,0.0,0.0,0.0,0.0,0.0,0.0,0.0,0.0,0.0,0.0,0.0,0.0,0.0,0.0,0.0,0.0,0.0,0.0,0.0,0.0,0.0,0.0,0.0,0.0,0.0,0.0,0.0,0.0,0.0,0.0,0.0,0.0,0.0,0.0,0.0,0.0,0.0,0.0,0.0,0.0,0.0,0.0,0.0,0.0,0.0,0.0,0.0,0.0,0.0,0.0,0.0,0.0,0.0,0.0,0.0,0.0,0.0,0.0,0.0,0.0,0.0,0.0,0.0,0.0,0.0,0.0,0.0,0.0,0.0,0.0,0.0,0.0,0.0,0.0,0.0,0.0,0.0,0.0,0.0,0.0,0.0,0.0,0.0,0.0,0.0,0.0,0.0,0.0,0.0,0.0,0.0,0.0,0.0,0.0,0.0,0.0,0.0,0.0,0.0,0.0,0.0,0.0,0.0,0.0,0.0,0.0,0.0,0.0,0.0,0.0,0.0,0.0,0.0,0.0,0.0,0.0,0.0,0.0,0.0,0.0,0.0,0.0,0.0,0.0,0.0,0.0,0.0,0.0,0.0,0.0,0.0,0.0,0.0,0.0,0.0,0.0,0.0,0.0,0.0,0.0,0.0,0.0,0.0,0.0,0.0,0.0,0.0,0.0,0.0,0.0,0.0,0.0,0.0,0.0,0.0,0.0,0.0,0.0,0.0,0.0,0.0,0.0,0.0,0.0,0.0,0.0,0.0,0.0,0.0,0.0,0.0,0.0,0.0,0.0,0.0,0.0,0.0,0.0,0.0,0.0,0.0,0.0,0.0,0.0,0.0,0.0,0.0,0.0,0.0,0.0,0.0,0.0,0.0,0.0,0.0,0.0,0.0,0.0,0.0,0.0,0.0,0.0,0.0,0.0,0.0,0.0,0.0,0.0,0.0,0.0,0.0,0.0,0.0,0.0,0.0,0.0,0.0,0.0,0.0,0.0,0.0,0.0,0.0,0.0,0.0,0.0,0.0,0.0,0.0,0.0,0.0,0.0,0.0,0.0,0.0,0.0,0.0,0.0,0.0,0.0,0.0,0.0,0.0,0.0,0.0,0.0,0.0,0.0,0.0,0.0,0.0,0.0,0.0,0.0,0.0,0.0,0.0,0.0,0.0,0.0,0.0,0.0,0.0,0.0,0.0,0.0,0.0,0.0,0.0,0.0,0.0,0.0,0.0,0.0,0.0,0.0,0.0,0.0,0.0,0.0,0.0,0.0,0.0,0.0,0.0,0.0,0.0,0.0,0.0,0.0,0.0,0.0,0.0,0.0,0.0,0.0,0.0,0.0,0.0,0.0,0.0,0.0,0.0,0.0,0.0,0.0,0.0,0.0,0.0,0.0,0.0,0.0,0.0,0.0,0.0,0.0,0.0,0.0,0.0,0.0,0.0,0.0,0.0,0.0,0.0,0.0,0.0,0.0,0.0,0.0,0.0,0.0,0.0,0.0,0.0,0.0,0.0,0.0,0.0,0.0,0.0,0.0,0.0,0.0,0.0,0.0,0.0,0.0,0.0,0.0,0.0,0.0,0.0,0.0,0.0,0.0,0.0,0.0,0.0,0.0,0.0,0.0,0.0,0.0,0.0,0.0,0.0,0.0,0.0,0.0,0.0,0.0,0.0,0.0,0.0,0.0,0.0,0.0,0.0,0.0,0.0,0.0,0.0,0.0,0.0,0.0,0.0,0.0,0.0,0.0,0.0,0.0,0.0,0.0,0.0,0.0,0.0,0.0,0.0,0.0,0.0,0.0,0.0,0.0,0.0,0.0,0.0,0.0,0.0,0.0,0.0,0.0,0.0,0.0,0.0,0.0,0.0,0.0,0.0,0.0,0.0,0.0,0.0,0.0,0.0,0.0,0.0,0.0,0.0,0.0,0.0,0.0,0.0,0.0,0.0,0.0,0.0,0.0,0.0,0.0,0.0,0.0,0.0,0.0,0.0,0.0,0.0,0.0,0.0,0.0,0.0,0.0,0.0,0.0,0.0,0.0,0.0,0.0,0.0,0.0,0.0,0.0,0.0,0.0,0.0,0.0,0.0,0.0,0.0,0.0,0.0,0.0,0.0,0.0,0.0,0.0,0.0,0.0,0.0,0.0,0.0,0.0,0.0,0.0,0.0,0.0,0.0,0.0,0.0,0.0,0.0,0.0,0.0,0.0,0.0,0.0,0.0,0.0,0.0,0.0,0.0,0.0,0.0,0.0,0.0,0.0,0.0,0.0,0.0,0.0,0.0,0.0,0.0,0.0,0.0,0.0,0.0,0.0,0.0,0.0,0.0,0.0,0.0,0.0,0.0,0.0,0.0,0.0,0.0,0.0,0.0,0.0,0.0,0.0,0.0,0.0,0.0,0.0,0.0,0.0,0.0,0.0,0.0,0.0,0.0,0.0,0.0,0.0,0.0,0.0,0.0,0.0,0.0,0.0,0.0,0.0,0.0,0.0,0.0,0.0,0.0,0.0,0.0,0.0,0.0,0.0,0.0,0.0,0.0,0.0,0.0,0.0,0.0,0.0,0.0,0.0,0.0,0.0,0.0,0.0,0.0,0.0,0.0,0.0,0.0,0.0,0.0,0.0,0.0,0.0,0.0,0.0,0.0,0.0,0.0,0.0,0.0,0.0,0.0,0.0,0.0,0.0,0.0,0.0,0.0,0.0,0.0,0.0,0.0,0.0,0.0,0.0,0.0,0.0,0.0,0.0,0.0,-2.3909,0.0,0.0,0.0,0.0,0.0,0.0,0.0,0.0,0.0,0.0,0.0,0.0,0.0,0.0,0.0,0.0,0.0,0.0,0.0,0.0,0.0,0.0,0.0,0.0,0.0,0.0,0.0,0.0,0.0,0.0,0.0,0.0,0.0,0.0,0.0,0.0,0.0,0.0,0.0,0.0,0.0,0.0,0.0,0.0,0.0,0.0,0.0,0.0,0.0,0.0,0.0,0.0,0.0,0.0,0.0,0.0,0.0,0.0,0.0,0.0,0.0,0.0,0.0,0.0,0.0,0.0,0.0,0.0,0.0,0.0,0.0,0.0,0.0,0.0,0.0,0.0,0.0,0.0,0.0,0.0,0.0,0.0,0.0,0.0,0.0,0.0,0.0,0.0,0.0,0.0,0.0,0.0,0.0,0.0,0.0,0.0,0.0,0.0,0.0,0.0,0.0,0.0,0.0,0.0,0.0,0.0,0.0,0.0,0.0,0.0,-2.4436,-2.4623,-2.4702,-2.4227,-2.3166,0.0,0.0,0.0,0.0,0.0,0.0,0.0,0.0,0.0,0.0,0.0,0.0,0.0,0.0,0.0,0.0,0.0,0.0,0.0,0.0,0.0,0.0,0.0,0.0,0.0,0.0,0.0,0.0,0.0,0.0,0.0,0.0,0.0,0.0,0.0,0.0,0.0,0.0,0.0,0.0,0.0,0.0,0.0,0.0,0.0,0.0,0.0,0.0,0.0,0.0,0.0,0.0,0.0,0.0,0.0,0.0,0.0,0.0,0.0,0.0,0.0,0.0,0.0,0.0,0.0,0.0,0.0,0.0,0.0,0.0,0.0,0.0,0.0,0.0,0.0,0.0,0.0,0.0,0.0,0.0,0.0,0.0,0.0,0.0,0.0,0.0,0.0,0.0,0.0,0.0,0.0,0.0,0.0,0.0,0.0,0.0,0.0,0.0,0.0,0.0,0.0,0.0,0.0,0.0,0.0,0.0,0.0,0.0,0.0,0.0,0.0,0.0,-2.4638,-2.3767,-2.2111,0.0,0.0,0.0,0.0,0.0,0.0,0.0,0.0,0.0,0.0,0.0,0.0,0.0,0.0,0.0,0.0,0.0,0.0,0.0,0.0,0.0,0.0,0.0,0.0,0.0,0.0,0.0,0.0,0.0,0.0,0.0,0.0,0.0,0.0,0.0,0.0,0.0,0.0,0.0,0.0,0.0,0.0,0.0,0.0,0.0,0.0,0.0,0.0,0.0,0.0,0.0,0.0,0.0,0.0,0.0,0.0,0.0,0.0,0.0,0.0,0.0,0.0,0.0,0.0,0.0,0.0,0.0,0.0,0.0,0.0,0.0,0.0,0.0,0.0,0.0,0.0,0.0,0.0,0.0,0.0,0.0,0.0,0.0,0.0,0.0,0.0,0.0,0.0,0.0,0.0,0.0,0.0,0.0,0.0,0.0,0.0,0.0,0.0,0.0,0.0,0.0,0.0,0.0,0.0,0.0,0.0,0.0,0.0,0.0,0.0,-2.4832,-2.5558,-2.503,0.0,-2.1502,0.0,0.0,0.0,0.0,0.0,0.0,0.0,0.0,0.0,0.0,0.0,0.0,0.0,0.0,0.0,0.0,0.0,0.0,0.0,0.0,0.0,0.0,0.0,0.0,0.0,0.0,0.0,0.0,0.0,0.0,0.0,0.0,0.0,0.0,0.0,0.0,0.0,0.0,0.0,0.0,0.0,0.0,0.0,0.0,0.0,0.0,0.0,0.0,0.0,0.0,0.0,0.0,0.0,0.0,0.0,0.0,0.0,0.0,0.0,0.0,0.0,0.0,0.0,0.0,0.0,0.0,0.0,0.0,0.0,0.0,0.0,0.0,0.0,0.0,0.0,0.0,0.0,0.0,0.0,0.0,0.0,0.0,0.0,0.0,0.0,0.0,0.0,0.0,0.0,0.0,0.0,0.0,0.0,0.0,0.0,0.0,0.0,0.0,0.0,0.0,0.0,0.0,0.0,0.0,0.0,0.0,0.0,0.0,0.0,0.0,-2.4169,-2.4979,-2.39,-2.2653,0.0,0.0,0.0,0.0,0.0,0.0,0.0,0.0,0.0,0.0,0.0,0.0,0.0,0.0,0.0,0.0,0.0,0.0,0.0,0.0,0.0,0.0,0.0,0.0,0.0,0.0,0.0,0.0,0.0,0.0,0.0,0.0,0.0,0.0,0.0,0.0,0.0,0.0,0.0,0.0,0.0,0.0,0.0,0.0,0.0,0.0,0.0,0.0,0.0,0.0,0.0,0.0,0.0,0.0,0.0,0.0,0.0,0.0,0.0,0.0,0.0,0.0,0.0,0.0,0.0,0.0,0.0,0.0,0.0,0.0,0.0,0.0,0.0,0.0,0.0,0.0,0.0,0.0,0.0,0.0,0.0,0.0,0.0,0.0,0.0,0.0,0.0,0.0,0.0,0.0,0.0,0.0,0.0,0.0,0.0,0.0,0.0,0.0,0.0,0.0,0.0,0.0,0.0,0.0,0.0,0.0,0.0,0.0,0.0,0.0,-2.3308,-2.3598,-2.4167,-2.3299,-2.2064,-2.0596,0.0,0.0,0.0,0.0,0.0,0.0,0.0,0.0,0.0,0.0,0.0,0.0,0.0,0.0,0.0,0.0,0.0,0.0,0.0,0.0,0.0,0.0,0.0,0.0,0.0,0.0,0.0,0.0,0.0,0.0,0.0,0.0,0.0,0.0,0.0,0.0,0.0,0.0,0.0,0.0,0.0,0.0,0.0,0.0,0.0,0.0,0.0,0.0,0.0,0.0,0.0,0.0,0.0,0.0,0.0,0.0,0.0,0.0,0.0,0.0,0.0,0.0,0.0,0.0,0.0,0.0,0.0,0.0,0.0,0.0,0.0,0.0,0.0,0.0,0.0,0.0,0.0,0.0,0.0,0.0,0.0,0.0,0.0,0.0,0.0,0.0,0.0,0.0,0.0,0.0,0.0,0.0,0.0,0.0,0.0,0.0,0.0,0.0,0.0,0.0,0.0,0.0,0.0,0.0,0.0,0.0,0.0,0.0,-2.4025,-2.3585,-2.3403,-2.3702,-2.3834,-2.2343,0.0,0.0,0.0,0.0,0.0,0.0,0.0,0.0,0.0,0.0,0.0,0.0,0.0,0.0,0.0,0.0,0.0,0.0,0.0,0.0,0.0,0.0,0.0,0.0,0.0,0.0,0.0,0.0,0.0,0.0,0.0,0.0,0.0,0.0,0.0,0.0,0.0,0.0,0.0,0.0,0.0,0.0,0.0,0.0,0.0,0.0,0.0,0.0,0.0,0.0,0.0,0.0,0.0,0.0,0.0,0.0,0.0,0.0,0.0,0.0,0.0,0.0,0.0,0.0,0.0,0.0,0.0,0.0,0.0,0.0,0.0,0.0,0.0,0.0,0.0,0.0,0.0,0.0,0.0,0.0,0.0,0.0,0.0,0.0,0.0,0.0,0.0,0.0,0.0,0.0,0.0,0.0,0.0,0.0,0.0,0.0,0.0,0.0,0.0,0.0,0.0,0.0,0.0,0.0,0.0,0.0,0.0,0.0,0.0,-2.2736,-2.374,-2.4395,-2.4618,-2.3125,-2.1488,0.0,0.0,0.0,0.0,0.0,0.0,0.0,0.0,0.0,0.0,0.0,0.0,0.0,0.0,0.0,0.0,0.0,0.0,0.0,0.0,0.0,0.0,0.0,0.0,0.0,0.0,0.0,0.0,0.0,0.0,0.0,0.0,0.0,0.0,0.0,0.0,0.0,0.0,0.0,0.0,0.0,0.0,0.0,0.0,0.0,0.0,0.0,0.0,0.0,0.0,0.0,0.0,0.0,0.0,0.0,0.0,0.0,0.0,0.0,0.0,0.0,0.0,0.0,0.0,0.0,0.0,0.0,0.0,0.0,0.0,0.0,0.0,0.0,0.0,0.0,0.0,0.0,0.0,0.0,0.0,0.0,0.0,0.0,0.0,0.0,0.0,0.0,0.0,0.0,0.0,0.0,0.0,0.0,0.0,0.0,0.0,0.0,0.0,0.0,0.0,0.0,0.0,0.0,0.0,0.0,0.0,0.0,0.0,0.0,-2.1464,0.0,-2.3777,-2.3662,-2.2234,-2.0789,0.0,0.0,0.0,0.0,0.0,0.0,0.0,0.0,0.0,0.0,0.0,0.0,0.0,0.0,0.0,0.0,0.0,0.0,0.0,0.0,0.0,0.0,0.0,0.0,0.0,0.0,0.0,0.0,0.0,0.0,0.0,0.0,0.0,0.0,0.0,0.0,0.0,0.0,0.0,0.0,0.0,0.0,0.0,0.0,0.0,0.0,0.0,0.0,0.0,0.0,0.0,0.0,0.0,0.0,0.0,0.0,0.0,0.0,0.0,0.0,0.0,0.0,0.0,0.0,0.0,0.0,0.0,0.0,0.0,0.0,0.0,0.0,0.0,0.0,0.0,0.0,0.0,0.0,0.0,0.0,0.0,0.0,0.0,0.0,0.0,0.0,0.0,0.0,0.0,0.0,0.0,0.0,0.0,0.0,0.0,0.0,0.0,0.0,0.0,0.0,0.0,0.0,0.0,0.0,0.0,0.0,0.0,0.0,-1.9767,-2.0365,-2.119,-2.1272,-2.0475,-2.1139,-2.0335,0.0,0.0,0.0,0.0,0.0,0.0,0.0,0.0,0.0,0.0,0.0,0.0,0.0,0.0,0.0,0.0,0.0,0.0,0.0,0.0,0.0,0.0,0.0,0.0,0.0,0.0,0.0,0.0,0.0,0.0,0.0,0.0,0.0,0.0,0.0,0.0,0.0,0.0,0.0,0.0,0.0,0.0,0.0,0.0,0.0,0.0,0.0,0.0,0.0,0.0,0.0,0.0,0.0,0.0,0.0,0.0,0.0,0.0,0.0,0.0,0.0,0.0,0.0,0.0,0.0,0.0,0.0,0.0,0.0,0.0,0.0,0.0,0.0,0.0,0.0,0.0,0.0,0.0,0.0,0.0,0.0,0.0,0.0,0.0,0.0,0.0,0.0,0.0,0.0,0.0,0.0,0.0,0.0,0.0,0.0,0.0,0.0,0.0,0.0,0.0,0.0,0.0,0.0,0.0,0.0,0.0,0.0,0.0,0.0,-1.8101,-1.861,-1.9141,-1.967,-1.9813,-1.9848,0.0,0.0,0.0,0.0,0.0,0.0,0.0,0.0,0.0,0.0,0.0,0.0,0.0,0.0,0.0,0.0,0.0,0.0,0.0,0.0,0.0,0.0,0.0,0.0,0.0,0.0,0.0,0.0,0.0,0.0,0.0,0.0,0.0,0.0,0.0,0.0,0.0,0.0,0.0,0.0,0.0,0.0,0.0,0.0,0.0,0.0,0.0,0.0,0.0,0.0,0.0,0.0,0.0,0.0,0.0,0.0,0.0,0.0,0.0,0.0,0.0,0.0,0.0,0.0,0.0,0.0,0.0,0.0,0.0,0.0,0.0,0.0,0.0,0.0,0.0,0.0,0.0,0.0,0.0,0.0,0.0,0.0,0.0,0.0,0.0,0.0,0.0,0.0,0.0,0.0,0.0,0.0,0.0,0.0,0.0,0.0,0.0,0.0,0.0,0.0,0.0,0.0,0.0,0.0,0.0,0.0,0.0,0.0,0.0,-1.3446,-1.4947,-1.639,-1.7707,-1.8505,-1.9251,-1.9925,0.0,0.0,0.0,0.0,0.0,0.0,0.0,0.0,0.0,0.0,0.0,0.0,0.0,0.0,0.0,0.0,0.0,0.0,0.0,0.0,0.0,0.0,0.0,0.0,0.0,0.0,0.0,0.0,0.0,0.0,0.0,0.0,0.0,0.0,0.0,0.0,0.0,0.0,0.0,0.0,0.0,0.0,0.0,0.0,0.0,0.0,0.0,0.0,0.0,0.0,0.0,0.0,0.0,0.0,0.0,0.0,0.0,0.0,0.0,0.0,0.0,0.0,0.0,0.0,0.0,0.0,0.0,0.0,0.0,0.0,0.0,0.0,0.0,0.0,0.0,0.0,0.0,0.0,0.0,0.0,0.0,0.0,0.0,0.0,0.0,0.0,0.0,0.0,0.0,0.0,0.0,0.0,0.0,0.0,0.0,0.0,0.0,0.0,0.0,0.0,0.0,0.0,0.0,0.0,0.0,0.0,0.0,0.0,-0.704,-1.0374,-1.2975,-1.4689,-1.7097,-1.8519,0.0,0.0,0.0,0.0,0.0,0.0,0.0,0.0,0.0,0.0,0.0,0.0,0.0,0.0,0.0,0.0,0.0,0.0,0.0,0.0,0.0,0.0,0.0,0.0,0.0,0.0,0.0,0.0,0.0,0.0,0.0,0.0,0.0,0.0,0.0,0.0,0.0,0.0,0.0,0.0,0.0,0.0,0.0,0.0,0.0,0.0,0.0,0.0,0.0,0.0,0.0,0.0,0.0,0.0,0.0,0.0,0.0,0.0,0.0,0.0,0.0,0.0,0.0,0.0,0.0,0.0,0.0,0.0,0.0,0.0,0.0,0.0,0.0,0.0,0.0,0.0,0.0,0.0,0.0,0.0,0.0,0.0,0.0,0.0,0.0,0.0,0.0,0.0,0.0,0.0,0.0,0.0,0.0,0.0,0.0,0.0,0.0,0.0,0.0,0.0,0.0,0.0,0.0,0.0,0.0,0.0,0.0,0.0,0.0,-0.5983,-0.5806,-0.7495,-1.113,-1.4696,-1.7614,0.0,0.0,0.0,0.0,0.0,0.0,0.0,0.0,0.0,0.0,0.0,0.0,0.0,0.0,0.0,0.0,0.0,0.0,0.0,0.0,0.0,0.0,0.0,0.0,0.0,0.0,0.0,0.0,0.0,0.0,0.0,0.0,0.0,0.0,0.0,0.0,0.0,0.0,0.0,0.0,0.0,0.0,0.0,0.0,0.0,0.0,0.0,0.0,0.0,0.0,0.0,0.0,0.0,0.0,0.0,0.0,0.0,0.0,0.0,0.0,0.0,0.0,0.0,0.0,0.0,0.0,0.0,0.0,0.0,0.0,0.0,0.0,0.0,0.0,0.0,0.0,0.0,0.0,0.0,0.0,0.0,0.0,0.0,0.0,0.0,0.0,0.0,0.0,0.0,0.0,0.0,0.0,0.0,0.0,0.0,0.0,0.0,0.0,0.0,0.0,0.0,0.0,0.0,0.0,0.0,0.0,0.0,0.0,-0.7626,-0.4122,-0.3178,-0.4441,-0.7903,-1.2777,-1.6676,0.0,0.0,0.0,0.0,0.0,0.0,0.0,0.0,0.0,0.0,0.0,0.0,0.0,0.0,0.0,0.0,0.0,0.0,0.0,0.0,0.0,0.0,0.0,0.0,0.0,0.0,0.0,0.0,0.0,0.0,0.0,0.0,0.0,0.0,0.0,0.0,0.0,0.0,0.0,0.0,0.0,0.0,0.0,0.0,0.0,0.0,0.0,0.0,0.0,0.0,0.0,0.0,0.0,0.0,0.0,0.0,0.0,0.0,0.0,0.0,0.0,0.0,0.0,0.0,0.0,0.0,0.0,0.0,0.0,0.0,0.0,0.0,0.0,0.0,0.0,0.0,0.0,0.0,0.0,0.0,0.0,0.0,0.0,0.0,0.0,0.0,0.0,0.0,0.0,0.0,0.0,0.0,0.0,0.0,0.0,0.0,0.0,0.0,0.0,0.0,0.0,0.0,0.0,0.0,0.0,0.0,0.0,0.0,-0.5972,-0.2157,-0.2037,-0.3071,-0.5301,-1.1204,-1.5718,0.0,0.0,0.0,0.0,0.0,0.0,0.0,0.0,0.0,0.0,0.0,0.0,0.0,0.0,0.0,0.0,0.0,0.0,0.0,0.0,0.0,0.0,0.0,0.0,0.0,0.0,0.0,0.0,0.0,0.0,0.0,0.0,0.0,0.0,0.0,0.0,0.0,0.0,0.0,0.0,0.0,0.0,0.0,0.0,0.0,0.0,0.0,0.0,0.0,0.0,0.0,0.0,0.0,0.0,0.0,0.0,0.0,0.0,0.0,0.0,0.0,0.0,0.0,0.0,0.0,0.0,0.0,0.0,0.0,0.0,0.0,0.0,0.0,0.0,0.0,0.0,0.0,0.0,0.0,0.0,0.0,0.0,0.0,0.0,0.0,0.0,0.0,0.0,0.0,0.0,0.0,0.0,0.0,0.0,0.0,0.0,0.0,0.0,0.0,0.0,0.0,0.0,0.0,0.0,0.0,0.0,0.0,0.0,-0.425,-0.1444,-0.1792,-0.2737,-0.425,-0.9926,-1.4676,0.0,0.0,0.0,0.0,0.0,0.0,0.0,0.0,0.0,0.0,0.0,0.0,0.0,0.0,0.0,0.0,0.0,0.0,0.0,0.0,0.0,0.0,0.0,0.0,0.0,0.0,0.0,0.0,0.0,0.0,0.0,0.0,0.0,0.0,0.0,0.0,0.0,0.0,0.0,0.0,0.0,0.0,0.0,0.0,0.0,0.0,0.0,0.0,-2.4213,0.0,0.0,0.0,0.0,0.0,0.0,0.0,0.0,0.0,0.0,0.0,0.0,0.0,0.0,0.0,0.0,0.0,0.0,0.0,0.0,0.0,0.0,0.0,0.0,0.0,0.0,0.0,0.0,0.0,0.0,0.0,0.0,0.0,0.0,0.0,0.0,0.0,0.0,0.0,0.0,0.0,0.0,0.0,0.0,0.0,0.0,0.0,0.0,0.0,0.0,0.0,0.0,0.0,0.0,0.0,0.0,0.0,0.0,0.0,-0.2617,-0.0687,-0.1812,-0.2939,-0.411,-0.8993,-1.3369,0.0,0.0,0.0,0.0,0.0,0.0,0.0,0.0,0.0,0.0,0.0,0.0,0.0,0.0,0.0,0.0,0.0,0.0,0.0,0.0,0.0,0.0,0.0,0.0,0.0,0.0,0.0,0.0,0.0,0.0,0.0,0.0,0.0,0.0,0.0,0.0,0.0,0.0,0.0,0.0,0.0,0.0,0.0,0.0,0.0,0.0,0.0,0.0,0.0,0.0,0.0,0.0,0.0,0.0,0.0,0.0,0.0,0.0,0.0,0.0,0.0,0.0,0.0,0.0,0.0,0.0,0.0,0.0,0.0,0.0,0.0,0.0,0.0,0.0,0.0,0.0,0.0,0.0,0.0,0.0,0.0,0.0,0.0,0.0,0.0,0.0,0.0,0.0,0.0,0.0,0.0,0.0,0.0,0.0,0.0,0.0,0.0,0.0,0.0,0.0,0.0,0.0,0.0,0.0,0.0,0.0,0.0,-0.42,-0.1082,0.0052,-0.1732,-0.3136,-0.395,-0.822,-1.1998,-1.5005,0.0,0.0,0.0,0.0,0.0,0.0,0.0,0.0,0.0,0.0,0.0,0.0,0.0,0.0,0.0,0.0,0.0,0.0,0.0,0.0,0.0,0.0,0.0,0.0,0.0,0.0,0.0,0.0,0.0,0.0,0.0,0.0,0.0,0.0,0.0,0.0,0.0,0.0,-1.8882,-1.7949,0.0,0.0,0.0,0.0,0.0,0.0,0.0,0.0,-2.1996,0.0,0.0,0.0,0.0,0.0,0.0,0.0,0.0,0.0,0.0,0.0,0.0,0.0,0.0,0.0,0.0,0.0,0.0,0.0,0.0,0.0,0.0,0.0,0.0,0.0,0.0,0.0,0.0,0.0,0.0,0.0,0.0,0.0,0.0,0.0,0.0,0.0,0.0,0.0,0.0,0.0,0.0,0.0,0.0,0.0,0.0,0.0,0.0,0.0,0.0,0.0,0.0,0.0,0.0,0.0,0.0,-0.6245,-0.177,0.0649,0.0865,-0.0957,-0.2478,-0.3612,-0.7394,-1.0721,-1.3377,0.0,0.0,0.0,0.0,0.0,0.0,0.0,0.0,0.0,0.0,0.0,0.0,0.0,0.0,0.0,0.0,0.0,0.0,0.0,0.0,0.0,0.0,0.0,0.0,0.0,0.0,0.0,0.0,0.0,0.0,0.0,0.0,0.0,0.0,0.0,0.0,0.0,0.0,0.0,-1.5059,-1.4257,0.0,0.0,0.0,0.0,0.0,0.0,0.0,0.0,-1.9987,0.0,0.0,0.0,0.0,0.0,0.0,0.0,0.0,0.0,0.0,0.0,0.0,0.0,0.0,0.0,0.0,0.0,0.0,0.0,0.0,0.0,0.0,0.0,0.0,0.0,0.0,0.0,0.0,0.0,0.0,0.0,0.0,0.0,0.0,0.0,0.0,0.0,0.0,0.0,0.0,0.0,0.0,0.0,0.0,0.0,0.0,0.0,0.0,0.0,0.0,0.0,0.0,0.0,0.0,0.0,-0.3758,-0.016,0.1326,0.0605,-0.0936,-0.2505,-0.3976,-0.737,-1.0401,0.0,0.0,0.0,0.0,0.0,0.0,0.0,0.0,0.0,0.0,0.0,0.0,0.0,0.0,0.0,0.0,0.0,0.0,0.0,0.0,0.0,0.0,0.0,0.0,0.0,0.0,0.0,0.0,0.0,0.0,0.0,0.0,0.0,0.0,0.0,0.0,0.0,0.0,0.0,0.0,-1.2463,-1.1235,-1.1886,0.0,0.0,0.0,0.0,0.0,0.0,-1.7835,-1.8321,0.0,0.0,0.0,0.0,0.0,0.0,0.0,0.0,0.0,0.0,0.0,0.0,0.0,0.0,0.0,0.0,0.0,0.0,0.0,0.0,0.0,0.0,0.0,0.0,0.0,0.0,0.0,0.0,0.0,0.0,0.0,0.0,0.0,0.0,0.0,0.0,0.0,0.0,0.0,0.0,0.0,0.0,0.0,0.0,0.0,0.0,0.0,0.0,0.0,0.0,0.0,0.0,0.0,0.0,0.0,-0.2188,0.0429,0.1259,0.0152,-0.1365,-0.2997,-0.4596,-0.7619,-1.0403,0.0,0.0,0.0,0.0,0.0,0.0,0.0,0.0,0.0,0.0,0.0,0.0,0.0,0.0,0.0,0.0,0.0,0.0,0.0,0.0,0.0,0.0,0.0,0.0,0.0,0.0,0.0,0.0,0.0,0.0,0.0,0.0,0.0,0.0,0.0,0.0,0.0,0.0,0.0,0.0,0.0,-0.8898,-0.9915,-1.1616,0.0,0.0,0.0,0.0,-1.5723,-1.6209,0.0,0.0,0.0,0.0,0.0,0.0,0.0,0.0,0.0,0.0,0.0,0.0,0.0,0.0,0.0,0.0,0.0,0.0,0.0,0.0,0.0,0.0,0.0,0.0,0.0,0.0,0.0,0.0,0.0,0.0,0.0,0.0,0.0,0.0,0.0,0.0,0.0,0.0,0.0,0.0,0.0,0.0,0.0,0.0,0.0,0.0,0.0,0.0,0.0,0.0,0.0,0.0,0.0,0.0,0.0,0.0,-0.23,-0.0605,0.0162,-0.0052,-0.231,-0.4125,-0.5305,-0.7878,-1.0537,0.0,0.0,0.0,0.0,0.0,0.0,0.0,0.0,0.0,0.0,0.0,0.0,0.0,0.0,0.0,0.0,0.0,0.0,0.0,0.0,0.0,0.0,0.0,0.0,0.0,0.0,0.0,0.0,0.0,0.0,0.0,0.0,0.0,0.0,0.0,0.0,0.0,0.0,0.0,0.0,0.0,-0.7808,-0.7942,-1.0097,-1.2059,0.0,0.0,-1.4672,-1.4141,-1.4565,0.0,0.0,0.0,0.0,0.0,0.0,0.0,0.0,0.0,0.0,0.0,0.0,0.0,0.0,0.0,0.0,0.0,0.0,0.0,0.0,0.0,0.0,0.0,0.0,0.0,0.0,0.0,0.0,0.0,0.0,0.0,0.0,0.0,0.0,0.0,0.0,0.0,0.0,0.0,0.0,0.0,0.0,0.0,0.0,0.0,0.0,0.0,0.0,0.0,0.0,0.0,0.0,0.0,0.0,0.0,-0.7345,-0.437,-0.1492,-0.0691,-0.2115,-0.3217,-0.4625,-0.6281,-0.825,-1.0437,0.0,0.0,0.0,0.0,0.0,0.0,0.0,0.0,0.0,0.0,0.0,0.0,0.0,0.0,0.0,0.0,0.0,0.0,0.0,0.0,0.0,0.0,0.0,0.0,0.0,0.0,0.0,0.0,0.0,0.0,0.0,0.0,0.0,0.0,0.0,0.0,0.0,0.0,0.0,0.0,0.0,0.0,-0.7512,-0.9249,0.0,0.0,0.0,-1.3667,-1.3778,0.0,0.0,0.0,0.0,0.0,0.0,0.0,0.0,0.0,0.0,0.0,0.0,0.0,0.0,0.0,0.0,0.0,0.0,0.0,0.0,0.0,0.0,0.0,0.0,0.0,0.0,0.0,0.0,0.0,0.0,0.0,0.0,0.0,0.0,0.0,0.0,0.0,0.0,0.0,0.0,0.0,0.0,0.0,0.0,0.0,0.0,0.0,0.0,0.0,0.0,0.0,0.0,0.0,0.0,0.0,0.0,0.0,-0.672,-0.3004,-0.1996,-0.3782,-0.4443,-0.5533,-0.7183,-0.8816,0.0,0.0,0.0,0.0,0.0,0.0,0.0,0.0,0.0,0.0,0.0,0.0,0.0,0.0,0.0,0.0,0.0,0.0,0.0,0.0,0.0,0.0,0.0,0.0,0.0,0.0,0.0,-1.8555,0.0,0.0,0.0,0.0,0.0,0.0,0.0,0.0,0.0,0.0,0.0,0.0,0.0,0.0,-0.6692,-0.772,-0.893,-1.0269,0.0,0.0,-1.3311,-1.3939,-1.4976,-1.6064,0.0,0.0,0.0,0.0,0.0,0.0,0.0,0.0,0.0,0.0,0.0,0.0,0.0,0.0,0.0,0.0,0.0,0.0,0.0,0.0,0.0,0.0,0.0,0.0,0.0,0.0,0.0,0.0,0.0,0.0,0.0,0.0,0.0,0.0,0.0,0.0,0.0,0.0,0.0,0.0,0.0,0.0,0.0,0.0,0.0,0.0,0.0,0.0,0.0,0.0,0.0,0.0,0.0,0.0,-1.0319,-0.8652,-0.5642,-0.4042,-0.4059,-0.6184,-0.7544,-0.795,-0.9781,-1.1603,0.0,0.0,0.0,0.0,0.0,0.0,0.0,0.0,0.0,0.0,0.0,0.0,0.0,0.0,0.0,0.0,0.0,0.0,0.0,0.0,0.0,0.0,0.0,0.0,0.0,0.0,0.0,0.0,0.0,0.0,0.0,0.0,0.0,0.0,0.0,0.0,0.0,0.0,0.0,0.0,0.0,-0.7063,-0.8426,-0.926,-1.0417,0.0,-1.3286,-1.3949,-1.4578,-1.5608,-1.652,-1.7115,0.0,0.0,0.0,0.0,0.0,0.0,0.0,0.0,0.0,0.0,0.0,0.0,0.0,0.0,0.0,0.0,0.0,0.0,0.0,0.0,0.0,0.0,0.0,0.0,0.0,0.0,0.0,0.0,0.0,0.0,0.0,0.0,0.0,0.0,0.0,0.0,0.0,0.0,0.0,0.0,0.0,0.0,0.0,0.0,0.0,0.0,0.0,0.0,0.0,0.0,0.0,0.0,0.0,-1.1792,-1.1514,-0.7259,-0.5468,-0.62,-0.7139,-0.816,-0.9307,-1.0365,-1.1761,0.0,0.0,0.0,0.0,0.0,0.0,0.0,0.0,0.0,0.0,0.0,0.0,0.0,0.0,0.0,0.0,0.0,0.0,0.0,0.0,0.0,0.0,0.0,0.0,0.0,0.0,0.0,0.0,-2.2412,-2.2989,-2.3463,0.0,0.0,0.0,0.0,0.0,0.0,0.0,0.0,0.0,0.0,-0.8318,-0.8688,-1.001,0.0,0.0,-1.3864,-1.4616,-1.5594,-1.6398,-1.7228,-1.818,-2.0072,0.0,0.0,0.0,0.0,0.0,0.0,0.0,0.0,0.0,0.0,0.0,0.0,0.0,0.0,0.0,0.0,0.0,0.0,0.0,0.0,0.0,0.0,0.0,0.0,0.0,0.0,0.0,0.0,0.0,0.0,0.0,0.0,0.0,0.0,0.0,0.0,0.0,0.0,0.0,0.0,0.0,0.0,0.0,0.0,0.0,0.0,0.0,0.0,0.0,0.0,0.0,0.0,-1.3089,-1.3333,-0.8782,-0.6833,-0.7608,-0.8317,-0.92,-1.0176,-1.0956,-1.213,0.0,0.0,0.0,0.0,0.0,0.0,0.0,0.0,0.0,0.0,0.0,0.0,0.0,0.0,0.0,0.0,0.0,0.0,0.0,0.0,0.0,0.0,0.0,0.0,0.0,0.0,0.0,0.0,-2.3163,-2.371,-2.47,0.0,0.0,0.0,0.0,0.0,0.0,0.0,0.0,0.0,0.0,-0.9832,-0.9666,-1.0901,-1.2339,-1.3947,-1.4549,-1.5367,-1.6735,-1.7541,-1.8349,-1.948,0.0,0.0,0.0,0.0,0.0,0.0,0.0,0.0,0.0,0.0,0.0,0.0,0.0,0.0,0.0,0.0,0.0,0.0,0.0,0.0,0.0,0.0,0.0,0.0,0.0,0.0,0.0,-2.2272,0.0,0.0,-2.1917,0.0,0.0,0.0,0.0,0.0,0.0,0.0,0.0,0.0,0.0,0.0,0.0,0.0,0.0,0.0,0.0,0.0,0.0,0.0,0.0,0.0,0.0,-1.4258,-1.3784,-1.0355,-0.8323,-0.7767,-0.9985,-1.0874,-1.0346,-1.1662,-1.2888,-1.3854,0.0,0.0,0.0,0.0,0.0,0.0,0.0,0.0,0.0,0.0,0.0,0.0,0.0,0.0,0.0,0.0,0.0,0.0,0.0,0.0,0.0,0.0,0.0,0.0,0.0,0.0,-2.3272,-2.298,-2.3285,0.0,0.0,0.0,0.0,0.0,0.0,0.0,0.0,0.0,-1.2556,-1.1865,-1.1511,-1.1688,-1.1773,-1.2744,-1.5137,-1.5484,-1.6131,-1.7891,-1.9051,-2.0007,0.0,0.0,0.0,0.0,0.0,0.0,0.0,0.0,0.0,0.0,0.0,0.0,0.0,0.0,0.0,0.0,0.0,0.0,0.0,0.0,0.0,0.0,0.0,0.0,0.0,0.0,0.0,-2.3552,-2.3626,0.0,0.0,0.0,0.0,0.0,0.0,0.0,0.0,0.0,0.0,0.0,-2.1414,-2.144,0.0,0.0,0.0,0.0,0.0,0.0,0.0,0.0,0.0,0.0,0.0,0.0,-1.5312,-1.4678,-1.1716,-1.0258,-1.0604,-1.1066,-1.159,-1.2244,-1.2681,-1.3767,-1.5607,0.0,0.0,0.0,0.0,0.0,0.0,0.0,0.0,0.0,0.0,0.0,0.0,0.0,0.0,0.0,0.0,0.0,0.0,0.0,0.0,0.0,0.0,0.0,0.0,0.0,-2.2801,0.0,0.0,0.0,0.0,0.0,0.0,0.0,0.0,0.0,0.0,0.0,-1.3298,-1.2008,-1.2161,-1.2373,-1.2291,-1.3072,-1.4354,0.0,0.0,0.0,0.0,0.0,0.0,0.0,0.0,0.0,0.0,0.0,0.0,0.0,0.0,-2.6394,-2.4917,-2.4384,-2.4093,-2.3884,0.0,0.0,0.0,0.0,0.0,0.0,0.0,0.0,0.0,0.0,0.0,0.0,0.0,0.0,-2.4244,0.0,-2.3695,0.0,0.0,0.0,0.0,0.0,0.0,0.0,0.0,-2.1591,-2.1621,-2.2036,-2.2043,-2.2163,0.0,-2.2604,-2.2786,0.0,0.0,0.0,0.0,0.0,0.0,0.0,0.0,-1.6472,-1.5567,-1.3092,-1.2003,-1.2411,-1.2652,-1.3044,-1.3538,-1.3685,-1.4727,-1.6708,-1.7891,-1.9332,0.0,0.0,0.0,0.0,0.0,0.0,0.0,0.0,0.0,0.0,0.0,0.0,0.0,0.0,0.0,0.0,0.0,0.0,0.0,0.0,0.0,0.0,0.0,-2.2409,0.0,0.0,0.0,0.0,0.0,0.0,0.0,0.0,0.0,-1.6878,-1.5353,-1.418,-1.3635,-1.3976,-1.4291,-1.4144,0.0,0.0,0.0,0.0,0.0,0.0,0.0,-2.1484,-2.3138,-2.3935,-2.4949,-2.667,-2.7309,-2.7473,-2.7025,0.0,0.0,-2.5683,-2.525,-2.5052,-2.5032,-2.4858,-2.4765,-2.4985,-2.4874,-2.4512,0.0,0.0,0.0,0.0,0.0,0.0,0.0,0.0,-2.5405,-2.493,0.0,-2.4248,0.0,0.0,0.0,0.0,0.0,-2.2667,0.0,0.0,-2.1894,-2.2088,-2.2685,-2.2733,-2.3011,-2.3572,-2.3565,-2.3301,-2.2784,-2.3218,0.0,0.0,0.0,0.0,0.0,0.0,-1.7659,-1.6283,-1.4637,-1.3552,-1.3223,-1.477,-1.5098,-1.4143,-1.4768,-1.5782,-1.7076,-1.7964,-1.94,-2.1371,-2.2049,0.0,0.0,0.0,0.0,0.0,0.0,0.0,0.0,0.0,0.0,0.0,0.0,0.0,0.0,0.0,0.0,0.0,0.0,0.0,0.0,-2.2529,0.0,0.0,0.0,0.0,0.0,0.0,0.0,0.0,0.0,0.0,-1.8572,-1.6998,-1.6319,-1.7217,0.0,0.0,0.0,0.0,-1.6894,-1.807,-1.8719,-1.9512,-2.0654,-2.1808,-2.3028,-2.4502,0.0,0.0,-2.7339,-2.7545,-2.758,-2.756,-2.7602,-2.7567,-2.7537,-2.6991,-2.6786,-2.731,-2.6879,-2.6789,-2.726,-2.6661,-2.6162,-2.4926,0.0,0.0,0.0,0.0,-2.7044,-2.7176,-2.7707,-2.7013,-2.6836,-2.7031,-2.6454,0.0,0.0,0.0,0.0,0.0,0.0,-2.2547,-2.2575,-2.2478,-2.2738,-2.3308,-2.3327,-2.3423,-2.3595,-2.3595,-2.3505,-2.3383,-2.3869,-2.3608,-2.2639,0.0,0.0,0.0,0.0,-1.8658,-1.7496,-1.6197,-1.5684,-1.5983,-1.6101,-1.5978,-1.5506,-1.6144,-1.6819,-1.7504,-1.8549,-1.9736,-2.1061,-2.1811,0.0,0.0,0.0,0.0,0.0,0.0,0.0,0.0,0.0,0.0,0.0,0.0,0.0,0.0,0.0,0.0,0.0,0.0,0.0,-2.096,-2.0157,-1.9991,0.0,0.0,0.0,0.0,0.0,0.0,0.0,0.0,0.0,-2.0506,-1.921,-1.8161,0.0,0.0,-1.8122,-1.7768,-1.8403,-1.9164,-1.9791,-2.0481,0.0,-2.1937,-2.2419,-2.325,-2.5005,-2.582,-2.6572,-2.7432,-2.7186,-2.7028,-2.7528,-2.7567,-2.7567,-2.756,-2.7432,-2.7235,-2.6946,-2.6714,-2.6475,-2.6213,-2.6004,-2.5697,-2.6262,-2.7004,-2.7295,-2.7846,-2.8456,-2.804,-2.7976,-2.8125,-2.7738,-2.772,-2.7965,-2.7569,-2.714,-2.6666,-2.5707,0.0,0.0,0.0,-2.3585,-2.3669,-2.3495,-2.3591,-2.3889,-2.3705,-2.3595,-2.3602,-2.3794,-2.3914,-2.3914,-2.447,-2.4299,-2.3484,0.0,0.0,-2.1744,-2.0656,-1.9534,-1.8408,-1.7471,-1.7196,-1.7562,-1.718,-1.7033,-1.7144,-1.7265,-1.7663,-1.8351,-1.9055,-1.9972,-2.118,-2.1782,-2.2505,0.0,0.0,0.0,0.0,0.0,0.0,0.0,0.0,0.0,0.0,0.0,-2.5918,-2.5886,0.0,0.0,0.0,-2.3763,-2.2253,-2.0471,-2.037,0.0,0.0,0.0,0.0,0.0,0.0,0.0,-2.5005,-2.3868,-2.281,-2.2291,-2.1698,-2.0795,-1.9361,-1.9403,-1.963,-1.9746,0.0,-2.0746,-2.1002,-2.1632,-2.2204,-2.2555,-2.2903,-2.3611,-2.5191,-2.6029,-2.6734,-2.7303,-2.7126,-2.7008,-2.7342,-2.7463,-2.7425,-2.7455,-2.7445,-2.7281,-2.6688,-2.637,-2.6104,-2.5924,-2.5705,-2.5424,-2.6989,-2.811,-2.8221,-2.8544,-2.8975,-2.9011,-2.8577,-2.7899,-2.7882,-2.7874,-2.7917,-2.7882,-2.7495,-2.67,-2.5578,0.0,-2.5351,-2.5289,-2.5219,-2.5176,-2.4676,-2.4477,-2.444,-2.398,-2.3716,-2.3752,-2.4241,-2.4463,-2.4502,-2.4998,-2.5246,-2.5256,-2.477,-2.3853,-2.2469,-2.1519,-2.0415,-1.9102,-1.8591,-1.832,-1.8281,-1.8133,-1.8264,-1.8721,-1.8152,-1.8328,-1.9379,-1.9474,-2.0154,-2.1562,-2.1955,-2.2478,-2.3218,0.0,0.0,0.0,0.0,0.0,0.0,0.0,0.0,0.0,0.0,0.0,0.0,0.0,0.0,0.0,-2.3409,0.0,-2.1579,-2.2267,0.0,0.0,0.0,-2.3984,-2.4769,-2.4732,-2.472,-2.4856,0.0,0.0,-2.3747,-2.3975,-2.3514,-2.1568,-2.1153,-2.1397,-2.2491,-2.2123,-2.1876,-2.1872,-2.2373,-2.2768,-2.283,-2.3363,-2.419,-2.5322,-2.5986,-2.6593,-2.7089,-2.7076,-2.7128,-2.7217,-2.7176,-2.7209,-2.7179,-2.7184,-2.7013,-2.6614,-2.6103,-2.5811,-2.6122,-2.5753,-2.5511,-2.7071,-2.7454,-2.8385,-2.8884,-2.8975,-2.9011,-2.8873,-2.8704,-2.8695,-2.8704,-2.8695,-2.8712,-2.8273,-2.7502,-2.7212,-2.662,-2.5852,-2.5807,-2.5584,-2.5211,-2.506,-2.5028,-2.5013,-2.4871,-2.4831,-2.4816,-2.4934,-2.4981,-2.5028,-2.5563,-2.5813,-2.5794,-2.5686,-2.4737,-2.3012,-2.2683,-2.1901,-2.0516,-2.0392,-2.0139,-1.9798,-1.9452,-1.9259,-1.9239,-1.9069,-1.9279,-1.9828,-2.0162,-2.0817,-2.1913,-2.2352,-2.2935,-2.3762,-2.4117,0.0,0.0,0.0,0.0,0.0,0.0,0.0,0.0,0.0,-2.7416,-2.6533,0.0,-2.6406,0.0,-2.4231,-2.2798,-2.1885,-2.244,0.0,0.0,-2.4353,-2.5031,-2.6669,-2.6426,-2.6132,-2.6131,-2.5769,-2.5043,-2.3824,-2.3294,-2.2836,-2.238,-2.2608,-2.2807,-2.2716,-2.2955,-2.315,-2.3142,-2.3237,-2.3375,-2.3442,-2.4281,-2.5197,-2.5915,-2.6157,-2.6478,-2.7087,-2.6794,-2.6573,-2.7093,-2.7203,-2.72,-2.7171,-2.6817,-2.6469,-2.6305,-2.6167,-2.5934,-2.5568,-2.5354,-2.529,-2.6914,-2.6991,-2.7668,-2.7977,-2.7985,-2.8315,-2.8264,-2.796,-2.7977,-2.8146,-2.8476,-2.845,-2.8416,-2.829,-2.763,-2.7128,-2.6764,-2.6455,-2.6131,-2.5855,-2.5644,-2.5578,-2.5533,-2.5301,-2.5229,-2.5221,-2.5449,-2.5532,-2.5569,-2.6063,-2.6285,-2.6297,-2.6337,-2.5611,-2.4248,-2.3473,-2.2575,-2.1495,-2.1183,-2.0894,-2.0616,-2.0405,-2.0226,-2.0137,-2.0122,-2.0297,-2.0683,-2.0939,-2.1436,-2.2327,-2.2729,-2.3218,-2.3837,-2.4287,-2.4806,0.0,0.0,0.0,0.0,0.0,0.0,0.0,0.0,0.0,0.0,0.0,-2.6958,-2.5783,-2.4667,-2.3859,-2.3592,-2.4417,-2.5332,-2.6351,-2.6604,-2.7164,-2.8284,-2.7768,-2.727,-2.702,-2.6335,-2.5446,-2.4261,-2.3732,-2.3486,-2.3466,-2.3718,-2.3703,-2.3231,-2.3421,-2.3595,-2.3595,-2.3785,-2.4071,-2.4284,-2.4869,-2.5495,-2.599,-2.6101,-2.6286,-2.6863,-2.6678,-2.6536,-2.6904,-2.6953,-2.6965,-2.6944,-2.67,-2.641,-2.6429,-2.6405,-2.6212,-2.5696,-2.5569,-2.5606,-2.67,-2.67,-2.67,-2.67,-2.6759,-2.7393,-2.73,-2.67,-2.67,-2.7063,-2.7646,-2.7637,-2.8044,-2.863,-2.7283,-2.7063,-2.7587,-2.6987,-2.67,-2.6666,-2.627,-2.6112,-2.6093,-2.5607,-2.5403,-2.5395,-2.5888,-2.6077,-2.6112,-2.6513,-2.67,-2.67,-2.67,-2.6387,-2.5711,-2.4255,-2.3066,-2.2126,-2.1424,-2.1063,-2.1055,-2.1023,-2.1031,-2.1063,-2.1095,-2.1298,-2.1731,-2.1752,-2.2124,-2.2928,-2.3267,-2.3625,-2.4088,-2.4754,-2.5417,0.0,-2.6608,0.0,0.0,0.0,0.0,0.0,0.0,0.0,0.0,-2.8695,-2.7746,-2.5732,-2.5381,-2.5402,-2.5893,-2.7019,-2.7961,-2.856,-2.9082,-2.9361,-2.9265,-2.8705,-2.8027,-2.7425,-2.6768,-2.5932,-2.4819,-2.4656,-2.4618,-2.4513,-2.4486,-2.4346,-2.3929,-2.3849,-2.3897,-2.3793,-2.4122,-2.4463,-2.5045,-2.5163,-2.5381,-2.5928,-2.6137,-2.6235,-2.6623,-2.6691,-2.6708,-2.6716,-2.6733,-2.6708,-2.67,-2.67,-2.6691,-2.6674,-2.659,-2.6404,-2.6158,-2.6085,-2.6227,-2.67,-2.67,-2.67,-2.67,-2.6708,-2.6843,-2.6818,-2.67,-2.67,-2.6776,-2.6911,-2.6903,-2.6996,-2.7097,-2.6826,-2.6759,-2.6903,-2.6759,-2.67,-2.67,-2.6624,-2.6548,-2.6573,-2.6479,-2.6419,-2.6428,-2.6547,-2.6573,-2.659,-2.6649,-2.67,-2.67,-2.67,-2.6632,-2.6454,0.0,0.0,0.0,-2.1749,-2.1499,-2.146,-2.115,-2.115,-2.1469,-2.1499,0.0,-2.245,-2.2495,-2.3127,-2.4381,-2.4545,0.0,0.0,0.0,0.0,0.0,0.0,0.0,0.0,0.0,0.0,0.0,-2.8211,-2.839,-2.9218,-2.9712,-2.9357,-2.7819,-2.8148,-2.8305,-2.7914,-2.8597,-2.9074,-2.921,-2.9316,-2.918,-2.8614,-2.841,-2.7852,-2.6577,-2.6318,-2.5942,-2.5219,-2.51,-2.5069,-2.5051,-2.5051,-2.5028,-2.4942,-2.4872,-2.4862,-2.4863,-2.4537,-2.4646,-2.5683,-2.5324,-2.5392,-2.6235,-2.659,-2.659,-2.6657,-2.67,-2.67,-2.6708,-2.67,-2.6708,-2.6733,-2.67,-2.6758,-2.67,-2.6234,-2.5956,-2.6455,-2.6581,-2.659,-2.67,0.0,-2.67,-2.67,0.0,-2.67,-2.67,-2.67,-2.67,-2.67,-2.67,-2.67,-2.67,-2.67,-2.67,-2.67,-2.67,-2.67,-2.67,-2.67,-2.67,-2.6821,-2.6968,-2.6805,-2.6898,-2.7264,-2.7092,-2.7004,-2.6995,-2.721,-2.7184,-2.7021,-2.7192,-2.7284,-2.7259,-2.6312,-2.4955,-2.3144,-2.2352,-2.2019,-2.2139,-2.1943,-2.2003,-2.2388,-2.2379,0.0,0.0,0.0,0.0,0.0,0.0,0.0,0.0,0.0,0.0,-2.8107,-2.8358,-2.8626,-2.8897,-2.8806,-2.886,-2.9174,-2.977,-3.0123,-3.0119,-3.0481,-3.0421,-2.9654,-2.9674,-2.9483,-2.899,-2.9658,-3.0076,-2.9892,-3.0268,-3.022,-2.9329,-2.8857,-2.815,-2.6875,-2.6291,-2.5876,-2.5275,-2.5229,-2.5335,-2.5532,-2.5623,-2.5689,-2.5852,-2.5493,-2.5264,-2.5525,-2.5324,-2.5337,-2.6082,-2.6056,-2.5865,-2.6573,-2.67,-2.67,-2.67,-2.67,-2.6733,-2.6945,-2.6995,-2.7036,-2.7236,-2.7295,-2.7295,-2.7225,-2.6667,-2.6268,-2.6619,-2.6416,-2.615,-2.67,-2.67,-2.67,-2.67,-2.6691,-2.6783,-2.6841,-2.6906,0.0,0.0,0.0,-2.67,-2.6758,-2.6808,-2.6816,-2.6841,-2.6906,-2.6898,-2.69,-2.6919,-2.691,-2.7066,-2.7366,-2.7085,-2.726,-2.7869,-2.756,-2.7378,-2.7418,-2.7745,-2.7721,-2.7459,-2.7768,-2.792,-2.7877,-2.648,-2.5288,-2.4366,-2.3116,-2.2554,-2.2763,-2.2797,-2.2905,-2.3189,-2.3189,-2.3555,-2.4242,-2.4417,-2.5022,-2.6168,-2.6372,-2.6741,-2.7345,-2.7589,-2.8091,-2.8945,-2.9212,-2.9619,-3.0275,-3.0127,-3.0051,-3.0164,-3.1407,-3.1808,-3.093,-3.1264,-3.1452,-3.1273,-3.0738,-3.0335,-2.9982,-3.0677,-3.104,-3.0737,-3.1307,-3.127,-3.0218,-2.9458,-2.8507,-2.7352,-2.6614,-2.6056,-2.5595,-2.5532,-2.5533,-2.5848,-2.6013,-2.6262,-2.6496,-2.5862,-2.5436,-2.5739,-2.5454,-2.563,-2.6311,-2.626,-2.6404,-2.6607,-2.67,-2.6674,-2.6629,-2.6604,-2.6698,-2.6775,-2.7062,-2.7289,-2.7595,-2.7726,-2.7876,-2.789,-2.7135,-2.6489,-2.6416,-2.5886,-2.5487,-2.67,-2.67,-2.67,-2.67,-2.6725,-2.7051,-2.7409,-2.7657,-2.6995,-2.67,-2.67,-2.67,-2.6906,-2.7192,-2.7201,-2.7426,-2.7716,-2.7716,-2.7753,-2.775,-2.7728,-2.7756,-2.7826,-2.775,-2.7776,-2.7888,-2.784,-2.7811,-2.7831,-2.7906,-2.7867,-2.7836,-2.7886,-2.8037,-2.8219,-2.7184,-2.6347,-2.5781,-2.4022,-2.3087,-2.3126,-2.3126,-2.315,-2.3189,-2.3212,-2.3382,-2.379,-2.4487,-2.5439,-2.6719,-2.7464,-2.8259,-2.9219,-2.9447,-2.9679,-2.9832,-3.0081,-3.0186,-3.0075,-3.0023,-3.0262,-3.0828,-3.1684,-3.1863,-3.1167,-3.2401,-3.2975,-3.2364,-3.2143,-3.2117,-3.2083,-3.2169,-3.2195,-3.2127,-3.1685,-3.1047,-3.0257,-2.9472,-2.8536,-2.7428,-2.7207,-2.6911,-2.6487,-2.6436,-2.6218,-2.5908,-2.6202,-2.6632,-2.6556,-2.6042,-2.5614,-2.5461,-2.4548,-2.4437,-2.5466,-2.5203,-2.5473,-2.6514,-2.6682,-2.6601,-2.6381,-2.6251,-2.617,-2.5857,-2.6418,-2.6785,-2.6903,-2.7429,-2.7798,-2.7825,-2.6828,-2.587,-2.5833,-2.5191,-2.4892,-2.6808,-2.7036,-2.7027,-2.7147,-2.7356,-2.7547,-2.7725,-2.7851,-2.7534,-2.7326,-2.7339,-2.7356,-2.7455,-2.7628,-2.7628,-2.7716,-2.7888,-2.7888,-2.7903,-2.7879,-2.7894,-2.801,-2.8142,-2.7983,-2.8092,-2.8455,-2.8273,-2.8192,-2.8183,-2.8386,-2.8398,-2.8205,-2.8407,-2.8583,-2.8637,-2.7804,-2.7215,-2.6973,-2.4933,-2.3718,-2.3477,-2.3468,-2.3566,-2.3735,-2.3735,-2.4078,-2.4769,-2.5551,-2.6533,-2.7658,-2.851,-2.9237,-2.9833,-2.9945,-3.0075,-3.0209,-3.0333,-3.0345,-3.0222,-3.0228,-3.0556,-3.1336,-3.2127,-3.2593,-3.2567,-3.3404,-3.3703,-3.3158,-3.296,-3.2786,-3.255,-3.2722,-3.2786,-3.2508,-3.2,-3.1255,-3.0328,-2.9464,-2.8557,-2.7522,-2.7302,-2.7131,-2.6733,-2.67,-2.6607,-2.6268,-2.653,-2.6691,-2.6683,-2.6068,-2.5774,-2.6027,-2.5285,-2.4961,-2.5478,-2.5355,-2.5414,-2.6031,-2.6245,-2.6476,-2.6575,-2.6312,-2.6,-2.6311,-2.6434,-2.6417,-2.6577,-2.7305,-2.7736,-2.7728,-2.6956,-2.6202,-2.5995,-2.5299,-2.4938,-2.7155,-2.7418,-2.7439,-2.7657,-2.8001,-2.802,-2.8056,-2.812,-2.8155,-2.8138,-2.813,-2.7987,-2.7951,-2.802,-2.8001,-2.8056,-2.8147,-2.8147,-2.8156,-2.8138,-2.8156,-2.8295,-2.8479,-2.8274,-2.8462,-2.8924,-2.869,-2.8518,-2.8583,-2.8839,-2.8852,-2.8613,-2.8914,-2.911,-2.908,-2.8522,-2.8128,-2.7858,-2.6209,-2.4946,-2.4199,-2.4333,-2.4481,-2.4607,-2.4801,-2.5272,-2.6056,-2.682,-2.7655,-2.8461,-2.93,-2.9861,-3.0075,-3.0089,-3.0182,-3.0367,-3.0408,-3.0427,-3.0448,-3.0458,-3.09,-3.1961,-3.2571,-3.3282,-3.4092,-3.4319,-3.4228,-3.3781,-3.3496,-3.3175,-3.2934,-3.3105,-3.3175,-3.2818,-3.2211,-3.1491,-3.0566,-2.9606,-2.8618,-2.7642,-2.7414,-2.7258,-2.6843,-2.67,-2.6683,-2.6674,-2.6572,-2.6504,-2.6581,-2.6177,-2.616,-2.6311,-2.5968,-2.5291,-2.537,-2.5507,-2.5598,-2.5705,-2.6127,-2.6506,-2.6723,-2.6135,-2.5758,-2.624,-2.6111,-2.5993,-2.6301,-2.6958,-2.74,-2.7391,-2.6731,-2.6185,-2.5825,-2.5225,-2.4923,-2.7803,-2.784,-2.7831,-2.8038,-2.8342,-2.8359,-2.854,-2.8848,-2.8878,-2.8919,-2.8797,-2.817,-2.8084,-2.8324,-2.8359,-2.8549,-2.8839,-2.8896,-2.8881,-2.8872,-2.8905,-2.8919,-2.8911,-2.8893,-2.8929,-2.8984,-2.8956,-2.8923,-2.8943,-2.8994,-2.897,-2.8984,-2.9229,-2.9345,-2.9357,-2.9448,-2.9154,-2.8454,-2.822,-2.727,-2.568,-2.6233,-2.6352,-2.5847,-2.6604,-2.7053,-2.7126,-2.7912,-2.8471,-2.8798,-2.9536,-3.0099,-3.0321,-3.0345,-3.0376,-3.0398,-3.0467,-3.0525,-3.0573,-3.0583,-3.1263,-3.2837,-3.2968,-3.3655,-3.5129,-3.5133,-3.4756,-3.4251,-3.3891,-3.3707,-3.3707,-3.3716,-3.3716,-3.3552,-3.2356,-3.14,-3.1095,-2.9941,-2.8691,-2.7946,-2.7802,-2.7538,-2.686,-2.67,-2.67,-2.6691,-2.6274,-2.6183,-2.6647,-2.6666,-2.6615,-2.6488,-2.563,-2.4874,-2.485,-2.5186,-2.5627,-2.604,-2.6649,-2.672,-2.6321,-2.6014,-2.58,-2.5315,-2.5161,-2.5436,-2.5617,-2.6144,-2.6682,-2.6649,-2.6098,-2.5355,-2.4676,-2.4402,-2.4668,-2.8037,-2.8192,-2.8192,-2.8412,-2.8716,-2.874,-2.8839,-2.8984,-2.8984,-2.8984,-2.8984,-2.8685,-2.8637,-2.874,-2.8749,-2.8858,-2.8994,-2.8984,-2.8984,-2.8984,-2.8984,-2.8984,-2.8984,-2.8984,-2.8984,-2.9026,-2.9145,-2.9237,-2.9246,-2.936,-2.9431,-2.9425,-2.9522,-2.9568,-2.9589,-2.9661,-2.9525,-2.9223,-2.9217,-2.8642,-2.7629,-2.7269,-2.7032,-2.683,-2.7104,-2.7346,-2.7533,-2.8255,-2.8755,-2.9008,-2.9784,-3.0289,-3.0398,-3.0417,-3.0467,-3.0467,-3.0525,-3.0565,-3.0603,-3.0613,-3.1117,-3.2369,-3.2849,-3.3634,-3.4695,-3.5014,-3.5021,-3.4775,-3.4467,-3.4339,-3.4307,-3.433,-3.4246,-3.3877,-3.2592,-3.1567,-3.1393,-2.998,-2.8709,-2.8017,-2.7881,-2.7614,-2.6928,-2.67,-2.67,-2.6683,-2.6418,-2.65,-2.6961,-2.706,-2.717,-2.7284,-2.6856,-2.6251,-2.5704,-2.5464,-2.5671,-2.5732,-2.5782,-2.5633,-2.5985,-2.5279,-2.4837,-2.4841,-2.4807,-2.4762,-2.4675,-2.5317,-2.5878,-2.5814,-2.5731,-2.5164,-2.4346,-2.4199,-2.4489,-2.8334,-2.8565,-2.8646,-2.8832,-2.9102,-2.9163,-2.9185,-2.9194,-2.9185,-2.9185,-2.9185,-2.9185,-2.9194,-2.9172,-2.9067,-2.904,-2.9121,-2.9112,-2.914,-2.9187,-2.9205,-2.92,-2.9203,-2.9185,-2.9175,-2.9218,-2.9375,-2.9471,-2.9495,-2.9615,-2.9695,-2.9707,-2.9749,-2.9772,-2.9787,-2.9838,-2.988,-2.9905,-2.989,-2.9663,-2.9192,-2.8532,-2.8044,-2.7852,-2.804,-2.8217,-2.8367,-2.8928,-2.9305,-2.9477,-3.0092,-3.0436,-3.0448,-3.0496,-3.0525,-3.0554,-3.0592,-3.0637,-3.0677,-3.0684,-3.106,-3.1915,-3.2765,-3.3558,-3.4284,-3.4962,-3.5283,-3.5251,-3.5091,-3.4927,-3.4703,-3.4703,-3.4581,-3.4272,-3.2828,-3.1726,-3.1439,-3.0035,-2.8755,-2.8166,-2.8056,-2.7814,-2.7229,-2.706,-2.7083,-2.7074,-2.7043,-2.7127,-2.7386,-2.7452,-2.7574,-2.7831,-2.7953,-2.7528,-2.6591,-2.6109,-2.5818,-2.5599,-2.5488,-2.5494,-2.5778,-2.4949,-2.4364,-2.4704,-2.441,-2.4272,-2.4373,-2.4821,-2.5124,-2.508,-2.5054,-2.4916,-2.4327,-2.4217,-2.4199,-2.8952,-2.9012,-2.9246,-2.9362,-2.9383,-2.957,-2.9651,-2.9615,-2.9643,-2.9651,-2.9643,-2.9643,-2.9661,-2.9616,-2.9209,-2.9156,-2.9362,-2.9392,-2.9465,-2.9609,-2.9623,-2.9653,-2.968,-2.9678,-2.9642,-2.9617,-2.9653,-2.9701,-2.9707,-2.9712,-2.9697,-2.9721,-2.9904,-2.9998,-3.0033,-3.0218,-3.0355,-3.0311,-3.0311,-3.0316,-3.029,-3.0223,-2.9752,-2.9144,-2.9788,-3.0112,-3.0203,-3.0261,-3.0311,-3.0342,-3.0417,-3.0506,-3.0518,-3.0564,-3.0621,-3.0694,-3.0693,-3.0746,-3.0849,-3.0928,-3.1279,-3.2119,-3.293,-3.3682,-3.4492,-3.5237,-3.5608,-3.567,-3.5599,-3.5356,-3.4879,-3.4813,-3.4754,-3.4559,-3.2953,-3.1934,-3.1755,-3.0114,-2.8948,-2.8458,-2.8318,-2.8103,-2.7809,-2.7823,-2.7736,-2.7754,-2.778,-2.7818,-2.7843,-2.787,-2.7906,-2.8032,-2.8125,-2.8025,-2.7032,-2.6712,-2.6477,-2.6206,-2.6022,-2.5728,-2.5549,-2.5282,-2.4887,-2.4548,-2.4337,-2.4208,-2.4208,-2.4254,-2.4373,-2.4401,-2.4428,-2.4254,-2.4236,-2.4208,-2.4199,-2.9446,-2.9446,-2.9542,-2.9598,-2.9607,-2.9661,-2.9687,-2.9687,-2.9687,-2.9687,-2.9687,-2.9704,-2.9687,-2.9696,-2.9523,-2.9485,-2.9598,-2.9579,-2.9636,-2.969,-2.969,-2.9696,-2.9699,-2.9698,-2.9696,-2.9723,-2.9814,-2.9971,-3.0135,-3.0138,-3.0142,-3.0155,-3.0212,-3.0247,-3.027,-3.0345,-3.0388,-3.0388,-3.0388,-3.0417,-3.0477,-3.0458,-3.0314,-3.0102,-3.0275,-3.0417,-3.0458,-3.0467,-3.0496,-3.0535,-3.0554,-3.0576,-3.0565,-3.0625,-3.0723,-3.0804,-3.0837,-3.084,-3.0947,-3.1416,-3.1836,-3.2226,-3.3457,-3.4228,-3.4678,-3.5331,-3.5788,-3.5734,-3.5708,-3.5541,-3.539,-3.5282,-3.5196,-3.4755,-3.3249,-3.198,-3.1513,-3.0178,-2.8856,-2.846,-2.8235,-2.8005,-2.7989,-2.7888,-2.7888,-2.7878,-2.7889,-2.8018,-2.8161,-2.8216,-2.8321,-2.8546,-2.8681,-2.8658,-2.8352,-2.7683,-2.7267,-2.6886,-2.6547,-2.5817,-2.5419,-2.4961,-2.4538,-2.4401,-2.4217,-2.4199,-2.4199,-2.4199,-2.4199,-2.4199,-2.4199,-2.4199,-2.4199,-2.4199,-2.4199,-2.9687,-2.9704,-2.9772,-2.9806,-2.9806,-2.9896,-2.9921,-2.9921,-2.9921,-2.9912,-2.9921,-2.9931,-2.9921,-2.9921,-2.9912,-2.9931,-2.9921,-2.9838,-2.9838,-2.9931,-2.9921,-2.9932,-2.9939,-2.9934,-2.9918,-2.9949,-3.007,-3.0238,-3.0374,-3.0388,-3.0388,-3.0388,-3.0408,-3.0427,-3.0417,-3.0448,-3.0477,-3.0467,-3.0467,-3.0487,-3.0535,-3.0535,-3.0552,-3.0577,-3.0504,-3.0487,-3.0525,-3.053,-3.0556,-3.0588,-3.063,-3.0646,-3.0697,-3.0746,-3.0796,-3.0889,-3.0918,-3.0863,-3.0898,-3.1398,-3.1816,-3.2139,-3.3369,-3.4277,-3.458,-3.5391,-3.5801,-3.581,-3.5766,-3.5737,-3.5649,-3.561,-3.5499,-3.5031,-3.3414,-3.2155,-3.1843,-3.018,-2.9053,-2.8658,-2.8465,-2.8317,-2.8264,-2.8264,-2.829,-2.8264,-2.8318,-2.8513,-2.8659,-2.8795,-2.8893,-2.9145,-2.9135,-2.9127,-2.8919,-2.8461,-2.7885,-2.7495,-2.6872,-2.608,-2.5394,-2.4861,-2.4419,-2.4272,-2.4209,-2.419,-2.4209,-2.4209,-2.4209,-2.4209,-2.4199,-2.4199,-2.4199,-2.4199,-2.4199,-2.9731,-2.9791,-2.9914,-3.0032,-3.0056,-3.0251,-3.0386,-3.0352,-3.0374,-3.034,-3.0337,-3.0374,-3.0349,-3.0364,-3.034,-3.0374,-3.0327,-3.0118,-3.0142,-3.0311,-3.0343,-3.0345,-3.0331,-3.0331,-3.034,-3.0362,-3.0396,-3.0405,-3.0417,-3.0417,-3.0417,-3.0427,-3.0477,-3.0489,-3.0489,-3.0629,-3.0675,-3.0725,-3.0804,-3.077,-3.065,-3.0814,-3.0858,-3.08,-3.082,-3.0845,-3.0739,-3.0648,-3.0604,-3.0625,-3.0665,-3.077,-3.0859,-3.0889,-3.0879,-3.0877,-3.0898,-3.084,-3.0733,-3.0905,-3.1477,-3.2081,-3.2872,-3.3984,-3.4775,-3.5459,-3.5918,-3.5967,-3.5922,-3.585,-3.5716,-3.5623,-3.5551,-3.5311,-3.3601,-3.2421,-3.186,-3.0309,-2.9012,-2.8998,-2.8962,-2.8994,-2.8984,-2.8962,-2.8952,-2.8989,-2.9126,-2.9241,-2.9287,-2.941,-2.9617,-2.963,-2.949,-2.939,-2.9292,-2.9118,-2.8553,-2.7974,-2.7246,-2.6502,-2.5862,-2.5293,-2.4704,-2.4484,-2.4303,-2.4284,-2.431,-2.4301,-2.4284,-2.4275,-2.4238,-2.4209,-2.4199,-2.4199,-2.4199,-3.0312,-3.0326,-3.0388,-3.0401,-3.0414,-3.0492,-3.0544,-3.0525,-3.0525,-3.0554,-3.0525,-3.0544,-3.0544,-3.0544,-3.0535,-3.0535,-3.0513,-3.0436,-3.041,-3.0398,-3.0398,-3.0398,-3.0408,-3.0458,-3.0487,-3.0535,-3.0544,-3.0535,-3.0527,-3.0525,-3.0535,-3.0544,-3.0575,-3.0568,-3.0639,-3.1146,-3.1493,-3.1571,-3.2103,-3.2405,-3.2465,-3.2442,-3.2474,-3.2516,-3.2532,-3.2538,-3.2484,-3.1338,-3.075,-3.0808,-3.082,-3.0858,-3.0898,-3.0918,-3.0859,-3.0783,-3.0773,-3.0732,-3.0813,-3.1729,-3.2444,-3.2995,-3.4139,-3.5063,-3.5444,-3.5737,-3.5957,-3.5996,-3.5945,-3.5843,-3.5729,-3.5644,-3.5565,-3.5488,-3.419,-3.2975,-3.2255,-3.0593,-2.9522,-2.9448,-2.937,-2.9344,-2.9436,-2.9456,-2.9446,-2.9444,-2.9548,-2.9601,-2.9608,-2.9682,-2.969,-2.9686,-2.9596,-2.9568,-2.9463,-2.9348,-2.8981,-2.8414,-2.7754,-2.6924,-2.6294,-2.5596,-2.5045,-2.4615,-2.4441,-2.4394,-2.4405,-2.4418,-2.4408,-2.4366,-2.4348,-2.4284,-2.4228,-2.4247,-2.4303,-3.0617,-3.0617,-3.0617,-3.0617,-3.0617,-3.0617,-3.0617,-3.0617,-3.0617,-3.0608,-3.0608,-3.0617,-3.0617,-3.0617,-3.0617,-3.0617,-3.0617,-3.0617,-3.0548,-3.0479,-3.0487,-3.0477,-3.0481,-3.052,-3.0566,-3.06,-3.0606,-3.0615,-3.0612,-3.0606,-3.0611,-3.0617,-3.0938,-3.114,-3.12,-3.1977,-3.2465,-3.2553,-3.2962,-3.3303,-3.3329,-3.334,-3.3355,-3.3375,-3.3381,-3.3389,-3.328,-3.2243,-3.1562,-3.1426,-3.1387,-3.123,-3.0927,-3.1396,-3.1592,-3.1273,-3.1414,-3.1497,-3.1267,-3.229,-3.3106,-3.3358,-3.4474,-3.5463,-3.5698,-3.5853,-3.5908,-3.5976,-3.5867,-3.5757,-3.569,-3.5603,-3.5545,-3.5493,-3.4466,-3.3315,-3.2143,-3.0842,-2.9923,-2.9765,-2.9576,-2.9588,-2.9651,-2.9687,-2.9687,-2.9698,-2.9767,-2.9811,-2.9833,-2.9916,-2.9934,-2.9915,-2.9858,-2.9787,-2.9643,-2.9492,-2.9344,-2.8852,-2.8273,-2.7402,-2.66,-2.5805,-2.5155,-2.469,-2.4438,-2.452,-2.4544,-2.4588,-2.4607,-2.4536,-2.4495,-2.4512,-2.4512,-2.4495,-2.4538,-3.0617,-3.0617,-3.0627,-3.0627,-3.0637,-3.0637,-3.0656,-3.0637,-3.0637,-3.0646,-3.0637,-3.0656,-3.0646,-3.0627,-3.0646,-3.0646,-3.0621,-3.0649,-3.0632,-3.0621,-3.0623,-3.0637,-3.0801,-3.0696,-3.0758,-3.0994,-3.0875,-3.0845,-3.1073,-3.1066,-3.0771,-3.107,-3.174,-3.2069,-3.2242,-3.2989,-3.3447,-3.3467,-3.3584,-3.371,-3.37,-3.365,-3.3642,-3.3661,-3.3691,-3.3698,-3.3653,-3.3375,-3.2888,-3.2285,-3.2031,-3.1672,-3.1275,-3.2337,-3.2555,-3.1859,-3.2634,-3.2387,-3.2093,-3.248,-3.3058,-3.3246,-3.4083,-3.4739,-3.5606,-3.5791,-3.585,-3.5967,-3.5797,-3.5675,-3.5672,-3.5593,-3.5488,-3.5277,-3.4443,-3.3171,-3.1504,-3.1104,-3.0604,-2.9969,-2.9737,-2.9738,-2.9789,-2.9789,-2.9789,-2.9815,-2.9921,-3.0009,-3.006,-3.0161,-3.0336,-3.0273,-3.0119,-2.9986,-2.9857,-2.974,-2.9486,-2.8728,-2.818,-2.738,-2.6551,-2.5752,-2.509,-2.4663,-2.4531,-2.4621,-2.4698,-2.4732,-2.4766,-2.4761,-2.4771,-2.4818,-2.4784,-2.471,-2.4695,-3.0743,-3.0813,-3.0832,-3.0832,-3.0821,-3.0823,-3.0813,-3.0813,-3.0811,-3.0792,-3.0821,-3.0823,-3.0793,-3.0823,-3.0803,-3.0821,-3.0796,-3.0803,-3.0822,-3.0812,-3.0717,-3.1083,-3.1362,-3.1004,-3.1385,-3.2335,-3.2002,-3.2077,-3.2617,-3.251,-3.2568,-3.2668,-3.2822,-3.3025,-3.3166,-3.3905,-3.4316,-3.4463,-3.5019,-3.5227,-3.5173,-3.5156,-3.5198,-3.5095,-3.5042,-3.5032,-3.498,-3.4492,-3.3455,-3.2109,-3.1971,-3.1904,-3.1628,-3.2079,-3.2259,-3.2039,-3.2045,-3.2109,-3.2,-3.251,-3.3202,-3.3928,-3.4705,-3.547,-3.5792,-3.5899,-3.5938,-3.5979,-3.5879,-3.5791,-3.5712,-3.5593,-3.5276,-3.4632,-3.4212,-3.3551,-3.2464,-3.1685,-3.0976,-3.0355,-3.0066,-3.0037,-3.0137,-3.0188,-3.0188,-3.0188,-3.0224,-3.027,-3.0279,-3.0283,-3.0388,-3.0388,-3.0283,-3.0177,-3.0062,-2.9951,-2.9498,-2.859,-2.784,-2.7026,-2.6188,-2.5361,-2.477,-2.4284,-2.458,-2.4738,-2.4801,-2.4854,-2.4905,-2.4965,-2.4923,-2.4892,-2.4832,-2.4775,-2.4804,-3.0711,-3.078,-3.078,-3.077,-3.077,-3.078,-3.077,-3.078,-3.078,-3.077,-3.078,-3.078,-3.077,-3.077,-3.077,-3.078,-3.0777,-3.0781,-3.0767,-3.0762,-3.0677,-3.115,-3.1744,-3.1748,-3.241,-3.3203,-3.2939,-3.2978,-3.3281,-3.3389,-3.3389,-3.3389,-3.375,-3.3906,-3.3913,-3.4732,-3.5163,-3.5205,-3.5639,-3.5858,-3.5823,-3.5814,-3.5772,-3.5698,-3.5689,-3.5582,-3.5107,-3.4615,-3.3737,-3.2744,-3.245,-3.2287,-3.1941,-3.2235,-3.233,-3.2253,-3.2263,-3.2273,-3.2369,-3.2987,-3.3695,-3.4345,-3.5205,-3.5728,-3.5886,-3.5943,-3.5955,-3.5981,-3.5878,-3.5813,-3.5717,-3.5416,-3.4926,-3.4445,-3.4007,-3.341,-3.2545,-3.1868,-3.1232,-3.0676,-3.0366,-3.0305,-3.0475,-3.0477,-3.0477,-3.0475,-3.0422,-3.0434,-3.0424,-3.0417,-3.0398,-3.0398,-3.0379,-3.0263,-2.9942,-2.9731,-2.927,-2.8407,-2.7242,-2.6452,-2.5736,-2.4977,-2.4709,-2.4429,-2.467,-2.4841,-2.492,-2.5015,-2.5099,-2.5117,-2.5034,-2.5009,-2.4984,-2.4932,-2.4945,-3.0584,-3.061,-3.061,-3.0604,-3.062,-3.0614,-3.0639,-3.0604,-3.0623,-3.063,-3.063,-3.062,-3.0639,-3.061,-3.0649,-3.062,-3.061,-3.0639,-3.0603,-3.0714,-3.0925,-3.1542,-3.2199,-3.2555,-3.3184,-3.3711,-3.3623,-3.3652,-3.3848,-3.3789,-3.3682,-3.3935,-3.4492,-3.4697,-3.4708,-3.5313,-3.5654,-3.5556,-3.5228,-3.5298,-3.5311,-3.5259,-3.5085,-3.5069,-3.5062,-3.4783,-3.4308,-3.3997,-3.3619,-3.3029,-3.3056,-3.2499,-3.1941,-3.2557,-3.275,-3.2631,-3.2535,-3.2602,-3.2942,-3.351,-3.4246,-3.4622,-3.5415,-3.5894,-3.592,-3.5921,-3.5947,-3.5996,-3.585,-3.5749,-3.5524,-3.4964,-3.4388,-3.3957,-3.3367,-3.268,-3.1968,-3.1759,-3.1494,-3.0744,-3.059,-3.06,-3.0609,-3.0609,-3.0601,-3.0559,-3.053,-3.0518,-3.0504,-3.0496,-3.0458,-3.0417,-3.039,-3.0342,-2.991,-2.9452,-2.8843,-2.8098,-2.6698,-2.5735,-2.5167,-2.4653,-2.4651,-2.465,-2.4805,-2.495,-2.5091,-2.518,-2.5263,-2.5253,-2.5171,-2.5213,-2.5264,-2.518,-2.5149,-3.0547,-3.0605,-3.0605,-3.0605,-3.0605,-3.0615,-3.0595,-3.0576,-3.0585,-3.0557,-3.0596,-3.0596,-3.0596,-3.0596,-3.0587,-3.0615,-3.0577,-3.0577,-3.0576,-3.071,-3.2102,-3.2598,-3.2745,-3.2635,-3.3389,-3.4468,-3.4513,-3.461,-3.4989,-3.5019,-3.5188,-3.5169,-3.5171,-3.5465,-3.5403,-3.4982,-3.5123,-3.5343,-3.4486,-3.4152,-3.4415,-3.4056,-3.3769,-3.3689,-3.3641,-3.3478,-3.3276,-3.3179,-3.2804,-3.2237,-3.1987,-3.1837,-3.1811,-3.1869,-3.2006,-3.2073,-3.2035,-3.2249,-3.2813,-3.3251,-3.3965,-3.5061,-3.5474,-3.5928,-3.5986,-3.5967,-3.5976,-3.6006,-3.5944,-3.5636,-3.5031,-3.4688,-3.3881,-3.2955,-3.237,-3.1874,-3.1269,-3.1478,-3.1367,-3.087,-3.0625,-3.0615,-3.0615,-3.0625,-3.0625,-3.0615,-3.0605,-3.0586,-3.0569,-3.0564,-3.0525,-3.0467,-3.0206,-3.0071,-2.9579,-2.8927,-2.8051,-2.7455,-2.6249,-2.5473,-2.4887,-2.4638,-2.4757,-2.4825,-2.4892,-2.5034,-2.5169,-2.5233,-2.5293,-2.5293,-2.5303,-2.5303,-2.5303,-2.5303,-2.5322,-3.0226,-3.019,-3.0171,-3.018,-3.018,-3.019,-3.0161,-3.018,-3.019,-3.0237,-3.0278,-3.0237,-3.0307,-3.0504,-3.0382,-3.0314,-3.0324,-3.0337,-3.0375,-3.0715,-3.1852,-3.2615,-3.3089,-3.3163,-3.3988,-3.5453,-3.5299,-3.5377,-3.5611,-3.5691,-3.56,-3.5664,-3.567,-3.5618,-3.5488,-3.478,-3.4626,-3.4645,-3.3776,-3.3279,-3.3484,-3.325,-3.2971,-3.291,-3.2862,-3.2721,-3.2196,-3.2148,-3.1632,-3.1021,-3.0796,-3.1111,-3.1456,-3.121,-3.1172,-3.1619,-3.1708,-3.1864,-3.2331,-3.2897,-3.3566,-3.4521,-3.5029,-3.5287,-3.5527,-3.5723,-3.6006,-3.5997,-3.5898,-3.5576,-3.467,-3.4058,-3.3201,-3.2237,-3.1544,-3.1148,-3.0885,-3.109,-3.1234,-3.0828,-3.0768,-3.0768,-3.0749,-3.069,-3.072,-3.0739,-3.0664,-3.0644,-3.0635,-3.0612,-3.0582,-3.0448,-3.0071,-2.9694,-2.9196,-2.8357,-2.7174,-2.652,-2.5761,-2.5364,-2.5103,-2.5008,-2.5016,-2.5018,-2.5022,-2.5082,-2.5182,-2.5253,-2.5313,-2.5303,-2.5303,-2.5303,-2.5313,-2.5322,-2.5341,-2.9852,-2.9677,-2.9687,-2.9687,-2.9687,-2.9713,-2.9731,-2.9704,-2.9687,-2.9848,-2.9899,-2.9772,-2.9971,-3.0165,-3.0066,-2.9954,-2.9964,-2.9998,-3.0123,-3.0686,-3.1525,-3.2359,-3.3014,-3.381,-3.4491,-3.5479,-3.554,-3.5584,-3.5434,-3.5584,-3.5492,-3.5438,-3.5607,-3.5603,-3.5353,-3.4545,-3.4145,-3.4173,-3.2997,-3.2477,-3.2615,-3.2506,-3.2301,-3.2192,-3.21,-3.1785,-3.12,-3.0997,-3.0668,-2.9787,-2.9669,-3.0278,-3.0825,-3.0871,-3.0538,-3.1613,-3.1664,-3.1913,-3.2218,-3.2651,-3.3086,-3.3369,-3.4228,-3.4805,-3.5117,-3.5605,-3.5898,-3.595,-3.5835,-3.5394,-3.4425,-3.3754,-3.2808,-3.1825,-3.1025,-3.075,-3.0692,-3.0695,-3.0764,-3.083,-3.0774,-3.073,-3.0759,-3.0739,-3.0808,-3.084,-3.0752,-3.0693,-3.0684,-3.0654,-3.0615,-3.041,-3.003,-2.8972,-2.8346,-2.7594,-2.6419,-2.6063,-2.537,-2.5341,-2.5301,-2.5265,-2.522,-2.5133,-2.5134,-2.52,-2.5262,-2.5341,-2.5361,-2.5322,-2.5341,-2.537,-2.5361,-2.5341,-2.537,-2.9665,-2.9555,-2.9639,-2.9687,-2.9687,-2.9687,-2.9669,-2.9687,-2.9651,-2.9704,-2.9738,-2.9713,-2.9713,-2.9815,-2.9789,-2.9755,-2.9782,-2.9808,-3.012,-3.0822,-3.1663,-3.2501,-3.3299,-3.413,-3.4671,-3.4925,-3.5159,-3.5071,-3.4893,-3.5093,-3.5114,-3.4778,-3.5214,-3.5516,-3.4997,-3.4083,-3.3529,-3.3455,-3.2068,-3.1357,-3.1584,-3.1312,-3.0921,-3.0768,-3.0677,-3.0404,-3.0167,-2.9992,-2.988,-2.9715,-2.9533,-2.9701,-3.0151,-3.063,-3.1053,-3.1255,-3.1578,-3.191,-3.231,-3.2279,-3.301,-3.3945,-3.4473,-3.5019,-3.5491,-3.5803,-3.5841,-3.5729,-3.5545,-3.5037,-3.3583,-3.314,-3.2384,-3.1342,-3.0758,-3.0624,-3.0625,-3.0634,-3.0658,-3.0722,-3.0694,-3.0667,-3.0697,-3.0711,-3.0721,-3.0735,-3.0703,-3.0684,-3.0693,-3.0674,-3.0635,-3.0351,-3.0001,-2.8667,-2.7387,-2.6573,-2.5735,-2.5793,-2.5456,-2.5457,-2.5438,-2.5457,-2.5406,-2.5313,-2.5288,-2.5351,-2.5408,-2.5436,-2.5437,-2.5424,-2.5437,-2.5457,-2.5436,-2.5414,-2.5438,-2.9428,-2.9251,-2.9327,-2.9336,-2.9316,-2.9336,-2.9355,-2.9346,-2.9355,-2.9426,-2.9465,-2.9426,-2.9485,-2.9607,-2.9561,-2.9598,-2.9652,-2.9598,-3.0077,-3.0903,-3.1811,-3.2645,-3.3435,-3.4289,-3.4278,-3.4207,-3.4276,-3.4589,-3.4619,-3.4557,-3.4688,-3.5028,-3.5339,-3.5286,-3.4664,-3.3615,-3.2881,-3.2457,-3.1157,-3.0327,-3.0672,-3.0223,-2.999,-2.9864,-2.9746,-2.9643,-2.9561,-2.9533,-2.9474,-2.9355,-2.9258,-2.927,-2.961,-3.0218,-3.0818,-3.0794,-3.1299,-3.1641,-3.189,-3.1725,-3.2421,-3.3158,-3.3717,-3.4382,-3.5117,-3.5485,-3.5535,-3.5127,-3.451,-3.3837,-3.255,-3.2473,-3.178,-3.0871,-3.0525,-3.054,-3.0545,-3.054,-3.0579,-3.0606,-3.0617,-3.0614,-3.0625,-3.0625,-3.0615,-3.062,-3.062,-3.0598,-3.058,-3.0342,-3.0156,-2.9687,-2.915,-2.7969,-2.6777,-2.6143,-2.5547,-2.5536,-2.5541,-2.5538,-2.5527,-2.5524,-2.5522,-2.5485,-2.5494,-2.5488,-2.5475,-2.5479,-2.5502,-2.5519,-2.5505,-2.5509,-2.5505,-2.5512,-2.5521,-2.9181,-2.8984,-2.8984,-2.8984,-2.8984,-2.9007,-2.8998,-2.8984,-2.8998,-2.9156,-2.9267,-2.9125,-2.9218,-2.9436,-2.9415,-2.9414,-2.9561,-2.9504,-3.0175,-3.1035,-3.1906,-3.2706,-3.35,-3.398,-3.4183,-3.3737,-3.3391,-3.3667,-3.3992,-3.3987,-3.433,-3.4573,-3.4985,-3.4798,-3.3959,-3.2896,-3.2053,-3.1281,-3.0386,-2.9864,-2.9738,-2.967,-2.9634,-2.9616,-2.9598,-2.9465,-2.9342,-2.9321,-2.9225,-2.9112,-2.9021,-2.8998,-2.9136,-2.9854,-3.017,-3.0146,-3.1011,-3.1175,-3.1237,-3.1157,-3.1718,-3.2353,-3.2745,-3.3432,-3.411,-3.4643,-3.4846,-3.4256,-3.3606,-3.2855,-3.2054,-3.1756,-3.1304,-3.0708,-3.0467,-3.0489,-3.0475,-3.0476,-3.0488,-3.0506,-3.0535,-3.0539,-3.0545,-3.0535,-3.0528,-3.0297,-3.0297,-3.002,-2.9932,-2.9441,-2.9131,-2.8672,-2.8018,-2.7021,-2.625,-2.5986,-2.5615,-2.5596,-2.5598,-2.5599,-2.558,-2.5566,-2.557,-2.559,-2.5588,-2.5573,-2.5554,-2.5537,-2.558,-2.5582,-2.5563,-2.5557,-2.5586,-2.5586,-2.5585,-2.904,-2.8984,-2.8984,-2.8984,-2.8984,-2.8984,-2.8984,-2.8984,-2.8984,-2.9017,-2.92,-2.903,-2.9044,-2.9102,-2.9102,-2.908,-2.9277,-2.9798,-3.0457,-3.1309,-3.2121,-3.2914,-3.3632,-3.3814,-3.3857,-3.3491,-3.3007,-3.2612,-3.2974,-3.3299,-3.3568,-3.3877,-3.3944,-3.3581,-3.3341,-3.2179,-3.1225,-3.0888,-3.0154,-2.9704,-2.9633,-2.9504,-2.9444,-2.9373,-2.9267,-2.9147,-2.9112,-2.9102,-2.9053,-2.903,-2.8984,-2.8984,-2.9062,-2.9302,-2.9485,-2.9833,-3.0551,-3.1422,-3.1347,-3.1101,-3.1222,-3.1791,-3.2128,-3.2551,-3.3216,-3.3471,-3.3691,-3.4218,-3.3324,-3.2458,-3.1708,-3.1631,-3.1198,-3.0775,-3.0417,-3.0417,-3.0408,-3.0427,-3.0427,-3.0427,-3.0467,-3.0458,-3.0431,-3.0441,-3.04,-3.016,-2.9903,-2.9611,-2.9216,-2.8701,-2.8057,-2.7568,-2.7334,-2.6435,-2.6045,-2.5732,-2.5664,-2.5644,-2.5647,-2.5644,-2.5637,-2.5626,-2.5648,-2.5664,-2.5654,-2.5654,-2.5635,-2.5635,-2.5664,-2.5654,-2.5625,-2.5644,-2.5674,-2.5674,-2.5644,-2.8498,-2.8673,-2.8905,-2.8984,-2.8984,-2.8984,-2.8984,-2.8984,-2.8984,-2.925,-2.9521,-2.9173,-2.8984,-2.9012,-2.8984,-2.8998,-2.9159,-2.987,-3.0652,-3.1455,-3.2279,-3.3036,-3.3632,-3.377,-3.3669,-3.3192,-3.2825,-3.2624,-3.2636,-3.2938,-3.3411,-3.3976,-3.3582,-3.3173,-3.2707,-3.16,-3.0725,-3.0133,-2.9583,-2.9323,-2.9272,-2.9228,-2.9169,-2.9169,-2.9062,-2.9007,-2.8984,-2.8984,-2.8984,-2.8984,-2.8984,-2.8984,-2.9007,-2.9112,-2.9234,-2.9461,-2.9989,-3.0502,-3.0755,-3.0603,-3.1052,-3.1594,-3.1893,-3.2236,-3.2727,-3.2612,-3.2403,-3.2699,-3.1977,-3.1381,-3.1121,-3.0977,-3.0794,-3.0523,-3.0398,-3.0388,-3.0388,-3.0388,-3.0398,-3.0398,-3.0388,-3.0388,-3.0388,-3.0398,-3.0246,-2.9823,-2.9419,-2.8991,-2.8472,-2.7858,-2.7158,-2.6426,-2.6289,-2.6045,-2.5879,-2.5693,-2.5684,-2.5674,-2.5674,-2.5673,-2.5683,-2.569,-2.5672,-2.5684,-2.5684,-2.5684,-2.5693,-2.5693,-2.5684,-2.5693,-2.5693,-2.5693,-2.5693,-2.5693,-2.5674,-2.7899,-2.8166,-2.8567,-2.8758,-2.8848,-2.883,-2.8887,-2.8984,-2.8984,-2.9314,-2.9613,-2.9283,-2.9076,-2.9186,-2.914,-2.9122,-2.9411,-3.0136,-3.0931,-3.1721,-3.2476,-3.3229,-3.366,-3.3761,-3.3522,-3.2854,-3.3073,-3.297,-3.302,-3.3189,-3.3697,-3.4389,-3.3168,-3.2614,-3.1899,-3.0945,-2.9995,-2.9439,-2.9193,-2.9044,-2.9021,-2.9021,-2.8998,-2.9007,-2.8984,-2.8961,-2.8872,-2.883,-2.8821,-2.883,-2.8806,-2.883,-2.8975,-2.9021,-2.9112,-2.9289,-2.9616,-2.9831,-3.0138,-3.0318,-3.084,-3.1249,-3.1566,-3.1636,-3.2288,-3.1874,-3.1597,-3.1862,-3.1093,-3.0629,-3.0408,-3.0467,-3.0456,-3.0446,-3.0388,-3.0388,-3.0388,-3.0369,-3.0369,-3.0388,-3.0388,-3.0388,-3.0388,-3.0388,-3.0112,-2.9563,-2.9026,-2.8391,-2.7684,-2.6967,-2.6533,-2.5869,-2.5879,-2.584,-2.5781,-2.5693,-2.5693,-2.5684,-2.5684,-2.5671,-2.5658,-2.5639,-2.561,-2.5635,-2.5664,-2.5664,-2.5644,-2.5674,-2.5693,-2.5693,-2.5693,-2.5693,-2.5693,-2.5693,-2.5693,-2.7365,-2.7418,-2.7803,-2.8165,-2.8446,-2.8455,-2.8658,-2.8905,-2.8952,-2.9011,-2.9174,-2.9053,-2.9381,-2.9676,-2.928,-2.9337,-3.0066,-3.0944,-3.1645,-3.2452,-3.3281,-3.3579,-3.3762,-3.3716,-3.368,-3.3506,-3.3351,-3.3406,-3.3597,-3.3323,-3.3623,-3.3675,-3.268,-3.1861,-3.1102,-3.0257,-2.9476,-2.9038,-2.8912,-2.8896,-2.8905,-2.8938,-2.8938,-2.8952,-2.8952,-2.8839,-2.8462,-2.8446,-2.8446,-2.8455,-2.8464,-2.8583,-2.8758,-2.8863,-2.8934,-2.9007,-2.9303,-2.9505,-2.9659,-3.0033,-3.0371,-3.0494,-3.0617,-3.0906,-3.1494,-3.096,-3.0917,-3.1332,-3.0628,-3.0375,-3.0333,-3.0388,-3.0286,-3.0264,-3.0209,-3.0228,-3.0241,-3.0311,-3.0331,-3.0369,-3.0388,-3.0388,-3.0172,-3.0124,-2.9725,-2.9158,-2.79,-2.7226,-2.6612,-2.5997,-2.5923,-2.5644,-2.5703,-2.5713,-2.5723,-2.5684,-2.5644,-2.5625,-2.5625,-2.5607,-2.559,-2.5573,-2.5553,-2.5557,-2.5586,-2.5586,-2.5605,-2.5635,-2.5664,-2.5684,-2.5693,-2.5693,-2.5693,-2.5693,-2.5693,-2.693,-2.6954,-2.7115,-2.7512,-2.812,-2.8111,-2.8192,-2.8317,-2.8326,-2.8613,-2.899,-2.9044,-2.9224,-2.9269,-2.9009,-2.9075,-2.9917,-3.0958,-3.1795,-3.2617,-3.3327,-3.3577,-3.356,-3.3385,-3.3286,-3.3115,-3.3036,-3.3005,-3.2929,-3.3096,-3.3018,-3.2721,-3.2326,-3.211,-3.1311,-2.9981,-2.917,-2.8829,-2.8594,-2.8404,-2.8574,-2.843,-2.8421,-2.8615,-2.8369,-2.829,-2.8111,-2.8111,-2.8084,-2.8084,-2.8111,-2.8228,-2.8421,-2.8549,-2.8658,-2.874,-2.9101,-2.9338,-2.941,-2.9753,-2.9952,-2.9992,-3.0085,-3.0281,-3.0637,-3.0243,-3.019,-3.0279,-3.0264,-3.0056,-2.9968,-2.9968,-2.9937,-2.9973,-2.9999,-3.0018,-3.0065,-3.0148,-3.0201,-3.022,-3.0319,-3.0388,-3.0083,-2.9778,-2.9277,-2.8675,-2.7312,-2.615,-2.5707,-2.5425,-2.5473,-2.5522,-2.5585,-2.5603,-2.5623,-2.5597,-2.557,-2.5574,-2.557,-2.5553,-2.5534,-2.5524,-2.5512,-2.5511,-2.5502,-2.5518,-2.5547,-2.5586,-2.5625,-2.5674,-2.5693,-2.5693,-2.5693,-2.5693,-2.5693,-2.67,-2.67,-2.67,-2.7074,-2.7687,-2.7716,-2.7783,-2.7897,-2.7917,-2.8331,-2.9009,-2.9048,-2.907,-2.8995,-2.9037,-2.9196,-3.0015,-3.0875,-3.1781,-3.249,-3.3039,-3.3192,-3.3077,-3.2976,-3.2838,-3.2523,-3.2484,-3.255,-3.2574,-3.2517,-3.2585,-3.2595,-3.2498,-3.2245,-3.1403,-3.007,-2.8939,-2.855,-2.828,-2.7982,-2.821,-2.8075,-2.801,-2.8228,-2.8056,-2.7897,-2.7774,-2.7707,-2.7716,-2.7716,-2.7745,-2.7803,-2.7964,-2.8175,-2.8368,-2.8606,-2.8888,-2.9267,-2.9353,-2.9533,-2.9687,-2.9772,-2.9832,-2.9829,-2.9786,-2.9829,-2.9921,-2.982,-2.975,-2.9687,-2.9687,-2.9755,-2.9772,-2.9822,-2.981,-2.983,-2.9871,-2.9946,-2.9998,-3.0059,-3.0067,-2.9871,-2.9313,-2.8823,-2.8055,-2.7661,-2.7067,-2.6067,-2.5572,-2.5389,-2.5427,-2.547,-2.5509,-2.5517,-2.5518,-2.5528,-2.5531,-2.5531,-2.5509,-2.5493,-2.5475,-2.5457,-2.5438,-2.5412,-2.5421,-2.5447,-2.5487,-2.5525,-2.5593,-2.5664,-2.5684,-2.5693,-2.5693,-2.5693,-2.5693,-2.67,-2.67,-2.67,-2.693,-2.7295,-2.7326,-2.75,-2.7745,-2.7783,-2.8279,-2.8987,-2.8978,-2.8998,-2.9132,-2.9369,-2.9672,-3.0078,-3.0831,-3.1688,-3.2391,-3.2664,-3.2607,-3.2546,-3.25,-3.2428,-3.2489,-3.2341,-3.2248,-3.2384,-3.2291,-3.232,-3.2336,-3.2219,-3.2077,-3.1219,-2.9783,-2.8679,-2.8072,-2.7988,-2.7803,-2.7851,-2.7794,-2.7765,-2.786,-2.7736,-2.7547,-2.7387,-2.7326,-2.7295,-2.7334,-2.7326,-2.7439,-2.7707,-2.8112,-2.8307,-2.8394,-2.8797,-2.9021,-2.9035,-2.9437,-2.9579,-2.9617,-2.9638,-2.9641,-2.9654,-2.9687,-2.9661,-2.9533,-2.9588,-2.9634,-2.9661,-2.9651,-2.9615,-2.9597,-2.9569,-2.9625,-2.9654,-2.9804,-2.9886,-2.9912,-2.9475,-2.9028,-2.8413,-2.7726,-2.6842,-2.6406,-2.6375,-2.5977,-2.5426,-2.5341,-2.539,-2.5399,-2.5428,-2.5437,-2.5451,-2.5484,-2.5495,-2.5476,-2.5457,-2.5409,-2.537,-2.5341,-2.5322,-2.5322,-2.5341,-2.537,-2.5409,-2.5466,-2.5556,-2.5644,-2.5684,-2.5693,-2.5693,-2.5693,-2.5693,-2.67,-2.67,-2.67,-2.6791,-2.6906,-2.6898,-2.6995,-2.7092,-2.7201,-2.782,-2.8716,-2.8511,-2.8555,-2.8905,-2.9049,-2.9379,-2.9854,-3.0304,-3.11,-3.2318,-3.2384,-3.2262,-3.2126,-3.1994,-3.1914,-3.1703,-3.162,-3.1685,-3.1591,-3.1722,-3.1657,-3.162,-3.1778,-3.1675,-3.114,-3.0041,-2.8819,-2.8466,-2.7829,-2.721,-2.7418,-2.7295,-2.7272,-2.7487,-2.7303,-2.7092,-2.6971,-2.6963,-2.6971,-2.6971,-2.6963,-2.7027,-2.7295,-2.7681,-2.8065,-2.8237,-2.8619,-2.8984,-2.9007,-2.9185,-2.9228,-2.9296,-2.9403,-2.942,-2.9277,-2.9434,-2.9384,-2.9293,-2.9314,-2.9293,-2.9218,-2.9209,-2.9197,-2.9206,-2.9215,-2.9329,-2.9431,-2.9654,-2.9787,-2.9775,-2.9507,-2.8133,-2.723,-2.6874,-2.6078,-2.5593,-2.5555,-2.5571,-2.5167,-2.5255,-2.5332,-2.5332,-2.5341,-2.5361,-2.537,-2.5339,-2.5268,-2.5209,-2.5241,-2.5273,-2.5253,-2.5233,-2.5283,-2.5293,-2.5293,-2.5313,-2.5361,-2.5433,-2.5542,-2.5625,-2.5644,-2.5684,-2.5693,-2.5693,-2.5693,-2.67,-2.67,-2.67,-2.67,-2.67,-2.67,-2.67,-2.6742,-2.6962,-2.7679,-2.8389,-2.8527,-2.8724,-2.8954,-2.9074,-2.8905,-2.9481,-2.997,-3.0057,-3.142,-3.1882,-3.1573,-3.1389,-3.1489,-3.1486,-3.1224,-3.119,-3.1221,-3.1299,-3.1221,-3.126,-3.1252,-3.119,-3.1355,-3.105,-3.0168,-2.9056,-2.8523,-2.7632,-2.7172,-2.71,-2.6939,-2.6873,-2.6971,-2.6915,-2.6733,-2.67,-2.67,-2.67,-2.67,-2.67,-2.67,-2.6906,-2.7272,-2.7877,-2.8341,-2.8974,-2.9222,-2.9108,-2.9007,-2.9058,-2.9062,-2.9173,-2.9154,-2.9044,-2.9178,-2.9169,-2.908,-2.9007,-2.9007,-2.9007,-2.8984,-2.9007,-2.9017,-2.9145,-2.9273,-2.9403,-2.9638,-2.9626,-2.9605,-2.8946,-2.7516,-2.6194,-2.5839,-2.5394,-2.5059,-2.478,-2.4857,-2.4983,-2.5129,-2.5244,-2.5243,-2.521,-2.5185,-2.5164,-2.5113,-2.5039,-2.4945,-2.501,-2.5105,-2.5128,-2.5105,-2.5192,-2.5264,-2.5284,-2.5313,-2.534,-2.5408,-2.5493,-2.5558,-2.5596,-2.5635,-2.5684,-2.5684,-2.5674,-2.6666,-2.6657,-2.6649,-2.6624,-2.6666,-2.6666,-2.67,-2.675,-2.7408,-2.7762,-2.7975,-2.9379,-2.9543,-2.9271,-2.9739,-2.9709,-2.9389,-2.9864,-2.9922,-3.0015,-3.1018,-3.0768,-3.0822,-3.1007,-3.119,-3.1216,-3.119,-3.119,-3.119,-3.119,-3.119,-3.119,-3.119,-3.1252,-3.098,-3.0357,-2.9338,-2.8484,-2.785,-2.73,-2.6953,-2.6758,-2.6725,-2.6791,-2.6733,-2.67,-2.67,-2.67,-2.67,-2.67,-2.67,-2.67,-2.6849,-2.7083,-2.798,-2.8818,-2.9588,-2.949,-2.9066,-2.8896,-2.8984,-2.8984,-2.9026,-2.9026,-2.9026,-2.9062,-2.903,-2.9021,-2.8984,-2.8984,-2.8984,-2.8984,-2.8984,-2.9095,-2.9255,-2.9375,-2.9488,-2.9532,-2.9456,-2.9103,-2.8324,-2.71,-2.5716,-2.5108,-2.5143,-2.4859,-2.4684,-2.4747,-2.4889,-2.5042,-2.5127,-2.5145,-2.5096,-2.5012,-2.4966,-2.4942,-2.4854,-2.4775,-2.4841,-2.4919,-2.4949,-2.5024,-2.5141,-2.5224,-2.5274,-2.5313,-2.536,-2.5383,-2.5424,-2.5482,-2.5542,-2.5576,-2.5615,-2.5635,-2.5635,-2.598,-2.5635,-2.5627,-2.5872,-2.6227,-2.6547,-2.67,-2.675,-2.697,-2.7545,-2.8695,-2.908,-2.9522,-2.9795,-2.9998,-2.9939,-2.993,-3.004,-3.0357,-3.0615,-3.0726,-3.0887,-3.1001,-3.105,-3.1182,-3.119,-3.119,-3.119,-3.119,-3.119,-3.119,-3.119,-3.1114,-3.1137,-3.0867,-3.0497,-2.9546,-2.8744,-2.8125,-2.752,-2.7038,-2.6869,-2.6869,-2.6903,-2.6826,-2.6818,-2.6801,-2.6725,-2.6708,-2.67,-2.67,-2.67,-2.6725,-2.7083,-2.7718,-2.822,-2.8985,-2.9419,-2.8798,-2.8821,-2.8966,-2.8943,-2.8975,-2.8984,-2.8984,-2.8984,-2.8984,-2.8984,-2.8984,-2.8984,-2.8984,-2.8984,-2.8984,-2.9076,-2.9258,-2.9455,-2.9551,-2.9564,-2.9411,-2.8527,-2.7728,-2.6656,-2.5279,-2.5041,-2.5051,-2.476,-2.4632,-2.4695,-2.4771,-2.4916,-2.5008,-2.5022,-2.4949,-2.4855,-2.4845,-2.4822,-2.4706,-2.4632,-2.4676,-2.476,-2.4865,-2.4952,-2.5086,-2.5194,-2.5274,-2.5341,-2.538,-2.5396,-2.5387,-2.5451,-2.5505,-2.5525,-2.5547,-2.5563,-2.5577,-2.5486,-2.5229,-2.5229,-2.5494,-2.6005,-2.6305,-2.6513,-2.67,-2.7004,-2.774,-2.8543,-2.918,-2.9669,-3.0015,-3.0091,-3.0074,-3.0057,-2.9693,-2.9778,-2.9993,-3.0721,-3.0662,-3.0757,-3.1058,-3.1182,-3.119,-3.119,-3.119,-3.1134,-3.1143,-3.1143,-3.0806,-3.0865,-3.0692,-3.0443,-3.0193,-2.9811,-2.9126,-2.8533,-2.7874,-2.7511,-2.7402,-2.7571,-2.7469,-2.7334,-2.7148,-2.7046,-2.6945,-2.6725,-2.6708,-2.67,-2.67,-2.6893,-2.7324,-2.7508,-2.8035,-2.8729,-2.8846,-2.8442,-2.8537,-2.8697,-2.8794,-2.8887,-2.8984,-2.8984,-2.8984,-2.8984,-2.8984,-2.8984,-2.8984,-2.8984,-2.8984,-2.8984,-2.9007,-2.927,-2.9542,-2.959,-2.9622,-2.8943,-2.8026,-2.7053,-2.6041,-2.5384,-2.5208,-2.502,-2.4818,-2.4645,-2.4586,-2.4648,-2.4726,-2.4829,-2.4895,-2.4779,-2.4676,-2.468,-2.465,-2.4538,-2.4442,-2.4426,-2.4545,-2.4706,-2.4884,-2.5013,-2.5157,-2.5293,-2.5332,-2.5361,-2.5351,-2.5351,-2.5409,-2.5428,-2.5422,-2.5444,-2.549,-2.5502,-2.5002,-2.4979,-2.512,-2.5365,-2.586,-2.5888,-2.6183,-2.6691,-2.7222,-2.7739,-2.8085,-2.9262,-2.974,-2.9846,-3.0006,-2.9989,-2.9939,-2.9685,-2.9499,-2.9152,-3.0213,-3.0451,-3.0494,-3.0825,-3.114,-3.119,-3.1052,-3.0841,-3.0956,-3.0816,-3.053,-3.0251,-3.0223,-3.008,-2.9785,-2.9735,-2.9436,-2.9021,-2.8853,-2.8538,-2.8279,-2.8501,-2.8958,-2.8746,-2.8306,-2.7867,-2.7613,-2.7241,-2.6784,-2.6725,-2.6632,-2.6624,-2.6784,-2.736,-2.7492,-2.7754,-2.8246,-2.8306,-2.8115,-2.818,-2.8327,-2.8492,-2.8707,-2.8797,-2.883,-2.8952,-2.8984,-2.8952,-2.8929,-2.883,-2.8773,-2.8773,-2.8773,-2.8924,-2.9197,-2.9467,-2.9645,-2.935,-2.851,-2.7555,-2.6544,-2.5629,-2.5388,-2.5194,-2.5072,-2.4892,-2.4753,-2.4629,-2.4482,-2.454,-2.4605,-2.4705,-2.4595,-2.4494,-2.4447,-2.441,-2.4339,-2.4266,-2.4312,-2.4502,-2.4804,-2.4903,-2.4965,-2.5127,-2.5303,-2.5303,-2.5313,-2.5322,-2.5322,-2.5332,-2.5341,-2.5322,-2.5351,-2.5418,-2.5426,-2.3638,-2.3417,-2.4228,-2.4664,-2.4824,-2.5213,-2.5697,-2.6156,-2.6322,-2.6933,-2.7754,-2.8201,-2.8752,-2.9262,-2.982,-2.982,-2.944,-2.9685,-2.9841,-2.9765,-3.0205,-3.0314,-3.0308,-3.0767,-3.1055,-3.1024,-3.0788,-3.0335,-3.0091,-2.9922,-2.9824,-2.9653,-2.9588,-2.943,-2.9225,-2.9187,-2.8842,-2.8663,-2.8959,-2.9007,-2.8811,-2.8769,-2.8958,-2.8975,-2.8721,-2.8357,-2.8063,-2.7683,-2.7182,-2.6852,-2.6365,-2.5988,-2.5615,-2.6417,-2.6599,-2.6574,-2.7326,-2.7521,-2.7648,-2.7679,-2.7903,-2.8103,-2.8299,-2.8446,-2.8615,-2.8863,-2.8961,-2.8881,-2.8791,-2.8667,-2.8574,-2.8574,-2.8624,-2.8841,-2.906,-2.9363,-2.9645,-2.8911,-2.8102,-2.7103,-2.6082,-2.5669,-2.5428,-2.5213,-2.5103,-2.498,-2.4853,-2.4683,-2.4403,-2.4332,-2.4355,-2.4422,-2.4372,-2.4294,-2.4293,-2.4365,-2.4374,-2.4401,-2.447,-2.4666,-2.4904,-2.5019,-2.5115,-2.5198,-2.5303,-2.5303,-2.5303,-2.5303,-2.5303,-2.5303,-2.5303,-2.5303,-2.5303,-2.5351,-2.5351,-2.2659,-2.2825,-2.3648,-2.4191,-2.4438,-2.4744,-2.5136,-2.5577,-2.5652,-2.6028,-2.6778,-2.7425,-2.8068,-2.8577,-2.9262,-2.9403,-2.9008,-2.9355,-2.9568,-2.9762,-2.9778,-3.0107,-3.0323,-3.0535,-3.0384,-3.036,-3.0111,-2.9691,-2.9347,-2.9388,-2.9415,-2.9051,-2.8971,-2.8862,-2.8709,-2.8379,-2.836,-2.8415,-2.8941,-2.9165,-2.9243,-2.9512,-2.9892,-2.9947,-2.9578,-2.9096,-2.8454,-2.8049,-2.736,-2.6784,-2.627,-2.5762,-2.546,-2.5657,-2.5766,-2.5831,-2.6166,-2.6595,-2.6784,-2.7057,-2.7426,-2.7651,-2.7982,-2.8165,-2.8183,-2.8395,-2.8709,-2.8676,-2.8599,-2.8471,-2.8394,-2.8368,-2.8394,-2.8547,-2.8792,-2.9068,-2.9162,-2.8839,-2.7928,-2.693,-2.6198,-2.5899,-2.56,-2.5142,-2.5027,-2.4879,-2.4779,-2.4616,-2.4358,-2.4208,-2.4199,-2.4256,-2.4303,-2.4327,-2.4403,-2.4491,-2.4575,-2.4601,-2.4632,-2.478,-2.4962,-2.516,-2.5293,-2.5303,-2.5303,-2.5303,-2.5303,-2.5303,-2.5303,-2.5303,-2.5303,-2.5303,-2.5303,-2.5303,-2.5313,-2.2009,-2.2712,-2.3243,-2.3803,-2.4266,-2.4307,-2.4584,-2.5059,-2.5105,-2.5136,-2.5478,-2.6803,-2.7358,-2.774,-2.8253,-2.8502,-2.8538,-2.8361,-2.8723,-2.8898,-2.9033,-2.9164,-2.9542,-2.9974,-2.9785,-2.9555,-2.9305,-2.9179,-2.8958,-2.8928,-2.8693,-2.8414,-2.8274,-2.8135,-2.7901,-2.8004,-2.827,-2.8397,-2.8728,-2.9134,-2.9699,-3.0352,-3.0603,-3.0594,-3.0446,-2.9748,-2.9005,-2.8364,-2.7581,-2.6611,-2.5944,-2.5327,-2.4855,-2.4718,-2.4934,-2.5005,-2.5005,-2.5494,-2.5946,-2.6402,-2.6776,-2.7151,-2.7578,-2.7783,-2.7803,-2.8029,-2.8308,-2.8377,-2.8307,-2.821,-2.8112,-2.8084,-2.8112,-2.8254,-2.8505,-2.8817,-2.881,-2.8731,-2.7838,-2.6868,-2.6424,-2.6105,-2.5554,-2.5101,-2.4911,-2.4761,-2.4614,-2.4418,-2.4284,-2.4255,-2.4246,-2.4367,-2.4461,-2.4498,-2.4497,-2.4619,-2.4721,-2.4771,-2.4799,-2.4892,-2.5019,-2.5191,-2.5293,-2.5303,-2.5303,-2.5303,-2.5303,-2.5303,-2.5303,-2.5303,-2.5303,-2.5303,-2.5303,-2.5303,-2.5303,-2.1597,-2.269,-2.2858,-2.3215,-2.3706,-2.3752,-2.4082,-2.4511,-2.4544,-2.4776,-2.5129,-2.5354,-2.5681,-2.5745,-2.6497,-2.683,-2.697,-2.7038,-2.6816,-2.6772,-2.805,-2.8184,-2.8381,-2.9116,-2.9107,-2.8833,-2.8545,-2.8363,-2.8243,-2.8065,-2.7936,-2.7825,-2.7825,-2.7758,-2.772,-2.7795,-2.7879,-2.8046,-2.8319,-2.8689,-2.8826,-2.9401,-2.9951,-3.0154,-3.0312,-2.9719,-2.9163,-2.8896,-2.7707,-2.6471,-2.5243,-2.4569,-2.4044,-2.3706,-2.3811,-2.4194,-2.4153,-2.4727,-2.5293,-2.5779,-2.6184,-2.675,-2.7118,-2.7339,-2.7431,-2.7678,-2.7851,-2.788,-2.7805,-2.7622,-2.7542,-2.7521,-2.7542,-2.7826,-2.8127,-2.856,-2.879,-2.8551,-2.8036,-2.7196,-2.6541,-2.5923,-2.5126,-2.4846,-2.4752,-2.4629,-2.4547,-2.4365,-2.4238,-2.4255,-2.4264,-2.4411,-2.4559,-2.457,-2.453,-2.4745,-2.4865,-2.491,-2.4975,-2.5046,-2.5138,-2.5233,-2.5303,-2.5293,-2.5303,-2.5303,-2.5303,-2.5303,-2.5303,-2.5303,-2.5303,-2.5303,-2.5303,-2.5303,-2.5303]}]]